<?xml version="1.0" encoding="UTF-8" standalone="no" ?>
<gpx xmlns="http://www.topografix.com/GPX/1/1" xmlns:xsi="http://www.w3.org/2001/XMLSchema-instance" xsi:schemaLocation="http://www.topografix.com/GPX/1/1 http://www.topografix.com/GPX/1/1/gpx.xsd" version="1.1" creator="VisuGPX - https://www.visugpx.com">
  <metadata>
    <name>Ducambanderie avec un nouveau cheval !</name>
    <desc><![CDATA[Johanna arrive jeudi dans son nouveau pré, et nous faisons notre première sortie ensemble avec en plus Néo et ma fille.]]></desc>
  </metadata>
  <trk>
    <name><![CDATA[Untitled]]></name>
    <trkseg>
      <trkpt lat="48.70742" lon="1.75411">
        <ele>171.60000610352</ele>
        <time>2014-04-27T09:30:03.000Z</time>
      </trkpt>
      <trkpt lat="48.7074" lon="1.75406">
        <ele>171.60000610352</ele>
        <time>2014-04-27T09:30:06.000Z</time>
      </trkpt>
      <trkpt lat="48.70745" lon="1.7539">
        <ele>171.60000610352</ele>
        <time>2014-04-27T09:30:14.000Z</time>
      </trkpt>
      <trkpt lat="48.7075" lon="1.75384">
        <ele>171.80000305176</ele>
        <time>2014-04-27T09:30:19.000Z</time>
      </trkpt>
      <trkpt lat="48.70757" lon="1.7537">
        <ele>171.80000305176</ele>
        <time>2014-04-27T09:30:27.000Z</time>
      </trkpt>
      <trkpt lat="48.70762" lon="1.75352">
        <ele>172</ele>
        <time>2014-04-27T09:30:37.000Z</time>
      </trkpt>
      <trkpt lat="48.70768" lon="1.75334">
        <ele>172</ele>
        <time>2014-04-27T09:30:47.000Z</time>
      </trkpt>
      <trkpt lat="48.70775" lon="1.75315">
        <ele>172.19999694824</ele>
        <time>2014-04-27T09:30:58.000Z</time>
      </trkpt>
      <trkpt lat="48.7078" lon="1.75298">
        <ele>172.60000610352</ele>
        <time>2014-04-27T09:31:07.000Z</time>
      </trkpt>
      <trkpt lat="48.70787" lon="1.75275">
        <ele>173</ele>
        <time>2014-04-27T09:31:19.000Z</time>
      </trkpt>
      <trkpt lat="48.70794" lon="1.75256">
        <ele>173.19999694824</ele>
        <time>2014-04-27T09:31:30.000Z</time>
      </trkpt>
      <trkpt lat="48.70797" lon="1.75246">
        <ele>173.39999389648</ele>
        <time>2014-04-27T09:31:36.000Z</time>
      </trkpt>
      <trkpt lat="48.708" lon="1.7524">
        <ele>173.39999389648</ele>
        <time>2014-04-27T09:31:40.000Z</time>
      </trkpt>
      <trkpt lat="48.70807" lon="1.75221">
        <ele>173.39999389648</ele>
        <time>2014-04-27T09:31:51.000Z</time>
      </trkpt>
      <trkpt lat="48.70815" lon="1.75199">
        <ele>173.60000610352</ele>
        <time>2014-04-27T09:32:04.000Z</time>
      </trkpt>
      <trkpt lat="48.70818" lon="1.75191">
        <ele>173.39999389648</ele>
        <time>2014-04-27T09:32:09.000Z</time>
      </trkpt>
      <trkpt lat="48.70821" lon="1.75182">
        <ele>173.39999389648</ele>
        <time>2014-04-27T09:32:14.000Z</time>
      </trkpt>
      <trkpt lat="48.70829" lon="1.75167">
        <ele>173.19999694824</ele>
        <time>2014-04-27T09:32:24.000Z</time>
      </trkpt>
      <trkpt lat="48.70834" lon="1.75156">
        <ele>173</ele>
        <time>2014-04-27T09:32:31.000Z</time>
      </trkpt>
      <trkpt lat="48.70838" lon="1.75143">
        <ele>173.19999694824</ele>
        <time>2014-04-27T09:32:39.000Z</time>
      </trkpt>
      <trkpt lat="48.70844" lon="1.75132">
        <ele>173.39999389648</ele>
        <time>2014-04-27T09:32:47.000Z</time>
      </trkpt>
      <trkpt lat="48.70851" lon="1.75119">
        <ele>173.39999389648</ele>
        <time>2014-04-27T09:32:55.000Z</time>
      </trkpt>
      <trkpt lat="48.70857" lon="1.75104">
        <ele>173.60000610352</ele>
        <time>2014-04-27T09:33:04.000Z</time>
      </trkpt>
      <trkpt lat="48.70857" lon="1.75103">
        <ele>173.80000305176</ele>
        <time>2014-04-27T09:33:05.000Z</time>
      </trkpt>
      <trkpt lat="48.7086" lon="1.75096">
        <ele>173.80000305176</ele>
        <time>2014-04-27T09:33:09.000Z</time>
      </trkpt>
      <trkpt lat="48.70868" lon="1.75085">
        <ele>174.19999694824</ele>
        <time>2014-04-27T09:33:17.000Z</time>
      </trkpt>
      <trkpt lat="48.70877" lon="1.75067">
        <ele>174</ele>
        <time>2014-04-27T09:33:28.000Z</time>
      </trkpt>
      <trkpt lat="48.70887" lon="1.75045">
        <ele>174.39999389648</ele>
        <time>2014-04-27T09:33:41.000Z</time>
      </trkpt>
      <trkpt lat="48.70897" lon="1.75023">
        <ele>174.60000610352</ele>
        <time>2014-04-27T09:33:54.000Z</time>
      </trkpt>
      <trkpt lat="48.70906" lon="1.75006">
        <ele>174.80000305176</ele>
        <time>2014-04-27T09:34:05.000Z</time>
      </trkpt>
      <trkpt lat="48.70915" lon="1.74985">
        <ele>175</ele>
        <time>2014-04-27T09:34:18.000Z</time>
      </trkpt>
      <trkpt lat="48.70922" lon="1.74968">
        <ele>174.80000305176</ele>
        <time>2014-04-27T09:34:28.000Z</time>
      </trkpt>
      <trkpt lat="48.70928" lon="1.74954">
        <ele>174.80000305176</ele>
        <time>2014-04-27T09:34:37.000Z</time>
      </trkpt>
      <trkpt lat="48.7093" lon="1.74949">
        <ele>175</ele>
        <time>2014-04-27T09:34:40.000Z</time>
      </trkpt>
      <trkpt lat="48.70937" lon="1.74941">
        <ele>175</ele>
        <time>2014-04-27T09:34:46.000Z</time>
      </trkpt>
      <trkpt lat="48.70941" lon="1.74933">
        <ele>175.19999694824</ele>
        <time>2014-04-27T09:34:51.000Z</time>
      </trkpt>
      <trkpt lat="48.70951" lon="1.74921">
        <ele>175.60000610352</ele>
        <time>2014-04-27T09:35:00.000Z</time>
      </trkpt>
      <trkpt lat="48.70956" lon="1.74914">
        <ele>175.80000305176</ele>
        <time>2014-04-27T09:35:05.000Z</time>
      </trkpt>
      <trkpt lat="48.70965" lon="1.74905">
        <ele>176.39999389648</ele>
        <time>2014-04-27T09:35:13.000Z</time>
      </trkpt>
      <trkpt lat="48.7097" lon="1.74903">
        <ele>176.60000610352</ele>
        <time>2014-04-27T09:35:17.000Z</time>
      </trkpt>
      <trkpt lat="48.70973" lon="1.74897">
        <ele>177</ele>
        <time>2014-04-27T09:35:21.000Z</time>
      </trkpt>
      <trkpt lat="48.70979" lon="1.74889">
        <ele>177.60000610352</ele>
        <time>2014-04-27T09:35:27.000Z</time>
      </trkpt>
      <trkpt lat="48.7099" lon="1.74872">
        <ele>178.60000610352</ele>
        <time>2014-04-27T09:35:38.000Z</time>
      </trkpt>
      <trkpt lat="48.70996" lon="1.74865">
        <ele>178.80000305176</ele>
        <time>2014-04-27T09:35:44.000Z</time>
      </trkpt>
      <trkpt lat="48.71" lon="1.74855">
        <ele>178.80000305176</ele>
        <time>2014-04-27T09:35:50.000Z</time>
      </trkpt>
      <trkpt lat="48.71008" lon="1.74845">
        <ele>178.80000305176</ele>
        <time>2014-04-27T09:35:57.000Z</time>
      </trkpt>
      <trkpt lat="48.71008" lon="1.74833">
        <ele>178.80000305176</ele>
        <time>2014-04-27T09:36:04.000Z</time>
      </trkpt>
      <trkpt lat="48.71003" lon="1.74825">
        <ele>178.80000305176</ele>
        <time>2014-04-27T09:36:09.000Z</time>
      </trkpt>
      <trkpt lat="48.70996" lon="1.74815">
        <ele>178.80000305176</ele>
        <time>2014-04-27T09:36:17.000Z</time>
      </trkpt>
      <trkpt lat="48.70987" lon="1.74805">
        <ele>178.60000610352</ele>
        <time>2014-04-27T09:36:25.000Z</time>
      </trkpt>
      <trkpt lat="48.70978" lon="1.74794">
        <ele>178.39999389648</ele>
        <time>2014-04-27T09:36:34.000Z</time>
      </trkpt>
      <trkpt lat="48.70971" lon="1.74785">
        <ele>178.39999389648</ele>
        <time>2014-04-27T09:36:40.000Z</time>
      </trkpt>
      <trkpt lat="48.70965" lon="1.74775">
        <ele>178.39999389648</ele>
        <time>2014-04-27T09:36:47.000Z</time>
      </trkpt>
      <trkpt lat="48.70958" lon="1.74766">
        <ele>178.19999694824</ele>
        <time>2014-04-27T09:36:55.000Z</time>
      </trkpt>
      <trkpt lat="48.70952" lon="1.74757">
        <ele>178.19999694824</ele>
        <time>2014-04-27T09:37:02.000Z</time>
      </trkpt>
      <trkpt lat="48.70946" lon="1.74749">
        <ele>178.19999694824</ele>
        <time>2014-04-27T09:37:10.000Z</time>
      </trkpt>
      <trkpt lat="48.70939" lon="1.7474">
        <ele>178</ele>
        <time>2014-04-27T09:37:17.000Z</time>
      </trkpt>
      <trkpt lat="48.70932" lon="1.7473">
        <ele>177.80000305176</ele>
        <time>2014-04-27T09:37:23.000Z</time>
      </trkpt>
      <trkpt lat="48.70925" lon="1.7472">
        <ele>177.60000610352</ele>
        <time>2014-04-27T09:37:30.000Z</time>
      </trkpt>
      <trkpt lat="48.70924" lon="1.74718">
        <ele>177.60000610352</ele>
        <time>2014-04-27T09:37:31.000Z</time>
      </trkpt>
      <trkpt lat="48.70921" lon="1.74715">
        <ele>177.39999389648</ele>
        <time>2014-04-27T09:37:34.000Z</time>
      </trkpt>
      <trkpt lat="48.70915" lon="1.74707">
        <ele>177.19999694824</ele>
        <time>2014-04-27T09:37:40.000Z</time>
      </trkpt>
      <trkpt lat="48.70909" lon="1.74699">
        <ele>177</ele>
        <time>2014-04-27T09:37:46.000Z</time>
      </trkpt>
      <trkpt lat="48.70902" lon="1.74691">
        <ele>176.80000305176</ele>
        <time>2014-04-27T09:37:52.000Z</time>
      </trkpt>
      <trkpt lat="48.70896" lon="1.74683">
        <ele>176.60000610352</ele>
        <time>2014-04-27T09:37:58.000Z</time>
      </trkpt>
      <trkpt lat="48.70888" lon="1.74673">
        <ele>176.39999389648</ele>
        <time>2014-04-27T09:38:06.000Z</time>
      </trkpt>
      <trkpt lat="48.70883" lon="1.74669">
        <ele>176.39999389648</ele>
        <time>2014-04-27T09:38:10.000Z</time>
      </trkpt>
      <trkpt lat="48.70877" lon="1.7466">
        <ele>176.19999694824</ele>
        <time>2014-04-27T09:38:16.000Z</time>
      </trkpt>
      <trkpt lat="48.70876" lon="1.74659">
        <ele>176.19999694824</ele>
        <time>2014-04-27T09:38:17.000Z</time>
      </trkpt>
      <trkpt lat="48.70872" lon="1.74653">
        <ele>176</ele>
        <time>2014-04-27T09:38:22.000Z</time>
      </trkpt>
      <trkpt lat="48.70866" lon="1.74646">
        <ele>176</ele>
        <time>2014-04-27T09:38:28.000Z</time>
      </trkpt>
      <trkpt lat="48.70861" lon="1.74639">
        <ele>176</ele>
        <time>2014-04-27T09:38:34.000Z</time>
      </trkpt>
      <trkpt lat="48.7086" lon="1.74637">
        <ele>176</ele>
        <time>2014-04-27T09:38:35.000Z</time>
      </trkpt>
      <trkpt lat="48.70852" lon="1.74627">
        <ele>176</ele>
        <time>2014-04-27T09:38:43.000Z</time>
      </trkpt>
      <trkpt lat="48.70846" lon="1.74619">
        <ele>176</ele>
        <time>2014-04-27T09:38:50.000Z</time>
      </trkpt>
      <trkpt lat="48.7084" lon="1.74613">
        <ele>176.19999694824</ele>
        <time>2014-04-27T09:38:55.000Z</time>
      </trkpt>
      <trkpt lat="48.70835" lon="1.74606">
        <ele>176.19999694824</ele>
        <time>2014-04-27T09:39:00.000Z</time>
      </trkpt>
      <trkpt lat="48.70833" lon="1.74604">
        <ele>176.19999694824</ele>
        <time>2014-04-27T09:39:02.000Z</time>
      </trkpt>
      <trkpt lat="48.70829" lon="1.74599">
        <ele>176.19999694824</ele>
        <time>2014-04-27T09:39:06.000Z</time>
      </trkpt>
      <trkpt lat="48.70826" lon="1.74593">
        <ele>176.39999389648</ele>
        <time>2014-04-27T09:39:10.000Z</time>
      </trkpt>
      <trkpt lat="48.70823" lon="1.74587">
        <ele>176.39999389648</ele>
        <time>2014-04-27T09:39:15.000Z</time>
      </trkpt>
      <trkpt lat="48.70818" lon="1.74579">
        <ele>176.39999389648</ele>
        <time>2014-04-27T09:39:21.000Z</time>
      </trkpt>
      <trkpt lat="48.70812" lon="1.74571">
        <ele>176.39999389648</ele>
        <time>2014-04-27T09:39:28.000Z</time>
      </trkpt>
      <trkpt lat="48.70811" lon="1.7457">
        <ele>176.60000610352</ele>
        <time>2014-04-27T09:39:29.000Z</time>
      </trkpt>
      <trkpt lat="48.70809" lon="1.74567">
        <ele>176.60000610352</ele>
        <time>2014-04-27T09:39:31.000Z</time>
      </trkpt>
      <trkpt lat="48.70806" lon="1.74564">
        <ele>176.60000610352</ele>
        <time>2014-04-27T09:39:34.000Z</time>
      </trkpt>
      <trkpt lat="48.708" lon="1.74559">
        <ele>176.60000610352</ele>
        <time>2014-04-27T09:39:39.000Z</time>
      </trkpt>
      <trkpt lat="48.7079" lon="1.7455">
        <ele>176.80000305176</ele>
        <time>2014-04-27T09:39:47.000Z</time>
      </trkpt>
      <trkpt lat="48.70782" lon="1.74541">
        <ele>176.80000305176</ele>
        <time>2014-04-27T09:39:54.000Z</time>
      </trkpt>
      <trkpt lat="48.70774" lon="1.74532">
        <ele>177</ele>
        <time>2014-04-27T09:40:01.000Z</time>
      </trkpt>
      <trkpt lat="48.70772" lon="1.7453">
        <ele>177</ele>
        <time>2014-04-27T09:40:03.000Z</time>
      </trkpt>
      <trkpt lat="48.70766" lon="1.7452">
        <ele>177.19999694824</ele>
        <time>2014-04-27T09:40:10.000Z</time>
      </trkpt>
      <trkpt lat="48.70758" lon="1.7451">
        <ele>177.39999389648</ele>
        <time>2014-04-27T09:40:17.000Z</time>
      </trkpt>
      <trkpt lat="48.70755" lon="1.74508">
        <ele>177.60000610352</ele>
        <time>2014-04-27T09:40:19.000Z</time>
      </trkpt>
      <trkpt lat="48.70749" lon="1.74502">
        <ele>177.80000305176</ele>
        <time>2014-04-27T09:40:25.000Z</time>
      </trkpt>
      <trkpt lat="48.70748" lon="1.74501">
        <ele>177.80000305176</ele>
        <time>2014-04-27T09:40:26.000Z</time>
      </trkpt>
      <trkpt lat="48.7074" lon="1.7449">
        <ele>178</ele>
        <time>2014-04-27T09:40:35.000Z</time>
      </trkpt>
      <trkpt lat="48.70736" lon="1.74483">
        <ele>178.19999694824</ele>
        <time>2014-04-27T09:40:40.000Z</time>
      </trkpt>
      <trkpt lat="48.70735" lon="1.7448">
        <ele>178.39999389648</ele>
        <time>2014-04-27T09:40:42.000Z</time>
      </trkpt>
      <trkpt lat="48.70735" lon="1.74478">
        <ele>178.39999389648</ele>
        <time>2014-04-27T09:40:46.000Z</time>
      </trkpt>
      <trkpt lat="48.70734" lon="1.74459">
        <ele>178.60000610352</ele>
        <time>2014-04-27T09:41:50.000Z</time>
      </trkpt>
      <trkpt lat="48.7074" lon="1.7445">
        <ele>178.60000610352</ele>
        <time>2014-04-27T09:41:57.000Z</time>
      </trkpt>
      <trkpt lat="48.70749" lon="1.74444">
        <ele>178.19999694824</ele>
        <time>2014-04-27T09:42:04.000Z</time>
      </trkpt>
      <trkpt lat="48.7075" lon="1.74443">
        <ele>178.19999694824</ele>
        <time>2014-04-27T09:42:05.000Z</time>
      </trkpt>
      <trkpt lat="48.70754" lon="1.74442">
        <ele>178.19999694824</ele>
        <time>2014-04-27T09:42:09.000Z</time>
      </trkpt>
      <trkpt lat="48.70755" lon="1.74443">
        <ele>178</ele>
        <time>2014-04-27T09:42:11.000Z</time>
      </trkpt>
      <trkpt lat="48.7076" lon="1.74439">
        <ele>178</ele>
        <time>2014-04-27T09:42:18.000Z</time>
      </trkpt>
      <trkpt lat="48.70767" lon="1.74435">
        <ele>177.80000305176</ele>
        <time>2014-04-27T09:42:24.000Z</time>
      </trkpt>
      <trkpt lat="48.70773" lon="1.74431">
        <ele>177.60000610352</ele>
        <time>2014-04-27T09:42:30.000Z</time>
      </trkpt>
      <trkpt lat="48.70775" lon="1.7443">
        <ele>177.60000610352</ele>
        <time>2014-04-27T09:42:32.000Z</time>
      </trkpt>
      <trkpt lat="48.70779" lon="1.74427">
        <ele>177.60000610352</ele>
        <time>2014-04-27T09:42:37.000Z</time>
      </trkpt>
      <trkpt lat="48.70784" lon="1.74424">
        <ele>177.60000610352</ele>
        <time>2014-04-27T09:42:41.000Z</time>
      </trkpt>
      <trkpt lat="48.70794" lon="1.74417">
        <ele>177.39999389648</ele>
        <time>2014-04-27T09:42:49.000Z</time>
      </trkpt>
      <trkpt lat="48.70805" lon="1.74411">
        <ele>177.19999694824</ele>
        <time>2014-04-27T09:42:57.000Z</time>
      </trkpt>
      <trkpt lat="48.70811" lon="1.74408">
        <ele>177</ele>
        <time>2014-04-27T09:43:02.000Z</time>
      </trkpt>
      <trkpt lat="48.70817" lon="1.74402">
        <ele>177</ele>
        <time>2014-04-27T09:43:08.000Z</time>
      </trkpt>
      <trkpt lat="48.70823" lon="1.74396">
        <ele>176.80000305176</ele>
        <time>2014-04-27T09:43:14.000Z</time>
      </trkpt>
      <trkpt lat="48.70828" lon="1.74391">
        <ele>176.80000305176</ele>
        <time>2014-04-27T09:43:18.000Z</time>
      </trkpt>
      <trkpt lat="48.70833" lon="1.74385">
        <ele>176.80000305176</ele>
        <time>2014-04-27T09:43:24.000Z</time>
      </trkpt>
      <trkpt lat="48.70837" lon="1.74379">
        <ele>176.60000610352</ele>
        <time>2014-04-27T09:43:29.000Z</time>
      </trkpt>
      <trkpt lat="48.70842" lon="1.74371">
        <ele>176.60000610352</ele>
        <time>2014-04-27T09:43:36.000Z</time>
      </trkpt>
      <trkpt lat="48.70842" lon="1.7437">
        <ele>176.60000610352</ele>
        <time>2014-04-27T09:43:37.000Z</time>
      </trkpt>
      <trkpt lat="48.70843" lon="1.74369">
        <ele>176.60000610352</ele>
        <time>2014-04-27T09:43:40.000Z</time>
      </trkpt>
      <trkpt lat="48.70863" lon="1.74336">
        <ele>176.80000305176</ele>
        <time>2014-04-27T09:45:32.000Z</time>
      </trkpt>
      <trkpt lat="48.70866" lon="1.74332">
        <ele>176.80000305176</ele>
        <time>2014-04-27T09:45:34.000Z</time>
      </trkpt>
      <trkpt lat="48.7087" lon="1.74321">
        <ele>176.80000305176</ele>
        <time>2014-04-27T09:45:41.000Z</time>
      </trkpt>
      <trkpt lat="48.70871" lon="1.7432">
        <ele>176.80000305176</ele>
        <time>2014-04-27T09:45:42.000Z</time>
      </trkpt>
      <trkpt lat="48.70875" lon="1.74311">
        <ele>177.19999694824</ele>
        <time>2014-04-27T09:45:49.000Z</time>
      </trkpt>
      <trkpt lat="48.70876" lon="1.74307">
        <ele>177.19999694824</ele>
        <time>2014-04-27T09:45:51.000Z</time>
      </trkpt>
      <trkpt lat="48.70881" lon="1.74301">
        <ele>177.39999389648</ele>
        <time>2014-04-27T09:45:58.000Z</time>
      </trkpt>
      <trkpt lat="48.70884" lon="1.743">
        <ele>177.39999389648</ele>
        <time>2014-04-27T09:46:04.000Z</time>
      </trkpt>
      <trkpt lat="48.70898" lon="1.74254">
        <ele>179.60000610352</ele>
        <time>2014-04-27T09:46:44.000Z</time>
      </trkpt>
      <trkpt lat="48.70904" lon="1.74249">
        <ele>179.80000305176</ele>
        <time>2014-04-27T09:46:48.000Z</time>
      </trkpt>
      <trkpt lat="48.70904" lon="1.74249">
        <ele>180</ele>
        <time>2014-04-27T09:46:51.000Z</time>
      </trkpt>
      <trkpt lat="48.70912" lon="1.74214">
        <ele>181.60000610352</ele>
        <time>2014-04-27T09:48:31.000Z</time>
      </trkpt>
      <trkpt lat="48.70915" lon="1.74205">
        <ele>182</ele>
        <time>2014-04-27T09:48:37.000Z</time>
      </trkpt>
      <trkpt lat="48.70919" lon="1.74195">
        <ele>182.39999389648</ele>
        <time>2014-04-27T09:48:43.000Z</time>
      </trkpt>
      <trkpt lat="48.7092" lon="1.74191">
        <ele>182.39999389648</ele>
        <time>2014-04-27T09:48:46.000Z</time>
      </trkpt>
      <trkpt lat="48.7092" lon="1.74183">
        <ele>182.80000305176</ele>
        <time>2014-04-27T09:48:50.000Z</time>
      </trkpt>
      <trkpt lat="48.70924" lon="1.74172">
        <ele>183.19999694824</ele>
        <time>2014-04-27T09:48:57.000Z</time>
      </trkpt>
      <trkpt lat="48.70927" lon="1.74161">
        <ele>183.60000610352</ele>
        <time>2014-04-27T09:49:02.000Z</time>
      </trkpt>
      <trkpt lat="48.70932" lon="1.74146">
        <ele>184</ele>
        <time>2014-04-27T09:49:10.000Z</time>
      </trkpt>
      <trkpt lat="48.70933" lon="1.74132">
        <ele>183.80000305176</ele>
        <time>2014-04-27T09:49:16.000Z</time>
      </trkpt>
      <trkpt lat="48.70936" lon="1.74116">
        <ele>183.60000610352</ele>
        <time>2014-04-27T09:49:24.000Z</time>
      </trkpt>
      <trkpt lat="48.70939" lon="1.74106">
        <ele>183.39999389648</ele>
        <time>2014-04-27T09:49:30.000Z</time>
      </trkpt>
      <trkpt lat="48.70941" lon="1.74092">
        <ele>183</ele>
        <time>2014-04-27T09:49:39.000Z</time>
      </trkpt>
      <trkpt lat="48.70942" lon="1.74088">
        <ele>183</ele>
        <time>2014-04-27T09:49:41.000Z</time>
      </trkpt>
      <trkpt lat="48.70942" lon="1.74085">
        <ele>182.80000305176</ele>
        <time>2014-04-27T09:49:43.000Z</time>
      </trkpt>
      <trkpt lat="48.70946" lon="1.74074">
        <ele>182.80000305176</ele>
        <time>2014-04-27T09:49:50.000Z</time>
      </trkpt>
      <trkpt lat="48.70949" lon="1.7406">
        <ele>182.80000305176</ele>
        <time>2014-04-27T09:49:57.000Z</time>
      </trkpt>
      <trkpt lat="48.70948" lon="1.74056">
        <ele>182.80000305176</ele>
        <time>2014-04-27T09:49:59.000Z</time>
      </trkpt>
      <trkpt lat="48.70951" lon="1.7404">
        <ele>183</ele>
        <time>2014-04-27T09:50:08.000Z</time>
      </trkpt>
      <trkpt lat="48.70954" lon="1.7403">
        <ele>183</ele>
        <time>2014-04-27T09:50:14.000Z</time>
      </trkpt>
      <trkpt lat="48.70959" lon="1.74018">
        <ele>183</ele>
        <time>2014-04-27T09:50:21.000Z</time>
      </trkpt>
      <trkpt lat="48.70965" lon="1.74002">
        <ele>183.19999694824</ele>
        <time>2014-04-27T09:50:30.000Z</time>
      </trkpt>
      <trkpt lat="48.70967" lon="1.73993">
        <ele>183.19999694824</ele>
        <time>2014-04-27T09:50:36.000Z</time>
      </trkpt>
      <trkpt lat="48.70967" lon="1.73991">
        <ele>183.19999694824</ele>
        <time>2014-04-27T09:50:39.000Z</time>
      </trkpt>
      <trkpt lat="48.70967" lon="1.73978">
        <ele>183.19999694824</ele>
        <time>2014-04-27T09:50:59.000Z</time>
      </trkpt>
      <trkpt lat="48.70969" lon="1.7396">
        <ele>182.80000305176</ele>
        <time>2014-04-27T09:51:06.000Z</time>
      </trkpt>
      <trkpt lat="48.70972" lon="1.73947">
        <ele>182.60000610352</ele>
        <time>2014-04-27T09:51:13.000Z</time>
      </trkpt>
      <trkpt lat="48.70975" lon="1.73935">
        <ele>182.80000305176</ele>
        <time>2014-04-27T09:51:21.000Z</time>
      </trkpt>
      <trkpt lat="48.70977" lon="1.73927">
        <ele>183.19999694824</ele>
        <time>2014-04-27T09:51:28.000Z</time>
      </trkpt>
      <trkpt lat="48.70981" lon="1.73912">
        <ele>183.80000305176</ele>
        <time>2014-04-27T09:51:35.000Z</time>
      </trkpt>
      <trkpt lat="48.70985" lon="1.73901">
        <ele>184</ele>
        <time>2014-04-27T09:51:42.000Z</time>
      </trkpt>
      <trkpt lat="48.70986" lon="1.73897">
        <ele>184</ele>
        <time>2014-04-27T09:51:44.000Z</time>
      </trkpt>
      <trkpt lat="48.70988" lon="1.73883">
        <ele>183.39999389648</ele>
        <time>2014-04-27T09:51:51.000Z</time>
      </trkpt>
      <trkpt lat="48.70993" lon="1.7387">
        <ele>183.19999694824</ele>
        <time>2014-04-27T09:51:59.000Z</time>
      </trkpt>
      <trkpt lat="48.70993" lon="1.73851">
        <ele>182.80000305176</ele>
        <time>2014-04-27T09:52:07.000Z</time>
      </trkpt>
      <trkpt lat="48.70996" lon="1.73841">
        <ele>182.60000610352</ele>
        <time>2014-04-27T09:52:13.000Z</time>
      </trkpt>
      <trkpt lat="48.71001" lon="1.73825">
        <ele>182.39999389648</ele>
        <time>2014-04-27T09:52:21.000Z</time>
      </trkpt>
      <trkpt lat="48.71003" lon="1.73814">
        <ele>182.19999694824</ele>
        <time>2014-04-27T09:52:27.000Z</time>
      </trkpt>
      <trkpt lat="48.71009" lon="1.73805">
        <ele>182</ele>
        <time>2014-04-27T09:52:33.000Z</time>
      </trkpt>
      <trkpt lat="48.71018" lon="1.73797">
        <ele>182.39999389648</ele>
        <time>2014-04-27T09:52:41.000Z</time>
      </trkpt>
      <trkpt lat="48.7102" lon="1.73796">
        <ele>182.39999389648</ele>
        <time>2014-04-27T09:52:42.000Z</time>
      </trkpt>
      <trkpt lat="48.71025" lon="1.73787">
        <ele>182.19999694824</ele>
        <time>2014-04-27T09:52:49.000Z</time>
      </trkpt>
      <trkpt lat="48.71029" lon="1.73781">
        <ele>182</ele>
        <time>2014-04-27T09:52:53.000Z</time>
      </trkpt>
      <trkpt lat="48.71031" lon="1.73778">
        <ele>181.80000305176</ele>
        <time>2014-04-27T09:52:55.000Z</time>
      </trkpt>
      <trkpt lat="48.71039" lon="1.7377">
        <ele>181.60000610352</ele>
        <time>2014-04-27T09:53:00.000Z</time>
      </trkpt>
      <trkpt lat="48.7104" lon="1.73767">
        <ele>181.39999389648</ele>
        <time>2014-04-27T09:53:01.000Z</time>
      </trkpt>
      <trkpt lat="48.71048" lon="1.73756">
        <ele>181.39999389648</ele>
        <time>2014-04-27T09:53:08.000Z</time>
      </trkpt>
      <trkpt lat="48.71055" lon="1.73747">
        <ele>181.80000305176</ele>
        <time>2014-04-27T09:53:14.000Z</time>
      </trkpt>
      <trkpt lat="48.7106" lon="1.7374">
        <ele>182</ele>
        <time>2014-04-27T09:53:20.000Z</time>
      </trkpt>
      <trkpt lat="48.71072" lon="1.73736">
        <ele>182.19999694824</ele>
        <time>2014-04-27T09:53:26.000Z</time>
      </trkpt>
      <trkpt lat="48.71081" lon="1.7373">
        <ele>182.19999694824</ele>
        <time>2014-04-27T09:53:33.000Z</time>
      </trkpt>
      <trkpt lat="48.71086" lon="1.73722">
        <ele>182</ele>
        <time>2014-04-27T09:53:38.000Z</time>
      </trkpt>
      <trkpt lat="48.71093" lon="1.73714">
        <ele>181.80000305176</ele>
        <time>2014-04-27T09:53:43.000Z</time>
      </trkpt>
      <trkpt lat="48.71099" lon="1.73706">
        <ele>181.39999389648</ele>
        <time>2014-04-27T09:53:49.000Z</time>
      </trkpt>
      <trkpt lat="48.7111" lon="1.73697">
        <ele>181.19999694824</ele>
        <time>2014-04-27T09:53:57.000Z</time>
      </trkpt>
      <trkpt lat="48.71111" lon="1.73696">
        <ele>181.19999694824</ele>
        <time>2014-04-27T09:53:58.000Z</time>
      </trkpt>
      <trkpt lat="48.71118" lon="1.73687">
        <ele>180.80000305176</ele>
        <time>2014-04-27T09:54:04.000Z</time>
      </trkpt>
      <trkpt lat="48.71127" lon="1.73678">
        <ele>180.39999389648</ele>
        <time>2014-04-27T09:54:12.000Z</time>
      </trkpt>
      <trkpt lat="48.71135" lon="1.7367">
        <ele>180.80000305176</ele>
        <time>2014-04-27T09:54:19.000Z</time>
      </trkpt>
      <trkpt lat="48.71144" lon="1.73662">
        <ele>181</ele>
        <time>2014-04-27T09:54:26.000Z</time>
      </trkpt>
      <trkpt lat="48.71153" lon="1.73652">
        <ele>181.39999389648</ele>
        <time>2014-04-27T09:54:34.000Z</time>
      </trkpt>
      <trkpt lat="48.71159" lon="1.73646">
        <ele>181.60000610352</ele>
        <time>2014-04-27T09:54:39.000Z</time>
      </trkpt>
      <trkpt lat="48.71166" lon="1.73639">
        <ele>181.80000305176</ele>
        <time>2014-04-27T09:54:45.000Z</time>
      </trkpt>
      <trkpt lat="48.71174" lon="1.7363">
        <ele>181.80000305176</ele>
        <time>2014-04-27T09:54:52.000Z</time>
      </trkpt>
      <trkpt lat="48.7118" lon="1.73626">
        <ele>181.80000305176</ele>
        <time>2014-04-27T09:54:57.000Z</time>
      </trkpt>
      <trkpt lat="48.71188" lon="1.73619">
        <ele>181.80000305176</ele>
        <time>2014-04-27T09:55:04.000Z</time>
      </trkpt>
      <trkpt lat="48.71193" lon="1.73611">
        <ele>181.39999389648</ele>
        <time>2014-04-27T09:55:09.000Z</time>
      </trkpt>
      <trkpt lat="48.71196" lon="1.73605">
        <ele>181.19999694824</ele>
        <time>2014-04-27T09:55:16.000Z</time>
      </trkpt>
      <trkpt lat="48.712" lon="1.73604">
        <ele>181.19999694824</ele>
        <time>2014-04-27T09:55:22.000Z</time>
      </trkpt>
      <trkpt lat="48.712" lon="1.73604">
        <ele>181.19999694824</ele>
        <time>2014-04-27T09:55:24.000Z</time>
      </trkpt>
      <trkpt lat="48.71207" lon="1.73612">
        <ele>181.39999389648</ele>
        <time>2014-04-27T09:55:46.000Z</time>
      </trkpt>
      <trkpt lat="48.71214" lon="1.73614">
        <ele>181.60000610352</ele>
        <time>2014-04-27T09:55:50.000Z</time>
      </trkpt>
      <trkpt lat="48.71221" lon="1.73616">
        <ele>181.60000610352</ele>
        <time>2014-04-27T09:55:56.000Z</time>
      </trkpt>
      <trkpt lat="48.71224" lon="1.73616">
        <ele>181.60000610352</ele>
        <time>2014-04-27T09:55:59.000Z</time>
      </trkpt>
      <trkpt lat="48.71231" lon="1.7362">
        <ele>181.80000305176</ele>
        <time>2014-04-27T09:56:06.000Z</time>
      </trkpt>
      <trkpt lat="48.71234" lon="1.73621">
        <ele>181.80000305176</ele>
        <time>2014-04-27T09:56:10.000Z</time>
      </trkpt>
      <trkpt lat="48.7124" lon="1.73621">
        <ele>182</ele>
        <time>2014-04-27T09:56:16.000Z</time>
      </trkpt>
      <trkpt lat="48.71246" lon="1.73619">
        <ele>182.39999389648</ele>
        <time>2014-04-27T09:56:23.000Z</time>
      </trkpt>
      <trkpt lat="48.71247" lon="1.73618">
        <ele>182.39999389648</ele>
        <time>2014-04-27T09:56:24.000Z</time>
      </trkpt>
      <trkpt lat="48.71254" lon="1.73611">
        <ele>183</ele>
        <time>2014-04-27T09:56:31.000Z</time>
      </trkpt>
      <trkpt lat="48.71261" lon="1.73607">
        <ele>183.60000610352</ele>
        <time>2014-04-27T09:56:34.000Z</time>
      </trkpt>
      <trkpt lat="48.71271" lon="1.73596">
        <ele>184.19999694824</ele>
        <time>2014-04-27T09:56:41.000Z</time>
      </trkpt>
      <trkpt lat="48.71277" lon="1.73591">
        <ele>183.19999694824</ele>
        <time>2014-04-27T09:56:46.000Z</time>
      </trkpt>
      <trkpt lat="48.7128" lon="1.73587">
        <ele>183</ele>
        <time>2014-04-27T09:56:48.000Z</time>
      </trkpt>
      <trkpt lat="48.71288" lon="1.7357">
        <ele>182.19999694824</ele>
        <time>2014-04-27T09:56:54.000Z</time>
      </trkpt>
      <trkpt lat="48.71297" lon="1.73555">
        <ele>180.19999694824</ele>
        <time>2014-04-27T09:57:00.000Z</time>
      </trkpt>
      <trkpt lat="48.71297" lon="1.73553">
        <ele>180.19999694824</ele>
        <time>2014-04-27T09:57:01.000Z</time>
      </trkpt>
      <trkpt lat="48.71299" lon="1.73547">
        <ele>179.80000305176</ele>
        <time>2014-04-27T09:57:04.000Z</time>
      </trkpt>
      <trkpt lat="48.71309" lon="1.73537">
        <ele>177.80000305176</ele>
        <time>2014-04-27T09:57:10.000Z</time>
      </trkpt>
      <trkpt lat="48.71314" lon="1.73536">
        <ele>177</ele>
        <time>2014-04-27T09:57:12.000Z</time>
      </trkpt>
      <trkpt lat="48.71323" lon="1.73529">
        <ele>176.39999389648</ele>
        <time>2014-04-27T09:57:17.000Z</time>
      </trkpt>
      <trkpt lat="48.71325" lon="1.73527">
        <ele>176.39999389648</ele>
        <time>2014-04-27T09:57:19.000Z</time>
      </trkpt>
      <trkpt lat="48.71327" lon="1.73525">
        <ele>176.39999389648</ele>
        <time>2014-04-27T09:57:21.000Z</time>
      </trkpt>
      <trkpt lat="48.71336" lon="1.73524">
        <ele>175.80000305176</ele>
        <time>2014-04-27T09:57:27.000Z</time>
      </trkpt>
      <trkpt lat="48.71345" lon="1.73528">
        <ele>175.19999694824</ele>
        <time>2014-04-27T09:57:32.000Z</time>
      </trkpt>
      <trkpt lat="48.71351" lon="1.73536">
        <ele>174.19999694824</ele>
        <time>2014-04-27T09:57:38.000Z</time>
      </trkpt>
      <trkpt lat="48.71358" lon="1.73543">
        <ele>173.19999694824</ele>
        <time>2014-04-27T09:57:43.000Z</time>
      </trkpt>
      <trkpt lat="48.7136" lon="1.73545">
        <ele>172.80000305176</ele>
        <time>2014-04-27T09:57:45.000Z</time>
      </trkpt>
      <trkpt lat="48.71371" lon="1.73555">
        <ele>170.80000305176</ele>
        <time>2014-04-27T09:57:52.000Z</time>
      </trkpt>
      <trkpt lat="48.71377" lon="1.73563">
        <ele>169.60000610352</ele>
        <time>2014-04-27T09:57:58.000Z</time>
      </trkpt>
      <trkpt lat="48.71384" lon="1.7357">
        <ele>168.39999389648</ele>
        <time>2014-04-27T09:58:04.000Z</time>
      </trkpt>
      <trkpt lat="48.7139" lon="1.73575">
        <ele>167.39999389648</ele>
        <time>2014-04-27T09:58:10.000Z</time>
      </trkpt>
      <trkpt lat="48.71395" lon="1.73575">
        <ele>166.80000305176</ele>
        <time>2014-04-27T09:58:13.000Z</time>
      </trkpt>
      <trkpt lat="48.71403" lon="1.73576">
        <ele>165.80000305176</ele>
        <time>2014-04-27T09:58:17.000Z</time>
      </trkpt>
      <trkpt lat="48.7141" lon="1.73575">
        <ele>165</ele>
        <time>2014-04-27T09:58:22.000Z</time>
      </trkpt>
      <trkpt lat="48.71417" lon="1.73574">
        <ele>164.19999694824</ele>
        <time>2014-04-27T09:58:27.000Z</time>
      </trkpt>
      <trkpt lat="48.71427" lon="1.73572">
        <ele>163.19999694824</ele>
        <time>2014-04-27T09:58:34.000Z</time>
      </trkpt>
      <trkpt lat="48.71437" lon="1.73572">
        <ele>162</ele>
        <time>2014-04-27T09:58:40.000Z</time>
      </trkpt>
      <trkpt lat="48.71446" lon="1.73568">
        <ele>161.39999389648</ele>
        <time>2014-04-27T09:58:47.000Z</time>
      </trkpt>
      <trkpt lat="48.71457" lon="1.73564">
        <ele>160.60000610352</ele>
        <time>2014-04-27T09:58:54.000Z</time>
      </trkpt>
      <trkpt lat="48.71464" lon="1.73562">
        <ele>160.19999694824</ele>
        <time>2014-04-27T09:59:00.000Z</time>
      </trkpt>
      <trkpt lat="48.71465" lon="1.73561">
        <ele>160</ele>
        <time>2014-04-27T09:59:01.000Z</time>
      </trkpt>
      <trkpt lat="48.71472" lon="1.73558">
        <ele>159.60000610352</ele>
        <time>2014-04-27T09:59:06.000Z</time>
      </trkpt>
      <trkpt lat="48.71481" lon="1.73558">
        <ele>159</ele>
        <time>2014-04-27T09:59:12.000Z</time>
      </trkpt>
      <trkpt lat="48.71493" lon="1.73558">
        <ele>158</ele>
        <time>2014-04-27T09:59:20.000Z</time>
      </trkpt>
      <trkpt lat="48.71499" lon="1.73555">
        <ele>157.60000610352</ele>
        <time>2014-04-27T09:59:26.000Z</time>
      </trkpt>
      <trkpt lat="48.71503" lon="1.73553">
        <ele>157.19999694824</ele>
        <time>2014-04-27T09:59:31.000Z</time>
      </trkpt>
      <trkpt lat="48.71516" lon="1.7355">
        <ele>155</ele>
        <time>2014-04-27T09:59:37.000Z</time>
      </trkpt>
      <trkpt lat="48.71527" lon="1.73549">
        <ele>153.39999389648</ele>
        <time>2014-04-27T09:59:43.000Z</time>
      </trkpt>
      <trkpt lat="48.71541" lon="1.73546">
        <ele>151.60000610352</ele>
        <time>2014-04-27T09:59:49.000Z</time>
      </trkpt>
      <trkpt lat="48.71547" lon="1.73545">
        <ele>151</ele>
        <time>2014-04-27T09:59:54.000Z</time>
      </trkpt>
      <trkpt lat="48.71554" lon="1.73544">
        <ele>150</ele>
        <time>2014-04-27T10:00:01.000Z</time>
      </trkpt>
      <trkpt lat="48.7157" lon="1.73539">
        <ele>148</ele>
        <time>2014-04-27T10:00:08.000Z</time>
      </trkpt>
      <trkpt lat="48.7158" lon="1.73536">
        <ele>146.80000305176</ele>
        <time>2014-04-27T10:00:14.000Z</time>
      </trkpt>
      <trkpt lat="48.7159" lon="1.73533">
        <ele>145.80000305176</ele>
        <time>2014-04-27T10:00:21.000Z</time>
      </trkpt>
      <trkpt lat="48.716" lon="1.73532">
        <ele>144.80000305176</ele>
        <time>2014-04-27T10:00:27.000Z</time>
      </trkpt>
      <trkpt lat="48.71611" lon="1.73531">
        <ele>144</ele>
        <time>2014-04-27T10:00:33.000Z</time>
      </trkpt>
      <trkpt lat="48.71617" lon="1.7353">
        <ele>143.80000305176</ele>
        <time>2014-04-27T10:00:37.000Z</time>
      </trkpt>
      <trkpt lat="48.71627" lon="1.73525">
        <ele>143</ele>
        <time>2014-04-27T10:00:44.000Z</time>
      </trkpt>
      <trkpt lat="48.71635" lon="1.73522">
        <ele>142.60000610352</ele>
        <time>2014-04-27T10:00:50.000Z</time>
      </trkpt>
      <trkpt lat="48.71641" lon="1.7352">
        <ele>142.19999694824</ele>
        <time>2014-04-27T10:00:56.000Z</time>
      </trkpt>
      <trkpt lat="48.7165" lon="1.73518">
        <ele>141.80000305176</ele>
        <time>2014-04-27T10:01:02.000Z</time>
      </trkpt>
      <trkpt lat="48.71659" lon="1.73516">
        <ele>141.39999389648</ele>
        <time>2014-04-27T10:01:08.000Z</time>
      </trkpt>
      <trkpt lat="48.71664" lon="1.73515">
        <ele>141</ele>
        <time>2014-04-27T10:01:14.000Z</time>
      </trkpt>
      <trkpt lat="48.71667" lon="1.73515">
        <ele>141</ele>
        <time>2014-04-27T10:01:16.000Z</time>
      </trkpt>
      <trkpt lat="48.71673" lon="1.73514">
        <ele>140.60000610352</ele>
        <time>2014-04-27T10:01:22.000Z</time>
      </trkpt>
      <trkpt lat="48.71683" lon="1.73513">
        <ele>140.19999694824</ele>
        <time>2014-04-27T10:01:30.000Z</time>
      </trkpt>
      <trkpt lat="48.71691" lon="1.73513">
        <ele>140</ele>
        <time>2014-04-27T10:01:37.000Z</time>
      </trkpt>
      <trkpt lat="48.71693" lon="1.73513">
        <ele>140</ele>
        <time>2014-04-27T10:01:38.000Z</time>
      </trkpt>
      <trkpt lat="48.71704" lon="1.7351">
        <ele>140</ele>
        <time>2014-04-27T10:01:46.000Z</time>
      </trkpt>
      <trkpt lat="48.71716" lon="1.73507">
        <ele>139.60000610352</ele>
        <time>2014-04-27T10:01:54.000Z</time>
      </trkpt>
      <trkpt lat="48.71727" lon="1.73502">
        <ele>139</ele>
        <time>2014-04-27T10:02:01.000Z</time>
      </trkpt>
      <trkpt lat="48.71747" lon="1.73493">
        <ele>138</ele>
        <time>2014-04-27T10:02:08.000Z</time>
      </trkpt>
      <trkpt lat="48.71752" lon="1.73482">
        <ele>137.60000610352</ele>
        <time>2014-04-27T10:02:14.000Z</time>
      </trkpt>
      <trkpt lat="48.71751" lon="1.73466">
        <ele>137.60000610352</ele>
        <time>2014-04-27T10:02:22.000Z</time>
      </trkpt>
      <trkpt lat="48.71747" lon="1.7345">
        <ele>137.80000305176</ele>
        <time>2014-04-27T10:02:30.000Z</time>
      </trkpt>
      <trkpt lat="48.71743" lon="1.73438">
        <ele>138</ele>
        <time>2014-04-27T10:02:36.000Z</time>
      </trkpt>
      <trkpt lat="48.71738" lon="1.73419">
        <ele>138.19999694824</ele>
        <time>2014-04-27T10:02:45.000Z</time>
      </trkpt>
      <trkpt lat="48.71734" lon="1.73404">
        <ele>138.19999694824</ele>
        <time>2014-04-27T10:02:52.000Z</time>
      </trkpt>
      <trkpt lat="48.7173" lon="1.73388">
        <ele>138</ele>
        <time>2014-04-27T10:03:01.000Z</time>
      </trkpt>
      <trkpt lat="48.71726" lon="1.73371">
        <ele>137.80000305176</ele>
        <time>2014-04-27T10:03:09.000Z</time>
      </trkpt>
      <trkpt lat="48.71723" lon="1.73363">
        <ele>137.80000305176</ele>
        <time>2014-04-27T10:03:14.000Z</time>
      </trkpt>
      <trkpt lat="48.7172" lon="1.73347">
        <ele>137.39999389648</ele>
        <time>2014-04-27T10:03:22.000Z</time>
      </trkpt>
      <trkpt lat="48.71718" lon="1.73342">
        <ele>137.39999389648</ele>
        <time>2014-04-27T10:03:24.000Z</time>
      </trkpt>
      <trkpt lat="48.71713" lon="1.73325">
        <ele>137.19999694824</ele>
        <time>2014-04-27T10:03:33.000Z</time>
      </trkpt>
      <trkpt lat="48.7171" lon="1.73313">
        <ele>137.19999694824</ele>
        <time>2014-04-27T10:03:39.000Z</time>
      </trkpt>
      <trkpt lat="48.71707" lon="1.73294">
        <ele>137.19999694824</ele>
        <time>2014-04-27T10:03:49.000Z</time>
      </trkpt>
      <trkpt lat="48.71705" lon="1.73277">
        <ele>137.39999389648</ele>
        <time>2014-04-27T10:03:56.000Z</time>
      </trkpt>
      <trkpt lat="48.71703" lon="1.73263">
        <ele>137.39999389648</ele>
        <time>2014-04-27T10:04:02.000Z</time>
      </trkpt>
      <trkpt lat="48.71702" lon="1.73251">
        <ele>137.39999389648</ele>
        <time>2014-04-27T10:04:07.000Z</time>
      </trkpt>
      <trkpt lat="48.71701" lon="1.73238">
        <ele>137.39999389648</ele>
        <time>2014-04-27T10:04:13.000Z</time>
      </trkpt>
      <trkpt lat="48.717" lon="1.7323">
        <ele>137.19999694824</ele>
        <time>2014-04-27T10:04:17.000Z</time>
      </trkpt>
      <trkpt lat="48.71698" lon="1.73215">
        <ele>137.19999694824</ele>
        <time>2014-04-27T10:04:25.000Z</time>
      </trkpt>
      <trkpt lat="48.71695" lon="1.73197">
        <ele>137.19999694824</ele>
        <time>2014-04-27T10:04:33.000Z</time>
      </trkpt>
      <trkpt lat="48.71693" lon="1.73181">
        <ele>137</ele>
        <time>2014-04-27T10:04:41.000Z</time>
      </trkpt>
      <trkpt lat="48.71693" lon="1.73161">
        <ele>136.80000305176</ele>
        <time>2014-04-27T10:04:50.000Z</time>
      </trkpt>
      <trkpt lat="48.71692" lon="1.73147">
        <ele>137</ele>
        <time>2014-04-27T10:04:56.000Z</time>
      </trkpt>
      <trkpt lat="48.71688" lon="1.73128">
        <ele>137.60000610352</ele>
        <time>2014-04-27T10:05:05.000Z</time>
      </trkpt>
      <trkpt lat="48.71684" lon="1.73111">
        <ele>138</ele>
        <time>2014-04-27T10:05:13.000Z</time>
      </trkpt>
      <trkpt lat="48.71681" lon="1.73095">
        <ele>138.60000610352</ele>
        <time>2014-04-27T10:05:21.000Z</time>
      </trkpt>
      <trkpt lat="48.71679" lon="1.73077">
        <ele>139</ele>
        <time>2014-04-27T10:05:28.000Z</time>
      </trkpt>
      <trkpt lat="48.71676" lon="1.73061">
        <ele>139.39999389648</ele>
        <time>2014-04-27T10:05:32.000Z</time>
      </trkpt>
      <trkpt lat="48.71675" lon="1.73049">
        <ele>139.39999389648</ele>
        <time>2014-04-27T10:05:38.000Z</time>
      </trkpt>
      <trkpt lat="48.7167" lon="1.73032">
        <ele>139.39999389648</ele>
        <time>2014-04-27T10:05:46.000Z</time>
      </trkpt>
      <trkpt lat="48.71666" lon="1.73017">
        <ele>139.39999389648</ele>
        <time>2014-04-27T10:05:53.000Z</time>
      </trkpt>
      <trkpt lat="48.71662" lon="1.73004">
        <ele>139.39999389648</ele>
        <time>2014-04-27T10:06:00.000Z</time>
      </trkpt>
      <trkpt lat="48.71656" lon="1.72989">
        <ele>139.39999389648</ele>
        <time>2014-04-27T10:06:09.000Z</time>
      </trkpt>
      <trkpt lat="48.71653" lon="1.72973">
        <ele>139.39999389648</ele>
        <time>2014-04-27T10:06:17.000Z</time>
      </trkpt>
      <trkpt lat="48.71652" lon="1.72964">
        <ele>139.39999389648</ele>
        <time>2014-04-27T10:06:21.000Z</time>
      </trkpt>
      <trkpt lat="48.71652" lon="1.72956">
        <ele>139.39999389648</ele>
        <time>2014-04-27T10:06:26.000Z</time>
      </trkpt>
      <trkpt lat="48.71644" lon="1.72945">
        <ele>139.60000610352</ele>
        <time>2014-04-27T10:06:34.000Z</time>
      </trkpt>
      <trkpt lat="48.71636" lon="1.72933">
        <ele>139.80000305176</ele>
        <time>2014-04-27T10:06:42.000Z</time>
      </trkpt>
      <trkpt lat="48.7163" lon="1.72917">
        <ele>139.80000305176</ele>
        <time>2014-04-27T10:06:48.000Z</time>
      </trkpt>
      <trkpt lat="48.71621" lon="1.72896">
        <ele>140</ele>
        <time>2014-04-27T10:06:53.000Z</time>
      </trkpt>
      <trkpt lat="48.71604" lon="1.72866">
        <ele>140.60000610352</ele>
        <time>2014-04-27T10:07:00.000Z</time>
      </trkpt>
      <trkpt lat="48.71598" lon="1.7285">
        <ele>140.80000305176</ele>
        <time>2014-04-27T10:07:04.000Z</time>
      </trkpt>
      <trkpt lat="48.7159" lon="1.72833">
        <ele>141</ele>
        <time>2014-04-27T10:07:08.000Z</time>
      </trkpt>
      <trkpt lat="48.71575" lon="1.72803">
        <ele>142</ele>
        <time>2014-04-27T10:07:15.000Z</time>
      </trkpt>
      <trkpt lat="48.71563" lon="1.72773">
        <ele>143</ele>
        <time>2014-04-27T10:07:22.000Z</time>
      </trkpt>
      <trkpt lat="48.71556" lon="1.72754">
        <ele>143.60000610352</ele>
        <time>2014-04-27T10:07:27.000Z</time>
      </trkpt>
      <trkpt lat="48.71546" lon="1.72732">
        <ele>144.39999389648</ele>
        <time>2014-04-27T10:07:32.000Z</time>
      </trkpt>
      <trkpt lat="48.71534" lon="1.7271">
        <ele>144.60000610352</ele>
        <time>2014-04-27T10:07:37.000Z</time>
      </trkpt>
      <trkpt lat="48.71528" lon="1.72686">
        <ele>144.39999389648</ele>
        <time>2014-04-27T10:07:42.000Z</time>
      </trkpt>
      <trkpt lat="48.7152" lon="1.7266">
        <ele>144.19999694824</ele>
        <time>2014-04-27T10:07:47.000Z</time>
      </trkpt>
      <trkpt lat="48.71509" lon="1.72629">
        <ele>144.19999694824</ele>
        <time>2014-04-27T10:07:53.000Z</time>
      </trkpt>
      <trkpt lat="48.71505" lon="1.72602">
        <ele>143.60000610352</ele>
        <time>2014-04-27T10:07:58.000Z</time>
      </trkpt>
      <trkpt lat="48.71503" lon="1.72572">
        <ele>143.19999694824</ele>
        <time>2014-04-27T10:08:04.000Z</time>
      </trkpt>
      <trkpt lat="48.71498" lon="1.72544">
        <ele>143</ele>
        <time>2014-04-27T10:08:10.000Z</time>
      </trkpt>
      <trkpt lat="48.71496" lon="1.72513">
        <ele>142.80000305176</ele>
        <time>2014-04-27T10:08:16.000Z</time>
      </trkpt>
      <trkpt lat="48.71494" lon="1.72482">
        <ele>142.39999389648</ele>
        <time>2014-04-27T10:08:22.000Z</time>
      </trkpt>
      <trkpt lat="48.71491" lon="1.72447">
        <ele>141.80000305176</ele>
        <time>2014-04-27T10:08:29.000Z</time>
      </trkpt>
      <trkpt lat="48.71489" lon="1.72421">
        <ele>141.19999694824</ele>
        <time>2014-04-27T10:08:34.000Z</time>
      </trkpt>
      <trkpt lat="48.71487" lon="1.7239">
        <ele>140.60000610352</ele>
        <time>2014-04-27T10:08:40.000Z</time>
      </trkpt>
      <trkpt lat="48.7149" lon="1.72363">
        <ele>140</ele>
        <time>2014-04-27T10:08:45.000Z</time>
      </trkpt>
      <trkpt lat="48.71492" lon="1.72358">
        <ele>139.80000305176</ele>
        <time>2014-04-27T10:08:46.000Z</time>
      </trkpt>
      <trkpt lat="48.7149" lon="1.72332">
        <ele>139.60000610352</ele>
        <time>2014-04-27T10:08:51.000Z</time>
      </trkpt>
      <trkpt lat="48.71487" lon="1.72297">
        <ele>139.80000305176</ele>
        <time>2014-04-27T10:08:57.000Z</time>
      </trkpt>
      <trkpt lat="48.71483" lon="1.72269">
        <ele>140</ele>
        <time>2014-04-27T10:09:02.000Z</time>
      </trkpt>
      <trkpt lat="48.71475" lon="1.72246">
        <ele>140.39999389648</ele>
        <time>2014-04-27T10:09:07.000Z</time>
      </trkpt>
      <trkpt lat="48.71467" lon="1.72226">
        <ele>141.39999389648</ele>
        <time>2014-04-27T10:09:12.000Z</time>
      </trkpt>
      <trkpt lat="48.71459" lon="1.72208">
        <ele>142.80000305176</ele>
        <time>2014-04-27T10:09:16.000Z</time>
      </trkpt>
      <trkpt lat="48.71448" lon="1.72196">
        <ele>144.19999694824</ele>
        <time>2014-04-27T10:09:20.000Z</time>
      </trkpt>
      <trkpt lat="48.71433" lon="1.72179">
        <ele>146.39999389648</ele>
        <time>2014-04-27T10:09:25.000Z</time>
      </trkpt>
      <trkpt lat="48.71424" lon="1.72156">
        <ele>149.19999694824</ele>
        <time>2014-04-27T10:09:29.000Z</time>
      </trkpt>
      <trkpt lat="48.71422" lon="1.7215">
        <ele>149.19999694824</ele>
        <time>2014-04-27T10:09:30.000Z</time>
      </trkpt>
      <trkpt lat="48.71419" lon="1.72122">
        <ele>148</ele>
        <time>2014-04-27T10:09:36.000Z</time>
      </trkpt>
      <trkpt lat="48.71417" lon="1.72112">
        <ele>147.80000305176</ele>
        <time>2014-04-27T10:09:40.000Z</time>
      </trkpt>
      <trkpt lat="48.71413" lon="1.72106">
        <ele>148.19999694824</ele>
        <time>2014-04-27T10:09:44.000Z</time>
      </trkpt>
      <trkpt lat="48.71411" lon="1.72097">
        <ele>148</ele>
        <time>2014-04-27T10:09:49.000Z</time>
      </trkpt>
      <trkpt lat="48.71409" lon="1.72086">
        <ele>147.80000305176</ele>
        <time>2014-04-27T10:09:54.000Z</time>
      </trkpt>
      <trkpt lat="48.71409" lon="1.72083">
        <ele>147.60000610352</ele>
        <time>2014-04-27T10:09:56.000Z</time>
      </trkpt>
      <trkpt lat="48.71404" lon="1.72069">
        <ele>147.60000610352</ele>
        <time>2014-04-27T10:10:03.000Z</time>
      </trkpt>
      <trkpt lat="48.714" lon="1.72058">
        <ele>147.39999389648</ele>
        <time>2014-04-27T10:10:07.000Z</time>
      </trkpt>
      <trkpt lat="48.7139" lon="1.72044">
        <ele>147.60000610352</ele>
        <time>2014-04-27T10:10:11.000Z</time>
      </trkpt>
      <trkpt lat="48.71375" lon="1.72026">
        <ele>148.19999694824</ele>
        <time>2014-04-27T10:10:16.000Z</time>
      </trkpt>
      <trkpt lat="48.71351" lon="1.72004">
        <ele>149.60000610352</ele>
        <time>2014-04-27T10:10:24.000Z</time>
      </trkpt>
      <trkpt lat="48.71334" lon="1.71986">
        <ele>150</ele>
        <time>2014-04-27T10:10:30.000Z</time>
      </trkpt>
      <trkpt lat="48.71321" lon="1.71971">
        <ele>151.60000610352</ele>
        <time>2014-04-27T10:10:35.000Z</time>
      </trkpt>
      <trkpt lat="48.71312" lon="1.71955">
        <ele>152.80000305176</ele>
        <time>2014-04-27T10:10:39.000Z</time>
      </trkpt>
      <trkpt lat="48.71313" lon="1.71928">
        <ele>153</ele>
        <time>2014-04-27T10:10:44.000Z</time>
      </trkpt>
      <trkpt lat="48.71318" lon="1.71901">
        <ele>152.39999389648</ele>
        <time>2014-04-27T10:10:49.000Z</time>
      </trkpt>
      <trkpt lat="48.71319" lon="1.71897">
        <ele>152.39999389648</ele>
        <time>2014-04-27T10:10:50.000Z</time>
      </trkpt>
      <trkpt lat="48.71324" lon="1.71872">
        <ele>152.80000305176</ele>
        <time>2014-04-27T10:10:56.000Z</time>
      </trkpt>
      <trkpt lat="48.71325" lon="1.71867">
        <ele>152.60000610352</ele>
        <time>2014-04-27T10:10:57.000Z</time>
      </trkpt>
      <trkpt lat="48.71331" lon="1.71839">
        <ele>152.60000610352</ele>
        <time>2014-04-27T10:11:03.000Z</time>
      </trkpt>
      <trkpt lat="48.71328" lon="1.71811">
        <ele>152.60000610352</ele>
        <time>2014-04-27T10:11:08.000Z</time>
      </trkpt>
      <trkpt lat="48.71325" lon="1.71784">
        <ele>151.19999694824</ele>
        <time>2014-04-27T10:11:13.000Z</time>
      </trkpt>
      <trkpt lat="48.71321" lon="1.71745">
        <ele>150</ele>
        <time>2014-04-27T10:11:20.000Z</time>
      </trkpt>
      <trkpt lat="48.7132" lon="1.71715">
        <ele>148.80000305176</ele>
        <time>2014-04-27T10:11:26.000Z</time>
      </trkpt>
      <trkpt lat="48.71319" lon="1.7169">
        <ele>148.19999694824</ele>
        <time>2014-04-27T10:11:31.000Z</time>
      </trkpt>
      <trkpt lat="48.71317" lon="1.71658">
        <ele>147.80000305176</ele>
        <time>2014-04-27T10:11:37.000Z</time>
      </trkpt>
      <trkpt lat="48.71316" lon="1.71629">
        <ele>147.19999694824</ele>
        <time>2014-04-27T10:11:43.000Z</time>
      </trkpt>
      <trkpt lat="48.71315" lon="1.71601">
        <ele>146.39999389648</ele>
        <time>2014-04-27T10:11:48.000Z</time>
      </trkpt>
      <trkpt lat="48.71315" lon="1.71573">
        <ele>145.39999389648</ele>
        <time>2014-04-27T10:11:53.000Z</time>
      </trkpt>
      <trkpt lat="48.71313" lon="1.71551">
        <ele>145</ele>
        <time>2014-04-27T10:11:57.000Z</time>
      </trkpt>
      <trkpt lat="48.71313" lon="1.71518">
        <ele>144.39999389648</ele>
        <time>2014-04-27T10:12:03.000Z</time>
      </trkpt>
      <trkpt lat="48.71313" lon="1.71495">
        <ele>144</ele>
        <time>2014-04-27T10:12:07.000Z</time>
      </trkpt>
      <trkpt lat="48.71308" lon="1.71469">
        <ele>144.19999694824</ele>
        <time>2014-04-27T10:12:12.000Z</time>
      </trkpt>
      <trkpt lat="48.71303" lon="1.71448">
        <ele>144.39999389648</ele>
        <time>2014-04-27T10:12:16.000Z</time>
      </trkpt>
      <trkpt lat="48.71297" lon="1.71404">
        <ele>144.39999389648</ele>
        <time>2014-04-27T10:12:23.000Z</time>
      </trkpt>
      <trkpt lat="48.71294" lon="1.71363">
        <ele>143.60000610352</ele>
        <time>2014-04-27T10:12:30.000Z</time>
      </trkpt>
      <trkpt lat="48.71286" lon="1.71323">
        <ele>143.19999694824</ele>
        <time>2014-04-27T10:12:37.000Z</time>
      </trkpt>
      <trkpt lat="48.71282" lon="1.71301">
        <ele>143</ele>
        <time>2014-04-27T10:12:41.000Z</time>
      </trkpt>
      <trkpt lat="48.71275" lon="1.71273">
        <ele>142.60000610352</ele>
        <time>2014-04-27T10:12:46.000Z</time>
      </trkpt>
      <trkpt lat="48.71274" lon="1.71238">
        <ele>142</ele>
        <time>2014-04-27T10:12:52.000Z</time>
      </trkpt>
      <trkpt lat="48.71275" lon="1.71201">
        <ele>141.80000305176</ele>
        <time>2014-04-27T10:12:58.000Z</time>
      </trkpt>
      <trkpt lat="48.71272" lon="1.71177">
        <ele>142</ele>
        <time>2014-04-27T10:13:02.000Z</time>
      </trkpt>
      <trkpt lat="48.71271" lon="1.71166">
        <ele>142</ele>
        <time>2014-04-27T10:13:04.000Z</time>
      </trkpt>
      <trkpt lat="48.71262" lon="1.71132">
        <ele>142.60000610352</ele>
        <time>2014-04-27T10:13:10.000Z</time>
      </trkpt>
      <trkpt lat="48.71249" lon="1.71099">
        <ele>143.60000610352</ele>
        <time>2014-04-27T10:13:17.000Z</time>
      </trkpt>
      <trkpt lat="48.71239" lon="1.71075">
        <ele>144.39999389648</ele>
        <time>2014-04-27T10:13:22.000Z</time>
      </trkpt>
      <trkpt lat="48.71228" lon="1.71053">
        <ele>145.39999389648</ele>
        <time>2014-04-27T10:13:28.000Z</time>
      </trkpt>
      <trkpt lat="48.71216" lon="1.71025">
        <ele>146.19999694824</ele>
        <time>2014-04-27T10:13:34.000Z</time>
      </trkpt>
      <trkpt lat="48.71212" lon="1.70999">
        <ele>146.80000305176</ele>
        <time>2014-04-27T10:13:39.000Z</time>
      </trkpt>
      <trkpt lat="48.71208" lon="1.70977">
        <ele>147.80000305176</ele>
        <time>2014-04-27T10:13:43.000Z</time>
      </trkpt>
      <trkpt lat="48.71208" lon="1.70948">
        <ele>148.39999389648</ele>
        <time>2014-04-27T10:13:48.000Z</time>
      </trkpt>
      <trkpt lat="48.71208" lon="1.70921">
        <ele>149</ele>
        <time>2014-04-27T10:13:53.000Z</time>
      </trkpt>
      <trkpt lat="48.7121" lon="1.70905">
        <ele>148.80000305176</ele>
        <time>2014-04-27T10:13:56.000Z</time>
      </trkpt>
      <trkpt lat="48.71213" lon="1.70883">
        <ele>149.39999389648</ele>
        <time>2014-04-27T10:14:00.000Z</time>
      </trkpt>
      <trkpt lat="48.71215" lon="1.70859">
        <ele>150.39999389648</ele>
        <time>2014-04-27T10:14:04.000Z</time>
      </trkpt>
      <trkpt lat="48.71216" lon="1.70834">
        <ele>151.39999389648</ele>
        <time>2014-04-27T10:14:08.000Z</time>
      </trkpt>
      <trkpt lat="48.71218" lon="1.70804">
        <ele>151.60000610352</ele>
        <time>2014-04-27T10:14:14.000Z</time>
      </trkpt>
      <trkpt lat="48.71216" lon="1.70776">
        <ele>151.19999694824</ele>
        <time>2014-04-27T10:14:20.000Z</time>
      </trkpt>
      <trkpt lat="48.71217" lon="1.70749">
        <ele>150.80000305176</ele>
        <time>2014-04-27T10:14:25.000Z</time>
      </trkpt>
      <trkpt lat="48.71217" lon="1.70707">
        <ele>150.80000305176</ele>
        <time>2014-04-27T10:14:32.000Z</time>
      </trkpt>
      <trkpt lat="48.71221" lon="1.70667">
        <ele>150.60000610352</ele>
        <time>2014-04-27T10:14:39.000Z</time>
      </trkpt>
      <trkpt lat="48.71218" lon="1.70635">
        <ele>150.80000305176</ele>
        <time>2014-04-27T10:14:45.000Z</time>
      </trkpt>
      <trkpt lat="48.71212" lon="1.70605">
        <ele>151.19999694824</ele>
        <time>2014-04-27T10:14:51.000Z</time>
      </trkpt>
      <trkpt lat="48.71204" lon="1.70575">
        <ele>151.60000610352</ele>
        <time>2014-04-27T10:14:57.000Z</time>
      </trkpt>
      <trkpt lat="48.71196" lon="1.70546">
        <ele>151.39999389648</ele>
        <time>2014-04-27T10:15:03.000Z</time>
      </trkpt>
      <trkpt lat="48.71191" lon="1.70522">
        <ele>151</ele>
        <time>2014-04-27T10:15:08.000Z</time>
      </trkpt>
      <trkpt lat="48.71189" lon="1.70498">
        <ele>150.19999694824</ele>
        <time>2014-04-27T10:15:13.000Z</time>
      </trkpt>
      <trkpt lat="48.71184" lon="1.7048">
        <ele>149.60000610352</ele>
        <time>2014-04-27T10:15:17.000Z</time>
      </trkpt>
      <trkpt lat="48.71174" lon="1.70457">
        <ele>148</ele>
        <time>2014-04-27T10:15:23.000Z</time>
      </trkpt>
      <trkpt lat="48.71171" lon="1.7044">
        <ele>147</ele>
        <time>2014-04-27T10:15:27.000Z</time>
      </trkpt>
      <trkpt lat="48.71162" lon="1.70409">
        <ele>145</ele>
        <time>2014-04-27T10:15:33.000Z</time>
      </trkpt>
      <trkpt lat="48.71159" lon="1.7038">
        <ele>146</ele>
        <time>2014-04-27T10:15:38.000Z</time>
      </trkpt>
      <trkpt lat="48.71159" lon="1.70354">
        <ele>146.39999389648</ele>
        <time>2014-04-27T10:15:43.000Z</time>
      </trkpt>
      <trkpt lat="48.71158" lon="1.70334">
        <ele>146.39999389648</ele>
        <time>2014-04-27T10:15:48.000Z</time>
      </trkpt>
      <trkpt lat="48.71157" lon="1.70325">
        <ele>146.39999389648</ele>
        <time>2014-04-27T10:15:50.000Z</time>
      </trkpt>
      <trkpt lat="48.71161" lon="1.70292">
        <ele>147.19999694824</ele>
        <time>2014-04-27T10:15:57.000Z</time>
      </trkpt>
      <trkpt lat="48.71169" lon="1.7027">
        <ele>147.19999694824</ele>
        <time>2014-04-27T10:16:02.000Z</time>
      </trkpt>
      <trkpt lat="48.71175" lon="1.70256">
        <ele>147.19999694824</ele>
        <time>2014-04-27T10:16:07.000Z</time>
      </trkpt>
      <trkpt lat="48.71177" lon="1.70235">
        <ele>147.60000610352</ele>
        <time>2014-04-27T10:16:12.000Z</time>
      </trkpt>
      <trkpt lat="48.71182" lon="1.70213">
        <ele>147.60000610352</ele>
        <time>2014-04-27T10:16:16.000Z</time>
      </trkpt>
      <trkpt lat="48.71191" lon="1.70183">
        <ele>147.19999694824</ele>
        <time>2014-04-27T10:16:21.000Z</time>
      </trkpt>
      <trkpt lat="48.71192" lon="1.70171">
        <ele>147.19999694824</ele>
        <time>2014-04-27T10:16:23.000Z</time>
      </trkpt>
      <trkpt lat="48.71199" lon="1.70137">
        <ele>146.80000305176</ele>
        <time>2014-04-27T10:16:29.000Z</time>
      </trkpt>
      <trkpt lat="48.712" lon="1.70132">
        <ele>146.80000305176</ele>
        <time>2014-04-27T10:16:30.000Z</time>
      </trkpt>
      <trkpt lat="48.71207" lon="1.70107">
        <ele>146.39999389648</ele>
        <time>2014-04-27T10:16:35.000Z</time>
      </trkpt>
      <trkpt lat="48.71211" lon="1.70075">
        <ele>146.80000305176</ele>
        <time>2014-04-27T10:16:41.000Z</time>
      </trkpt>
      <trkpt lat="48.71219" lon="1.70047">
        <ele>146.60000610352</ele>
        <time>2014-04-27T10:16:46.000Z</time>
      </trkpt>
      <trkpt lat="48.71223" lon="1.7002">
        <ele>146.60000610352</ele>
        <time>2014-04-27T10:16:51.000Z</time>
      </trkpt>
      <trkpt lat="48.71226" lon="1.7">
        <ele>147.19999694824</ele>
        <time>2014-04-27T10:16:55.000Z</time>
      </trkpt>
      <trkpt lat="48.71228" lon="1.69973">
        <ele>147.60000610352</ele>
        <time>2014-04-27T10:17:00.000Z</time>
      </trkpt>
      <trkpt lat="48.71227" lon="1.69943">
        <ele>147.60000610352</ele>
        <time>2014-04-27T10:17:05.000Z</time>
      </trkpt>
      <trkpt lat="48.71228" lon="1.69923">
        <ele>147.80000305176</ele>
        <time>2014-04-27T10:17:09.000Z</time>
      </trkpt>
      <trkpt lat="48.71231" lon="1.69884">
        <ele>147.80000305176</ele>
        <time>2014-04-27T10:17:16.000Z</time>
      </trkpt>
      <trkpt lat="48.71235" lon="1.69849">
        <ele>148</ele>
        <time>2014-04-27T10:17:22.000Z</time>
      </trkpt>
      <trkpt lat="48.71238" lon="1.69825">
        <ele>148</ele>
        <time>2014-04-27T10:17:27.000Z</time>
      </trkpt>
      <trkpt lat="48.71241" lon="1.69786">
        <ele>147.80000305176</ele>
        <time>2014-04-27T10:17:34.000Z</time>
      </trkpt>
      <trkpt lat="48.71247" lon="1.69761">
        <ele>148</ele>
        <time>2014-04-27T10:17:39.000Z</time>
      </trkpt>
      <trkpt lat="48.7125" lon="1.69737">
        <ele>148.19999694824</ele>
        <time>2014-04-27T10:17:43.000Z</time>
      </trkpt>
      <trkpt lat="48.71255" lon="1.69711">
        <ele>149.80000305176</ele>
        <time>2014-04-27T10:17:48.000Z</time>
      </trkpt>
      <trkpt lat="48.71257" lon="1.69682">
        <ele>150.80000305176</ele>
        <time>2014-04-27T10:17:54.000Z</time>
      </trkpt>
      <trkpt lat="48.71259" lon="1.6967">
        <ele>151</ele>
        <time>2014-04-27T10:17:59.000Z</time>
      </trkpt>
      <trkpt lat="48.7126" lon="1.69663">
        <ele>151.19999694824</ele>
        <time>2014-04-27T10:18:02.000Z</time>
      </trkpt>
      <trkpt lat="48.71265" lon="1.69651">
        <ele>151.39999389648</ele>
        <time>2014-04-27T10:18:09.000Z</time>
      </trkpt>
      <trkpt lat="48.71273" lon="1.69632">
        <ele>151.60000610352</ele>
        <time>2014-04-27T10:18:18.000Z</time>
      </trkpt>
      <trkpt lat="48.71273" lon="1.69618">
        <ele>152.19999694824</ele>
        <time>2014-04-27T10:18:24.000Z</time>
      </trkpt>
      <trkpt lat="48.71273" lon="1.69598">
        <ele>152.80000305176</ele>
        <time>2014-04-27T10:18:32.000Z</time>
      </trkpt>
      <trkpt lat="48.71275" lon="1.69582">
        <ele>153.39999389648</ele>
        <time>2014-04-27T10:18:39.000Z</time>
      </trkpt>
      <trkpt lat="48.71276" lon="1.69574">
        <ele>153.60000610352</ele>
        <time>2014-04-27T10:18:42.000Z</time>
      </trkpt>
      <trkpt lat="48.71277" lon="1.69557">
        <ele>153.39999389648</ele>
        <time>2014-04-27T10:18:49.000Z</time>
      </trkpt>
      <trkpt lat="48.71278" lon="1.69537">
        <ele>152.80000305176</ele>
        <time>2014-04-27T10:18:57.000Z</time>
      </trkpt>
      <trkpt lat="48.7128" lon="1.69521">
        <ele>152.19999694824</ele>
        <time>2014-04-27T10:19:04.000Z</time>
      </trkpt>
      <trkpt lat="48.71281" lon="1.69507">
        <ele>151.80000305176</ele>
        <time>2014-04-27T10:19:10.000Z</time>
      </trkpt>
      <trkpt lat="48.71283" lon="1.69494">
        <ele>151.19999694824</ele>
        <time>2014-04-27T10:19:16.000Z</time>
      </trkpt>
      <trkpt lat="48.71285" lon="1.69482">
        <ele>150.39999389648</ele>
        <time>2014-04-27T10:19:21.000Z</time>
      </trkpt>
      <trkpt lat="48.71288" lon="1.69468">
        <ele>149</ele>
        <time>2014-04-27T10:19:27.000Z</time>
      </trkpt>
      <trkpt lat="48.71289" lon="1.69462">
        <ele>148.39999389648</ele>
        <time>2014-04-27T10:19:30.000Z</time>
      </trkpt>
      <trkpt lat="48.71293" lon="1.69448">
        <ele>146.80000305176</ele>
        <time>2014-04-27T10:19:36.000Z</time>
      </trkpt>
      <trkpt lat="48.71294" lon="1.69428">
        <ele>145</ele>
        <time>2014-04-27T10:19:44.000Z</time>
      </trkpt>
      <trkpt lat="48.71297" lon="1.69412">
        <ele>144.19999694824</ele>
        <time>2014-04-27T10:19:51.000Z</time>
      </trkpt>
      <trkpt lat="48.71303" lon="1.69394">
        <ele>143.39999389648</ele>
        <time>2014-04-27T10:19:59.000Z</time>
      </trkpt>
      <trkpt lat="48.71305" lon="1.69383">
        <ele>143</ele>
        <time>2014-04-27T10:20:04.000Z</time>
      </trkpt>
      <trkpt lat="48.71308" lon="1.69369">
        <ele>142.80000305176</ele>
        <time>2014-04-27T10:20:10.000Z</time>
      </trkpt>
      <trkpt lat="48.71312" lon="1.69357">
        <ele>142.39999389648</ele>
        <time>2014-04-27T10:20:15.000Z</time>
      </trkpt>
      <trkpt lat="48.71312" lon="1.69344">
        <ele>141.60000610352</ele>
        <time>2014-04-27T10:20:20.000Z</time>
      </trkpt>
      <trkpt lat="48.71313" lon="1.69333">
        <ele>141</ele>
        <time>2014-04-27T10:20:26.000Z</time>
      </trkpt>
      <trkpt lat="48.71316" lon="1.69323">
        <ele>140.19999694824</ele>
        <time>2014-04-27T10:20:31.000Z</time>
      </trkpt>
      <trkpt lat="48.71317" lon="1.69306">
        <ele>140</ele>
        <time>2014-04-27T10:20:39.000Z</time>
      </trkpt>
      <trkpt lat="48.7132" lon="1.69295">
        <ele>139.60000610352</ele>
        <time>2014-04-27T10:20:45.000Z</time>
      </trkpt>
      <trkpt lat="48.71322" lon="1.69289">
        <ele>139.39999389648</ele>
        <time>2014-04-27T10:20:48.000Z</time>
      </trkpt>
      <trkpt lat="48.71323" lon="1.6928">
        <ele>139.39999389648</ele>
        <time>2014-04-27T10:20:53.000Z</time>
      </trkpt>
      <trkpt lat="48.71326" lon="1.69273">
        <ele>139.39999389648</ele>
        <time>2014-04-27T10:20:57.000Z</time>
      </trkpt>
      <trkpt lat="48.71327" lon="1.69265">
        <ele>139.60000610352</ele>
        <time>2014-04-27T10:21:02.000Z</time>
      </trkpt>
      <trkpt lat="48.71329" lon="1.69248">
        <ele>139.80000305176</ele>
        <time>2014-04-27T10:21:09.000Z</time>
      </trkpt>
      <trkpt lat="48.7133" lon="1.69233">
        <ele>140.19999694824</ele>
        <time>2014-04-27T10:21:16.000Z</time>
      </trkpt>
      <trkpt lat="48.7133" lon="1.69222">
        <ele>140.19999694824</ele>
        <time>2014-04-27T10:21:21.000Z</time>
      </trkpt>
      <trkpt lat="48.71329" lon="1.69208">
        <ele>140</ele>
        <time>2014-04-27T10:21:28.000Z</time>
      </trkpt>
      <trkpt lat="48.7133" lon="1.69207">
        <ele>140</ele>
        <time>2014-04-27T10:21:30.000Z</time>
      </trkpt>
      <trkpt lat="48.71334" lon="1.69188">
        <ele>139.19999694824</ele>
        <time>2014-04-27T10:22:39.000Z</time>
      </trkpt>
      <trkpt lat="48.71334" lon="1.69183">
        <ele>139.19999694824</ele>
        <time>2014-04-27T10:22:43.000Z</time>
      </trkpt>
      <trkpt lat="48.71341" lon="1.69151">
        <ele>138</ele>
        <time>2014-04-27T10:27:04.000Z</time>
      </trkpt>
      <trkpt lat="48.71345" lon="1.6913">
        <ele>139</ele>
        <time>2014-04-27T10:27:13.000Z</time>
      </trkpt>
      <trkpt lat="48.71349" lon="1.69115">
        <ele>140</ele>
        <time>2014-04-27T10:27:21.000Z</time>
      </trkpt>
      <trkpt lat="48.71354" lon="1.69102">
        <ele>140.60000610352</ele>
        <time>2014-04-27T10:27:29.000Z</time>
      </trkpt>
      <trkpt lat="48.71359" lon="1.69088">
        <ele>141.39999389648</ele>
        <time>2014-04-27T10:27:37.000Z</time>
      </trkpt>
      <trkpt lat="48.71365" lon="1.69073">
        <ele>141.80000305176</ele>
        <time>2014-04-27T10:27:45.000Z</time>
      </trkpt>
      <trkpt lat="48.71368" lon="1.69065">
        <ele>141.80000305176</ele>
        <time>2014-04-27T10:27:50.000Z</time>
      </trkpt>
      <trkpt lat="48.71371" lon="1.69058">
        <ele>142</ele>
        <time>2014-04-27T10:27:54.000Z</time>
      </trkpt>
      <trkpt lat="48.71374" lon="1.69043">
        <ele>142.60000610352</ele>
        <time>2014-04-27T10:28:02.000Z</time>
      </trkpt>
      <trkpt lat="48.71379" lon="1.69031">
        <ele>143</ele>
        <time>2014-04-27T10:28:08.000Z</time>
      </trkpt>
      <trkpt lat="48.71385" lon="1.69022">
        <ele>142.80000305176</ele>
        <time>2014-04-27T10:28:14.000Z</time>
      </trkpt>
      <trkpt lat="48.71392" lon="1.69008">
        <ele>142.39999389648</ele>
        <time>2014-04-27T10:28:22.000Z</time>
      </trkpt>
      <trkpt lat="48.71396" lon="1.68998">
        <ele>142.19999694824</ele>
        <time>2014-04-27T10:28:27.000Z</time>
      </trkpt>
      <trkpt lat="48.71405" lon="1.6898">
        <ele>141.60000610352</ele>
        <time>2014-04-27T10:28:36.000Z</time>
      </trkpt>
      <trkpt lat="48.71417" lon="1.68959">
        <ele>141</ele>
        <time>2014-04-27T10:28:45.000Z</time>
      </trkpt>
      <trkpt lat="48.71423" lon="1.68946">
        <ele>140.39999389648</ele>
        <time>2014-04-27T10:28:52.000Z</time>
      </trkpt>
      <trkpt lat="48.71429" lon="1.68933">
        <ele>140</ele>
        <time>2014-04-27T10:29:00.000Z</time>
      </trkpt>
      <trkpt lat="48.71426" lon="1.68919">
        <ele>141</ele>
        <time>2014-04-27T10:29:08.000Z</time>
      </trkpt>
      <trkpt lat="48.71421" lon="1.68906">
        <ele>142.19999694824</ele>
        <time>2014-04-27T10:29:15.000Z</time>
      </trkpt>
      <trkpt lat="48.71418" lon="1.68893">
        <ele>143</ele>
        <time>2014-04-27T10:29:23.000Z</time>
      </trkpt>
      <trkpt lat="48.71413" lon="1.68877">
        <ele>144</ele>
        <time>2014-04-27T10:29:31.000Z</time>
      </trkpt>
      <trkpt lat="48.71408" lon="1.68865">
        <ele>145</ele>
        <time>2014-04-27T10:29:38.000Z</time>
      </trkpt>
      <trkpt lat="48.71407" lon="1.6886">
        <ele>145.39999389648</ele>
        <time>2014-04-27T10:29:41.000Z</time>
      </trkpt>
      <trkpt lat="48.71403" lon="1.6885">
        <ele>146.19999694824</ele>
        <time>2014-04-27T10:29:46.000Z</time>
      </trkpt>
      <trkpt lat="48.71401" lon="1.68847">
        <ele>146.60000610352</ele>
        <time>2014-04-27T10:29:48.000Z</time>
      </trkpt>
      <trkpt lat="48.71398" lon="1.68838">
        <ele>147.19999694824</ele>
        <time>2014-04-27T10:29:53.000Z</time>
      </trkpt>
      <trkpt lat="48.71396" lon="1.68831">
        <ele>147.60000610352</ele>
        <time>2014-04-27T10:29:57.000Z</time>
      </trkpt>
      <trkpt lat="48.71392" lon="1.68818">
        <ele>148.39999389648</ele>
        <time>2014-04-27T10:30:04.000Z</time>
      </trkpt>
      <trkpt lat="48.71388" lon="1.68806">
        <ele>149</ele>
        <time>2014-04-27T10:30:11.000Z</time>
      </trkpt>
      <trkpt lat="48.71383" lon="1.68795">
        <ele>149.80000305176</ele>
        <time>2014-04-27T10:30:17.000Z</time>
      </trkpt>
      <trkpt lat="48.71381" lon="1.68789">
        <ele>150</ele>
        <time>2014-04-27T10:30:20.000Z</time>
      </trkpt>
      <trkpt lat="48.71377" lon="1.68779">
        <ele>150.60000610352</ele>
        <time>2014-04-27T10:30:26.000Z</time>
      </trkpt>
      <trkpt lat="48.71374" lon="1.68766">
        <ele>151.19999694824</ele>
        <time>2014-04-27T10:30:32.000Z</time>
      </trkpt>
      <trkpt lat="48.71368" lon="1.68755">
        <ele>151.80000305176</ele>
        <time>2014-04-27T10:30:38.000Z</time>
      </trkpt>
      <trkpt lat="48.71364" lon="1.68741">
        <ele>152.80000305176</ele>
        <time>2014-04-27T10:30:45.000Z</time>
      </trkpt>
      <trkpt lat="48.7136" lon="1.68731">
        <ele>153.39999389648</ele>
        <time>2014-04-27T10:30:50.000Z</time>
      </trkpt>
      <trkpt lat="48.71356" lon="1.68725">
        <ele>153.80000305176</ele>
        <time>2014-04-27T10:30:54.000Z</time>
      </trkpt>
      <trkpt lat="48.71351" lon="1.68709">
        <ele>154.60000610352</ele>
        <time>2014-04-27T10:31:02.000Z</time>
      </trkpt>
      <trkpt lat="48.7135" lon="1.68707">
        <ele>154.60000610352</ele>
        <time>2014-04-27T10:31:03.000Z</time>
      </trkpt>
      <trkpt lat="48.71346" lon="1.68692">
        <ele>155.19999694824</ele>
        <time>2014-04-27T10:31:10.000Z</time>
      </trkpt>
      <trkpt lat="48.71342" lon="1.6868">
        <ele>156</ele>
        <time>2014-04-27T10:31:17.000Z</time>
      </trkpt>
      <trkpt lat="48.71338" lon="1.68666">
        <ele>156.60000610352</ele>
        <time>2014-04-27T10:31:24.000Z</time>
      </trkpt>
      <trkpt lat="48.71337" lon="1.68662">
        <ele>156.80000305176</ele>
        <time>2014-04-27T10:31:26.000Z</time>
      </trkpt>
      <trkpt lat="48.71333" lon="1.68654">
        <ele>157.39999389648</ele>
        <time>2014-04-27T10:31:31.000Z</time>
      </trkpt>
      <trkpt lat="48.71328" lon="1.68637">
        <ele>157.60000610352</ele>
        <time>2014-04-27T10:31:40.000Z</time>
      </trkpt>
      <trkpt lat="48.71324" lon="1.68624">
        <ele>157.60000610352</ele>
        <time>2014-04-27T10:31:47.000Z</time>
      </trkpt>
      <trkpt lat="48.71322" lon="1.68613">
        <ele>157.60000610352</ele>
        <time>2014-04-27T10:31:52.000Z</time>
      </trkpt>
      <trkpt lat="48.71322" lon="1.68603">
        <ele>157.39999389648</ele>
        <time>2014-04-27T10:31:57.000Z</time>
      </trkpt>
      <trkpt lat="48.71321" lon="1.68599">
        <ele>157.39999389648</ele>
        <time>2014-04-27T10:31:59.000Z</time>
      </trkpt>
      <trkpt lat="48.71319" lon="1.68586">
        <ele>157.39999389648</ele>
        <time>2014-04-27T10:32:04.000Z</time>
      </trkpt>
      <trkpt lat="48.71315" lon="1.6857">
        <ele>157.60000610352</ele>
        <time>2014-04-27T10:32:11.000Z</time>
      </trkpt>
      <trkpt lat="48.7131" lon="1.68553">
        <ele>157.60000610352</ele>
        <time>2014-04-27T10:32:19.000Z</time>
      </trkpt>
      <trkpt lat="48.71309" lon="1.68542">
        <ele>157.19999694824</ele>
        <time>2014-04-27T10:32:24.000Z</time>
      </trkpt>
      <trkpt lat="48.71307" lon="1.68533">
        <ele>156.80000305176</ele>
        <time>2014-04-27T10:32:28.000Z</time>
      </trkpt>
      <trkpt lat="48.71305" lon="1.68519">
        <ele>156.60000610352</ele>
        <time>2014-04-27T10:32:34.000Z</time>
      </trkpt>
      <trkpt lat="48.713" lon="1.68499">
        <ele>156.60000610352</ele>
        <time>2014-04-27T10:32:42.000Z</time>
      </trkpt>
      <trkpt lat="48.71297" lon="1.68487">
        <ele>156.60000610352</ele>
        <time>2014-04-27T10:32:48.000Z</time>
      </trkpt>
      <trkpt lat="48.71292" lon="1.68476">
        <ele>156.39999389648</ele>
        <time>2014-04-27T10:32:54.000Z</time>
      </trkpt>
      <trkpt lat="48.71283" lon="1.68464">
        <ele>157</ele>
        <time>2014-04-27T10:33:02.000Z</time>
      </trkpt>
      <trkpt lat="48.71276" lon="1.6846">
        <ele>157.60000610352</ele>
        <time>2014-04-27T10:33:08.000Z</time>
      </trkpt>
      <trkpt lat="48.7127" lon="1.68454">
        <ele>158</ele>
        <time>2014-04-27T10:33:13.000Z</time>
      </trkpt>
      <trkpt lat="48.71269" lon="1.68453">
        <ele>158.19999694824</ele>
        <time>2014-04-27T10:33:14.000Z</time>
      </trkpt>
      <trkpt lat="48.7126" lon="1.68447">
        <ele>159</ele>
        <time>2014-04-27T10:33:20.000Z</time>
      </trkpt>
      <trkpt lat="48.71253" lon="1.6844">
        <ele>159.39999389648</ele>
        <time>2014-04-27T10:33:26.000Z</time>
      </trkpt>
      <trkpt lat="48.71244" lon="1.68436">
        <ele>160.39999389648</ele>
        <time>2014-04-27T10:33:32.000Z</time>
      </trkpt>
      <trkpt lat="48.7124" lon="1.6843">
        <ele>160.60000610352</ele>
        <time>2014-04-27T10:33:36.000Z</time>
      </trkpt>
      <trkpt lat="48.71237" lon="1.68423">
        <ele>160.60000610352</ele>
        <time>2014-04-27T10:33:40.000Z</time>
      </trkpt>
      <trkpt lat="48.7123" lon="1.6841">
        <ele>160.60000610352</ele>
        <time>2014-04-27T10:33:47.000Z</time>
      </trkpt>
      <trkpt lat="48.71229" lon="1.68408">
        <ele>160.80000305176</ele>
        <time>2014-04-27T10:33:48.000Z</time>
      </trkpt>
      <trkpt lat="48.71221" lon="1.68388">
        <ele>161.60000610352</ele>
        <time>2014-04-27T10:33:54.000Z</time>
      </trkpt>
      <trkpt lat="48.71217" lon="1.68375">
        <ele>162.39999389648</ele>
        <time>2014-04-27T10:34:00.000Z</time>
      </trkpt>
      <trkpt lat="48.71209" lon="1.68368">
        <ele>163.39999389648</ele>
        <time>2014-04-27T10:34:07.000Z</time>
      </trkpt>
      <trkpt lat="48.71205" lon="1.68359">
        <ele>164.19999694824</ele>
        <time>2014-04-27T10:34:11.000Z</time>
      </trkpt>
      <trkpt lat="48.71203" lon="1.68348">
        <ele>164.60000610352</ele>
        <time>2014-04-27T10:34:16.000Z</time>
      </trkpt>
      <trkpt lat="48.712" lon="1.68329">
        <ele>165</ele>
        <time>2014-04-27T10:34:24.000Z</time>
      </trkpt>
      <trkpt lat="48.71199" lon="1.68316">
        <ele>165</ele>
        <time>2014-04-27T10:34:31.000Z</time>
      </trkpt>
      <trkpt lat="48.71195" lon="1.68298">
        <ele>166.60000610352</ele>
        <time>2014-04-27T10:34:38.000Z</time>
      </trkpt>
      <trkpt lat="48.71195" lon="1.68295">
        <ele>166.80000305176</ele>
        <time>2014-04-27T10:34:39.000Z</time>
      </trkpt>
      <trkpt lat="48.71192" lon="1.6828">
        <ele>168</ele>
        <time>2014-04-27T10:34:47.000Z</time>
      </trkpt>
      <trkpt lat="48.71192" lon="1.68273">
        <ele>168.19999694824</ele>
        <time>2014-04-27T10:34:50.000Z</time>
      </trkpt>
      <trkpt lat="48.71191" lon="1.68259">
        <ele>169.19999694824</ele>
        <time>2014-04-27T10:34:57.000Z</time>
      </trkpt>
      <trkpt lat="48.7119" lon="1.68252">
        <ele>169.80000305176</ele>
        <time>2014-04-27T10:35:00.000Z</time>
      </trkpt>
      <trkpt lat="48.71189" lon="1.68236">
        <ele>170.60000610352</ele>
        <time>2014-04-27T10:35:07.000Z</time>
      </trkpt>
      <trkpt lat="48.71188" lon="1.68232">
        <ele>170.60000610352</ele>
        <time>2014-04-27T10:35:09.000Z</time>
      </trkpt>
      <trkpt lat="48.71187" lon="1.6822">
        <ele>170.80000305176</ele>
        <time>2014-04-27T10:35:15.000Z</time>
      </trkpt>
      <trkpt lat="48.71186" lon="1.68206">
        <ele>170.80000305176</ele>
        <time>2014-04-27T10:35:20.000Z</time>
      </trkpt>
      <trkpt lat="48.71184" lon="1.68198">
        <ele>170.80000305176</ele>
        <time>2014-04-27T10:35:23.000Z</time>
      </trkpt>
      <trkpt lat="48.71184" lon="1.68188">
        <ele>170.80000305176</ele>
        <time>2014-04-27T10:35:27.000Z</time>
      </trkpt>
      <trkpt lat="48.71182" lon="1.68182">
        <ele>170.80000305176</ele>
        <time>2014-04-27T10:35:31.000Z</time>
      </trkpt>
      <trkpt lat="48.71183" lon="1.68172">
        <ele>170.60000610352</ele>
        <time>2014-04-27T10:35:35.000Z</time>
      </trkpt>
      <trkpt lat="48.71182" lon="1.6816">
        <ele>170.60000610352</ele>
        <time>2014-04-27T10:35:38.000Z</time>
      </trkpt>
      <trkpt lat="48.7118" lon="1.68149">
        <ele>170.80000305176</ele>
        <time>2014-04-27T10:35:43.000Z</time>
      </trkpt>
      <trkpt lat="48.71176" lon="1.68135">
        <ele>171.39999389648</ele>
        <time>2014-04-27T10:35:50.000Z</time>
      </trkpt>
      <trkpt lat="48.7117" lon="1.68125">
        <ele>172.19999694824</ele>
        <time>2014-04-27T10:35:56.000Z</time>
      </trkpt>
      <trkpt lat="48.71167" lon="1.6812">
        <ele>172.60000610352</ele>
        <time>2014-04-27T10:35:59.000Z</time>
      </trkpt>
      <trkpt lat="48.71161" lon="1.68114">
        <ele>173.19999694824</ele>
        <time>2014-04-27T10:36:06.000Z</time>
      </trkpt>
      <trkpt lat="48.7116" lon="1.68114">
        <ele>173.39999389648</ele>
        <time>2014-04-27T10:36:07.000Z</time>
      </trkpt>
      <trkpt lat="48.71155" lon="1.68115">
        <ele>173.80000305176</ele>
        <time>2014-04-27T10:36:13.000Z</time>
      </trkpt>
      <trkpt lat="48.71152" lon="1.68109">
        <ele>174.19999694824</ele>
        <time>2014-04-27T10:36:19.000Z</time>
      </trkpt>
      <trkpt lat="48.71152" lon="1.68106">
        <ele>174.39999389648</ele>
        <time>2014-04-27T10:36:21.000Z</time>
      </trkpt>
      <trkpt lat="48.71145" lon="1.68093">
        <ele>175.19999694824</ele>
        <time>2014-04-27T10:36:27.000Z</time>
      </trkpt>
      <trkpt lat="48.71138" lon="1.68087">
        <ele>176</ele>
        <time>2014-04-27T10:36:32.000Z</time>
      </trkpt>
      <trkpt lat="48.71134" lon="1.68084">
        <ele>176.60000610352</ele>
        <time>2014-04-27T10:36:36.000Z</time>
      </trkpt>
      <trkpt lat="48.71127" lon="1.6808">
        <ele>177.39999389648</ele>
        <time>2014-04-27T10:36:41.000Z</time>
      </trkpt>
      <trkpt lat="48.71122" lon="1.68079">
        <ele>177.80000305176</ele>
        <time>2014-04-27T10:36:45.000Z</time>
      </trkpt>
      <trkpt lat="48.7111" lon="1.68077">
        <ele>179.19999694824</ele>
        <time>2014-04-27T10:36:54.000Z</time>
      </trkpt>
      <trkpt lat="48.71107" lon="1.68076">
        <ele>179.60000610352</ele>
        <time>2014-04-27T10:36:57.000Z</time>
      </trkpt>
      <trkpt lat="48.711" lon="1.68076">
        <ele>180</ele>
        <time>2014-04-27T10:37:02.000Z</time>
      </trkpt>
      <trkpt lat="48.71093" lon="1.68074">
        <ele>180.19999694824</ele>
        <time>2014-04-27T10:37:07.000Z</time>
      </trkpt>
      <trkpt lat="48.71089" lon="1.68076">
        <ele>180.19999694824</ele>
        <time>2014-04-27T10:37:13.000Z</time>
      </trkpt>
      <trkpt lat="48.71086" lon="1.68077">
        <ele>180.39999389648</ele>
        <time>2014-04-27T10:37:17.000Z</time>
      </trkpt>
      <trkpt lat="48.7108" lon="1.68076">
        <ele>180.39999389648</ele>
        <time>2014-04-27T10:37:21.000Z</time>
      </trkpt>
      <trkpt lat="48.71071" lon="1.68073">
        <ele>180.80000305176</ele>
        <time>2014-04-27T10:37:27.000Z</time>
      </trkpt>
      <trkpt lat="48.71063" lon="1.6807">
        <ele>181</ele>
        <time>2014-04-27T10:37:33.000Z</time>
      </trkpt>
      <trkpt lat="48.71059" lon="1.68069">
        <ele>181</ele>
        <time>2014-04-27T10:37:36.000Z</time>
      </trkpt>
      <trkpt lat="48.71048" lon="1.68067">
        <ele>181.19999694824</ele>
        <time>2014-04-27T10:37:44.000Z</time>
      </trkpt>
      <trkpt lat="48.71045" lon="1.68067">
        <ele>181.39999389648</ele>
        <time>2014-04-27T10:37:46.000Z</time>
      </trkpt>
      <trkpt lat="48.71037" lon="1.68066">
        <ele>181.39999389648</ele>
        <time>2014-04-27T10:37:52.000Z</time>
      </trkpt>
      <trkpt lat="48.71034" lon="1.68065">
        <ele>181.60000610352</ele>
        <time>2014-04-27T10:37:55.000Z</time>
      </trkpt>
      <trkpt lat="48.71025" lon="1.68068">
        <ele>181.80000305176</ele>
        <time>2014-04-27T10:38:01.000Z</time>
      </trkpt>
      <trkpt lat="48.71016" lon="1.68068">
        <ele>182.19999694824</ele>
        <time>2014-04-27T10:38:07.000Z</time>
      </trkpt>
      <trkpt lat="48.71013" lon="1.68067">
        <ele>182.39999389648</ele>
        <time>2014-04-27T10:38:09.000Z</time>
      </trkpt>
      <trkpt lat="48.71006" lon="1.68066">
        <ele>182.60000610352</ele>
        <time>2014-04-27T10:38:14.000Z</time>
      </trkpt>
      <trkpt lat="48.70996" lon="1.68061">
        <ele>183</ele>
        <time>2014-04-27T10:38:21.000Z</time>
      </trkpt>
      <trkpt lat="48.70994" lon="1.68062">
        <ele>183.19999694824</ele>
        <time>2014-04-27T10:38:26.000Z</time>
      </trkpt>
      <trkpt lat="48.7098" lon="1.68043">
        <ele>184</ele>
        <time>2014-04-27T10:39:00.000Z</time>
      </trkpt>
      <trkpt lat="48.7098" lon="1.68037">
        <ele>184.19999694824</ele>
        <time>2014-04-27T10:39:02.000Z</time>
      </trkpt>
      <trkpt lat="48.70981" lon="1.68025">
        <ele>184.19999694824</ele>
        <time>2014-04-27T10:39:09.000Z</time>
      </trkpt>
      <trkpt lat="48.70982" lon="1.68017">
        <ele>184</ele>
        <time>2014-04-27T10:39:13.000Z</time>
      </trkpt>
      <trkpt lat="48.70982" lon="1.6801">
        <ele>183.80000305176</ele>
        <time>2014-04-27T10:39:16.000Z</time>
      </trkpt>
      <trkpt lat="48.7098" lon="1.67999">
        <ele>183.80000305176</ele>
        <time>2014-04-27T10:39:20.000Z</time>
      </trkpt>
      <trkpt lat="48.70974" lon="1.67992">
        <ele>184</ele>
        <time>2014-04-27T10:39:26.000Z</time>
      </trkpt>
      <trkpt lat="48.70971" lon="1.6799">
        <ele>184.19999694824</ele>
        <time>2014-04-27T10:39:30.000Z</time>
      </trkpt>
      <trkpt lat="48.70965" lon="1.67985">
        <ele>184.60000610352</ele>
        <time>2014-04-27T10:39:37.000Z</time>
      </trkpt>
      <trkpt lat="48.70959" lon="1.67984">
        <ele>185</ele>
        <time>2014-04-27T10:39:42.000Z</time>
      </trkpt>
      <trkpt lat="48.70958" lon="1.67983">
        <ele>185.19999694824</ele>
        <time>2014-04-27T10:39:43.000Z</time>
      </trkpt>
      <trkpt lat="48.70949" lon="1.67978">
        <ele>185.80000305176</ele>
        <time>2014-04-27T10:39:50.000Z</time>
      </trkpt>
      <trkpt lat="48.70939" lon="1.6797">
        <ele>186.39999389648</ele>
        <time>2014-04-27T10:39:57.000Z</time>
      </trkpt>
      <trkpt lat="48.70926" lon="1.67963">
        <ele>186.80000305176</ele>
        <time>2014-04-27T10:40:06.000Z</time>
      </trkpt>
      <trkpt lat="48.70925" lon="1.67962">
        <ele>186.80000305176</ele>
        <time>2014-04-27T10:40:07.000Z</time>
      </trkpt>
      <trkpt lat="48.70916" lon="1.67958">
        <ele>187</ele>
        <time>2014-04-27T10:40:13.000Z</time>
      </trkpt>
      <trkpt lat="48.70903" lon="1.67953">
        <ele>187.39999389648</ele>
        <time>2014-04-27T10:40:18.000Z</time>
      </trkpt>
      <trkpt lat="48.70895" lon="1.67948">
        <ele>187.60000610352</ele>
        <time>2014-04-27T10:40:23.000Z</time>
      </trkpt>
      <trkpt lat="48.70885" lon="1.67944">
        <ele>188</ele>
        <time>2014-04-27T10:40:29.000Z</time>
      </trkpt>
      <trkpt lat="48.70884" lon="1.67943">
        <ele>188</ele>
        <time>2014-04-27T10:40:30.000Z</time>
      </trkpt>
      <trkpt lat="48.70873" lon="1.67938">
        <ele>188.39999389648</ele>
        <time>2014-04-27T10:40:38.000Z</time>
      </trkpt>
      <trkpt lat="48.70865" lon="1.67934">
        <ele>188.60000610352</ele>
        <time>2014-04-27T10:40:44.000Z</time>
      </trkpt>
      <trkpt lat="48.70856" lon="1.6793">
        <ele>188.80000305176</ele>
        <time>2014-04-27T10:40:50.000Z</time>
      </trkpt>
      <trkpt lat="48.70846" lon="1.67924">
        <ele>189</ele>
        <time>2014-04-27T10:40:57.000Z</time>
      </trkpt>
      <trkpt lat="48.70835" lon="1.67917">
        <ele>189</ele>
        <time>2014-04-27T10:41:05.000Z</time>
      </trkpt>
      <trkpt lat="48.70829" lon="1.67913">
        <ele>189</ele>
        <time>2014-04-27T10:41:10.000Z</time>
      </trkpt>
      <trkpt lat="48.7082" lon="1.67911">
        <ele>189</ele>
        <time>2014-04-27T10:41:16.000Z</time>
      </trkpt>
      <trkpt lat="48.70817" lon="1.67908">
        <ele>189</ele>
        <time>2014-04-27T10:41:19.000Z</time>
      </trkpt>
      <trkpt lat="48.70808" lon="1.67902">
        <ele>189</ele>
        <time>2014-04-27T10:41:26.000Z</time>
      </trkpt>
      <trkpt lat="48.70799" lon="1.67897">
        <ele>189.19999694824</ele>
        <time>2014-04-27T10:41:33.000Z</time>
      </trkpt>
      <trkpt lat="48.70788" lon="1.67892">
        <ele>189.39999389648</ele>
        <time>2014-04-27T10:41:41.000Z</time>
      </trkpt>
      <trkpt lat="48.70787" lon="1.67891">
        <ele>189.39999389648</ele>
        <time>2014-04-27T10:41:42.000Z</time>
      </trkpt>
      <trkpt lat="48.70783" lon="1.67887">
        <ele>189.60000610352</ele>
        <time>2014-04-27T10:41:46.000Z</time>
      </trkpt>
      <trkpt lat="48.7077" lon="1.67879">
        <ele>189.80000305176</ele>
        <time>2014-04-27T10:41:55.000Z</time>
      </trkpt>
      <trkpt lat="48.70761" lon="1.67877">
        <ele>189.19999694824</ele>
        <time>2014-04-27T10:42:01.000Z</time>
      </trkpt>
      <trkpt lat="48.70749" lon="1.67876">
        <ele>188.60000610352</ele>
        <time>2014-04-27T10:42:09.000Z</time>
      </trkpt>
      <trkpt lat="48.70738" lon="1.67874">
        <ele>188</ele>
        <time>2014-04-27T10:42:15.000Z</time>
      </trkpt>
      <trkpt lat="48.70729" lon="1.67869">
        <ele>187.39999389648</ele>
        <time>2014-04-27T10:42:22.000Z</time>
      </trkpt>
      <trkpt lat="48.7072" lon="1.67865">
        <ele>186.80000305176</ele>
        <time>2014-04-27T10:42:28.000Z</time>
      </trkpt>
      <trkpt lat="48.70713" lon="1.6786">
        <ele>186.39999389648</ele>
        <time>2014-04-27T10:42:33.000Z</time>
      </trkpt>
      <trkpt lat="48.70704" lon="1.67851">
        <ele>185.80000305176</ele>
        <time>2014-04-27T10:42:40.000Z</time>
      </trkpt>
      <trkpt lat="48.70697" lon="1.67846">
        <ele>185.39999389648</ele>
        <time>2014-04-27T10:42:46.000Z</time>
      </trkpt>
      <trkpt lat="48.70692" lon="1.67843">
        <ele>185</ele>
        <time>2014-04-27T10:42:49.000Z</time>
      </trkpt>
      <trkpt lat="48.70683" lon="1.67836">
        <ele>184.80000305176</ele>
        <time>2014-04-27T10:42:55.000Z</time>
      </trkpt>
      <trkpt lat="48.70676" lon="1.67829">
        <ele>184.60000610352</ele>
        <time>2014-04-27T10:42:58.000Z</time>
      </trkpt>
      <trkpt lat="48.70663" lon="1.67823">
        <ele>184.39999389648</ele>
        <time>2014-04-27T10:43:05.000Z</time>
      </trkpt>
      <trkpt lat="48.70654" lon="1.67819">
        <ele>184.19999694824</ele>
        <time>2014-04-27T10:43:11.000Z</time>
      </trkpt>
      <trkpt lat="48.70644" lon="1.67811">
        <ele>184.39999389648</ele>
        <time>2014-04-27T10:43:18.000Z</time>
      </trkpt>
      <trkpt lat="48.70632" lon="1.67804">
        <ele>184.39999389648</ele>
        <time>2014-04-27T10:43:26.000Z</time>
      </trkpt>
      <trkpt lat="48.70626" lon="1.67802">
        <ele>184.39999389648</ele>
        <time>2014-04-27T10:43:30.000Z</time>
      </trkpt>
      <trkpt lat="48.70615" lon="1.67796">
        <ele>184.39999389648</ele>
        <time>2014-04-27T10:43:38.000Z</time>
      </trkpt>
      <trkpt lat="48.70606" lon="1.6779">
        <ele>184.39999389648</ele>
        <time>2014-04-27T10:43:45.000Z</time>
      </trkpt>
      <trkpt lat="48.70597" lon="1.67785">
        <ele>184.39999389648</ele>
        <time>2014-04-27T10:43:51.000Z</time>
      </trkpt>
      <trkpt lat="48.7059" lon="1.67781">
        <ele>184.19999694824</ele>
        <time>2014-04-27T10:43:56.000Z</time>
      </trkpt>
      <trkpt lat="48.70587" lon="1.67779">
        <ele>184.19999694824</ele>
        <time>2014-04-27T10:43:58.000Z</time>
      </trkpt>
      <trkpt lat="48.70582" lon="1.67775">
        <ele>184.19999694824</ele>
        <time>2014-04-27T10:44:02.000Z</time>
      </trkpt>
      <trkpt lat="48.70573" lon="1.6777">
        <ele>184</ele>
        <time>2014-04-27T10:44:09.000Z</time>
      </trkpt>
      <trkpt lat="48.70563" lon="1.67765">
        <ele>183.60000610352</ele>
        <time>2014-04-27T10:44:16.000Z</time>
      </trkpt>
      <trkpt lat="48.70556" lon="1.67758">
        <ele>183.60000610352</ele>
        <time>2014-04-27T10:44:22.000Z</time>
      </trkpt>
      <trkpt lat="48.70547" lon="1.67752">
        <ele>183.60000610352</ele>
        <time>2014-04-27T10:44:28.000Z</time>
      </trkpt>
      <trkpt lat="48.70546" lon="1.67751">
        <ele>183.60000610352</ele>
        <time>2014-04-27T10:44:29.000Z</time>
      </trkpt>
      <trkpt lat="48.70542" lon="1.67748">
        <ele>183.39999389648</ele>
        <time>2014-04-27T10:44:33.000Z</time>
      </trkpt>
      <trkpt lat="48.70534" lon="1.67742">
        <ele>183.39999389648</ele>
        <time>2014-04-27T10:44:39.000Z</time>
      </trkpt>
      <trkpt lat="48.70526" lon="1.67742">
        <ele>183</ele>
        <time>2014-04-27T10:44:44.000Z</time>
      </trkpt>
      <trkpt lat="48.70522" lon="1.67742">
        <ele>182.80000305176</ele>
        <time>2014-04-27T10:44:46.000Z</time>
      </trkpt>
      <trkpt lat="48.70512" lon="1.67738">
        <ele>183</ele>
        <time>2014-04-27T10:44:52.000Z</time>
      </trkpt>
      <trkpt lat="48.70501" lon="1.67732">
        <ele>183.19999694824</ele>
        <time>2014-04-27T10:44:59.000Z</time>
      </trkpt>
      <trkpt lat="48.70491" lon="1.67724">
        <ele>183.39999389648</ele>
        <time>2014-04-27T10:45:07.000Z</time>
      </trkpt>
      <trkpt lat="48.70491" lon="1.67723">
        <ele>183.39999389648</ele>
        <time>2014-04-27T10:45:10.000Z</time>
      </trkpt>
      <trkpt lat="48.70496" lon="1.67727">
        <ele>183.39999389648</ele>
        <time>2014-04-27T10:45:15.000Z</time>
      </trkpt>
      <trkpt lat="48.70504" lon="1.67732">
        <ele>183.19999694824</ele>
        <time>2014-04-27T10:45:17.000Z</time>
      </trkpt>
      <trkpt lat="48.7052" lon="1.67741">
        <ele>182.80000305176</ele>
        <time>2014-04-27T10:45:23.000Z</time>
      </trkpt>
      <trkpt lat="48.70531" lon="1.67749">
        <ele>183</ele>
        <time>2014-04-27T10:45:28.000Z</time>
      </trkpt>
      <trkpt lat="48.7055" lon="1.67758">
        <ele>183.39999389648</ele>
        <time>2014-04-27T10:45:34.000Z</time>
      </trkpt>
      <trkpt lat="48.70568" lon="1.67768">
        <ele>183.80000305176</ele>
        <time>2014-04-27T10:45:40.000Z</time>
      </trkpt>
      <trkpt lat="48.70584" lon="1.67776">
        <ele>184.19999694824</ele>
        <time>2014-04-27T10:45:45.000Z</time>
      </trkpt>
      <trkpt lat="48.70608" lon="1.67789">
        <ele>184.60000610352</ele>
        <time>2014-04-27T10:45:52.000Z</time>
      </trkpt>
      <trkpt lat="48.70632" lon="1.67801">
        <ele>184.60000610352</ele>
        <time>2014-04-27T10:45:59.000Z</time>
      </trkpt>
      <trkpt lat="48.7065" lon="1.6781">
        <ele>184.60000610352</ele>
        <time>2014-04-27T10:46:04.000Z</time>
      </trkpt>
      <trkpt lat="48.70673" lon="1.67822">
        <ele>184.60000610352</ele>
        <time>2014-04-27T10:46:11.000Z</time>
      </trkpt>
      <trkpt lat="48.70688" lon="1.6783">
        <ele>185</ele>
        <time>2014-04-27T10:46:16.000Z</time>
      </trkpt>
      <trkpt lat="48.70703" lon="1.67836">
        <ele>186</ele>
        <time>2014-04-27T10:46:22.000Z</time>
      </trkpt>
      <trkpt lat="48.70711" lon="1.67841">
        <ele>186.39999389648</ele>
        <time>2014-04-27T10:46:28.000Z</time>
      </trkpt>
      <trkpt lat="48.70715" lon="1.67844">
        <ele>186.60000610352</ele>
        <time>2014-04-27T10:46:32.000Z</time>
      </trkpt>
      <trkpt lat="48.70712" lon="1.67843">
        <ele>186.39999389648</ele>
        <time>2014-04-27T10:46:37.000Z</time>
      </trkpt>
      <trkpt lat="48.70702" lon="1.6784">
        <ele>185.80000305176</ele>
        <time>2014-04-27T10:46:43.000Z</time>
      </trkpt>
      <trkpt lat="48.7069" lon="1.67834">
        <ele>185</ele>
        <time>2014-04-27T10:46:47.000Z</time>
      </trkpt>
      <trkpt lat="48.70676" lon="1.67823">
        <ele>184.60000610352</ele>
        <time>2014-04-27T10:46:52.000Z</time>
      </trkpt>
      <trkpt lat="48.70663" lon="1.67816">
        <ele>184.60000610352</ele>
        <time>2014-04-27T10:46:56.000Z</time>
      </trkpt>
      <trkpt lat="48.70646" lon="1.67807">
        <ele>184.60000610352</ele>
        <time>2014-04-27T10:47:01.000Z</time>
      </trkpt>
      <trkpt lat="48.70629" lon="1.67797">
        <ele>184.80000305176</ele>
        <time>2014-04-27T10:47:06.000Z</time>
      </trkpt>
      <trkpt lat="48.70612" lon="1.67784">
        <ele>185</ele>
        <time>2014-04-27T10:47:11.000Z</time>
      </trkpt>
      <trkpt lat="48.70595" lon="1.67777">
        <ele>184.60000610352</ele>
        <time>2014-04-27T10:47:16.000Z</time>
      </trkpt>
      <trkpt lat="48.70569" lon="1.67764">
        <ele>184</ele>
        <time>2014-04-27T10:47:23.000Z</time>
      </trkpt>
      <trkpt lat="48.70557" lon="1.67756">
        <ele>183.80000305176</ele>
        <time>2014-04-27T10:47:27.000Z</time>
      </trkpt>
      <trkpt lat="48.70536" lon="1.67744">
        <ele>183.39999389648</ele>
        <time>2014-04-27T10:47:33.000Z</time>
      </trkpt>
      <trkpt lat="48.70522" lon="1.67738">
        <ele>183</ele>
        <time>2014-04-27T10:47:37.000Z</time>
      </trkpt>
      <trkpt lat="48.70503" lon="1.67727">
        <ele>183.39999389648</ele>
        <time>2014-04-27T10:47:43.000Z</time>
      </trkpt>
      <trkpt lat="48.70483" lon="1.67714">
        <ele>183.80000305176</ele>
        <time>2014-04-27T10:47:49.000Z</time>
      </trkpt>
      <trkpt lat="48.70475" lon="1.6771">
        <ele>184</ele>
        <time>2014-04-27T10:47:53.000Z</time>
      </trkpt>
      <trkpt lat="48.70465" lon="1.67703">
        <ele>184.19999694824</ele>
        <time>2014-04-27T10:48:00.000Z</time>
      </trkpt>
      <trkpt lat="48.70457" lon="1.67698">
        <ele>184.39999389648</ele>
        <time>2014-04-27T10:48:06.000Z</time>
      </trkpt>
      <trkpt lat="48.70452" lon="1.67695">
        <ele>184.39999389648</ele>
        <time>2014-04-27T10:48:10.000Z</time>
      </trkpt>
      <trkpt lat="48.70446" lon="1.67693">
        <ele>184.60000610352</ele>
        <time>2014-04-27T10:48:14.000Z</time>
      </trkpt>
      <trkpt lat="48.70431" lon="1.67687">
        <ele>184.80000305176</ele>
        <time>2014-04-27T10:48:24.000Z</time>
      </trkpt>
      <trkpt lat="48.70422" lon="1.67684">
        <ele>184.80000305176</ele>
        <time>2014-04-27T10:48:30.000Z</time>
      </trkpt>
      <trkpt lat="48.7042" lon="1.67683">
        <ele>185</ele>
        <time>2014-04-27T10:48:31.000Z</time>
      </trkpt>
      <trkpt lat="48.70411" lon="1.67681">
        <ele>185</ele>
        <time>2014-04-27T10:48:36.000Z</time>
      </trkpt>
      <trkpt lat="48.704" lon="1.67676">
        <ele>185.19999694824</ele>
        <time>2014-04-27T10:48:44.000Z</time>
      </trkpt>
      <trkpt lat="48.70399" lon="1.67675">
        <ele>185.19999694824</ele>
        <time>2014-04-27T10:48:45.000Z</time>
      </trkpt>
      <trkpt lat="48.70389" lon="1.67672">
        <ele>185.39999389648</ele>
        <time>2014-04-27T10:48:51.000Z</time>
      </trkpt>
      <trkpt lat="48.70388" lon="1.67671">
        <ele>185.39999389648</ele>
        <time>2014-04-27T10:48:52.000Z</time>
      </trkpt>
      <trkpt lat="48.70382" lon="1.67669">
        <ele>185.39999389648</ele>
        <time>2014-04-27T10:48:56.000Z</time>
      </trkpt>
      <trkpt lat="48.70374" lon="1.67666">
        <ele>185.60000610352</ele>
        <time>2014-04-27T10:49:01.000Z</time>
      </trkpt>
      <trkpt lat="48.70364" lon="1.67659">
        <ele>185.80000305176</ele>
        <time>2014-04-27T10:49:08.000Z</time>
      </trkpt>
      <trkpt lat="48.70362" lon="1.67657">
        <ele>185.80000305176</ele>
        <time>2014-04-27T10:49:10.000Z</time>
      </trkpt>
      <trkpt lat="48.70353" lon="1.67651">
        <ele>186</ele>
        <time>2014-04-27T10:49:17.000Z</time>
      </trkpt>
      <trkpt lat="48.7035" lon="1.67648">
        <ele>185.60000610352</ele>
        <time>2014-04-27T10:49:19.000Z</time>
      </trkpt>
      <trkpt lat="48.7034" lon="1.67644">
        <ele>185.19999694824</ele>
        <time>2014-04-27T10:49:25.000Z</time>
      </trkpt>
      <trkpt lat="48.70327" lon="1.67639">
        <ele>184.39999389648</ele>
        <time>2014-04-27T10:49:33.000Z</time>
      </trkpt>
      <trkpt lat="48.70316" lon="1.67633">
        <ele>183.80000305176</ele>
        <time>2014-04-27T10:49:40.000Z</time>
      </trkpt>
      <trkpt lat="48.70305" lon="1.67627">
        <ele>183</ele>
        <time>2014-04-27T10:49:47.000Z</time>
      </trkpt>
      <trkpt lat="48.70295" lon="1.67619">
        <ele>182.19999694824</ele>
        <time>2014-04-27T10:49:54.000Z</time>
      </trkpt>
      <trkpt lat="48.70286" lon="1.67613">
        <ele>181.60000610352</ele>
        <time>2014-04-27T10:50:01.000Z</time>
      </trkpt>
      <trkpt lat="48.70278" lon="1.67611">
        <ele>181.19999694824</ele>
        <time>2014-04-27T10:50:07.000Z</time>
      </trkpt>
      <trkpt lat="48.70276" lon="1.6761">
        <ele>181.19999694824</ele>
        <time>2014-04-27T10:50:08.000Z</time>
      </trkpt>
      <trkpt lat="48.70261" lon="1.67601">
        <ele>180</ele>
        <time>2014-04-27T10:50:17.000Z</time>
      </trkpt>
      <trkpt lat="48.70254" lon="1.67596">
        <ele>179.39999389648</ele>
        <time>2014-04-27T10:50:22.000Z</time>
      </trkpt>
      <trkpt lat="48.70243" lon="1.67589">
        <ele>178.39999389648</ele>
        <time>2014-04-27T10:50:29.000Z</time>
      </trkpt>
      <trkpt lat="48.7024" lon="1.67586">
        <ele>178</ele>
        <time>2014-04-27T10:50:31.000Z</time>
      </trkpt>
      <trkpt lat="48.70229" lon="1.6758">
        <ele>177</ele>
        <time>2014-04-27T10:50:39.000Z</time>
      </trkpt>
      <trkpt lat="48.7022" lon="1.67574">
        <ele>176.19999694824</ele>
        <time>2014-04-27T10:50:45.000Z</time>
      </trkpt>
      <trkpt lat="48.70218" lon="1.67573">
        <ele>176</ele>
        <time>2014-04-27T10:50:46.000Z</time>
      </trkpt>
      <trkpt lat="48.70212" lon="1.67569">
        <ele>175.60000610352</ele>
        <time>2014-04-27T10:50:50.000Z</time>
      </trkpt>
      <trkpt lat="48.70202" lon="1.67566">
        <ele>174.60000610352</ele>
        <time>2014-04-27T10:50:57.000Z</time>
      </trkpt>
      <trkpt lat="48.702" lon="1.67566">
        <ele>174.60000610352</ele>
        <time>2014-04-27T10:50:58.000Z</time>
      </trkpt>
      <trkpt lat="48.70192" lon="1.67561">
        <ele>173.80000305176</ele>
        <time>2014-04-27T10:51:03.000Z</time>
      </trkpt>
      <trkpt lat="48.70183" lon="1.67556">
        <ele>173</ele>
        <time>2014-04-27T10:51:09.000Z</time>
      </trkpt>
      <trkpt lat="48.7018" lon="1.67555">
        <ele>172.80000305176</ele>
        <time>2014-04-27T10:51:11.000Z</time>
      </trkpt>
      <trkpt lat="48.70167" lon="1.67546">
        <ele>171.60000610352</ele>
        <time>2014-04-27T10:51:19.000Z</time>
      </trkpt>
      <trkpt lat="48.70156" lon="1.67539">
        <ele>170.80000305176</ele>
        <time>2014-04-27T10:51:26.000Z</time>
      </trkpt>
      <trkpt lat="48.70148" lon="1.67531">
        <ele>169.80000305176</ele>
        <time>2014-04-27T10:51:32.000Z</time>
      </trkpt>
      <trkpt lat="48.70138" lon="1.67524">
        <ele>168.80000305176</ele>
        <time>2014-04-27T10:51:39.000Z</time>
      </trkpt>
      <trkpt lat="48.70133" lon="1.67523">
        <ele>168.19999694824</ele>
        <time>2014-04-27T10:51:43.000Z</time>
      </trkpt>
      <trkpt lat="48.7013" lon="1.67522">
        <ele>168</ele>
        <time>2014-04-27T10:51:45.000Z</time>
      </trkpt>
      <trkpt lat="48.70122" lon="1.67522">
        <ele>167.19999694824</ele>
        <time>2014-04-27T10:51:50.000Z</time>
      </trkpt>
      <trkpt lat="48.70117" lon="1.67519">
        <ele>166.80000305176</ele>
        <time>2014-04-27T10:51:55.000Z</time>
      </trkpt>
      <trkpt lat="48.70112" lon="1.67515">
        <ele>166.19999694824</ele>
        <time>2014-04-27T10:52:00.000Z</time>
      </trkpt>
      <trkpt lat="48.70103" lon="1.6751">
        <ele>165.19999694824</ele>
        <time>2014-04-27T10:52:07.000Z</time>
      </trkpt>
      <trkpt lat="48.70094" lon="1.67507">
        <ele>164.60000610352</ele>
        <time>2014-04-27T10:52:13.000Z</time>
      </trkpt>
      <trkpt lat="48.7009" lon="1.67506">
        <ele>164.39999389648</ele>
        <time>2014-04-27T10:52:18.000Z</time>
      </trkpt>
      <trkpt lat="48.70084" lon="1.67504">
        <ele>164</ele>
        <time>2014-04-27T10:52:27.000Z</time>
      </trkpt>
      <trkpt lat="48.70077" lon="1.67499">
        <ele>163.60000610352</ele>
        <time>2014-04-27T10:52:32.000Z</time>
      </trkpt>
      <trkpt lat="48.70069" lon="1.67496">
        <ele>163</ele>
        <time>2014-04-27T10:52:37.000Z</time>
      </trkpt>
      <trkpt lat="48.70062" lon="1.6749">
        <ele>162.60000610352</ele>
        <time>2014-04-27T10:52:42.000Z</time>
      </trkpt>
      <trkpt lat="48.70054" lon="1.67484">
        <ele>162</ele>
        <time>2014-04-27T10:52:48.000Z</time>
      </trkpt>
      <trkpt lat="48.70052" lon="1.67482">
        <ele>161.80000305176</ele>
        <time>2014-04-27T10:52:50.000Z</time>
      </trkpt>
      <trkpt lat="48.7004" lon="1.67475">
        <ele>161</ele>
        <time>2014-04-27T10:52:58.000Z</time>
      </trkpt>
      <trkpt lat="48.70031" lon="1.67476">
        <ele>160.39999389648</ele>
        <time>2014-04-27T10:53:03.000Z</time>
      </trkpt>
      <trkpt lat="48.70024" lon="1.67474">
        <ele>160</ele>
        <time>2014-04-27T10:53:08.000Z</time>
      </trkpt>
      <trkpt lat="48.70012" lon="1.67467">
        <ele>159</ele>
        <time>2014-04-27T10:53:16.000Z</time>
      </trkpt>
      <trkpt lat="48.70004" lon="1.67462">
        <ele>158.19999694824</ele>
        <time>2014-04-27T10:53:21.000Z</time>
      </trkpt>
      <trkpt lat="48.69992" lon="1.67453">
        <ele>157.19999694824</ele>
        <time>2014-04-27T10:53:28.000Z</time>
      </trkpt>
      <trkpt lat="48.69989" lon="1.67451">
        <ele>156.80000305176</ele>
        <time>2014-04-27T10:53:30.000Z</time>
      </trkpt>
      <trkpt lat="48.6997" lon="1.6744">
        <ele>155.19999694824</ele>
        <time>2014-04-27T10:53:41.000Z</time>
      </trkpt>
      <trkpt lat="48.69959" lon="1.67439">
        <ele>154</ele>
        <time>2014-04-27T10:53:48.000Z</time>
      </trkpt>
      <trkpt lat="48.6995" lon="1.67436">
        <ele>153</ele>
        <time>2014-04-27T10:53:54.000Z</time>
      </trkpt>
      <trkpt lat="48.69944" lon="1.67436">
        <ele>152.39999389648</ele>
        <time>2014-04-27T10:53:57.000Z</time>
      </trkpt>
      <trkpt lat="48.69939" lon="1.67432">
        <ele>151.80000305176</ele>
        <time>2014-04-27T10:54:01.000Z</time>
      </trkpt>
      <trkpt lat="48.69933" lon="1.67425">
        <ele>151.39999389648</ele>
        <time>2014-04-27T10:54:06.000Z</time>
      </trkpt>
      <trkpt lat="48.6993" lon="1.67424">
        <ele>151.39999389648</ele>
        <time>2014-04-27T10:54:08.000Z</time>
      </trkpt>
      <trkpt lat="48.69925" lon="1.6742">
        <ele>151.19999694824</ele>
        <time>2014-04-27T10:54:12.000Z</time>
      </trkpt>
      <trkpt lat="48.6992" lon="1.67417">
        <ele>150.80000305176</ele>
        <time>2014-04-27T10:54:18.000Z</time>
      </trkpt>
      <trkpt lat="48.69917" lon="1.67414">
        <ele>150.80000305176</ele>
        <time>2014-04-27T10:54:21.000Z</time>
      </trkpt>
      <trkpt lat="48.6991" lon="1.67408">
        <ele>150.39999389648</ele>
        <time>2014-04-27T10:54:27.000Z</time>
      </trkpt>
      <trkpt lat="48.69908" lon="1.67408">
        <ele>150.19999694824</ele>
        <time>2014-04-27T10:54:28.000Z</time>
      </trkpt>
      <trkpt lat="48.69896" lon="1.67402">
        <ele>149.60000610352</ele>
        <time>2014-04-27T10:54:35.000Z</time>
      </trkpt>
      <trkpt lat="48.69886" lon="1.67395">
        <ele>149.39999389648</ele>
        <time>2014-04-27T10:54:40.000Z</time>
      </trkpt>
      <trkpt lat="48.69872" lon="1.67386">
        <ele>149</ele>
        <time>2014-04-27T10:54:45.000Z</time>
      </trkpt>
      <trkpt lat="48.69869" lon="1.67386">
        <ele>149</ele>
        <time>2014-04-27T10:54:47.000Z</time>
      </trkpt>
      <trkpt lat="48.69862" lon="1.67384">
        <ele>148.60000610352</ele>
        <time>2014-04-27T10:54:53.000Z</time>
      </trkpt>
      <trkpt lat="48.69856" lon="1.67381">
        <ele>148.39999389648</ele>
        <time>2014-04-27T10:54:58.000Z</time>
      </trkpt>
      <trkpt lat="48.69853" lon="1.67379">
        <ele>148.39999389648</ele>
        <time>2014-04-27T10:55:01.000Z</time>
      </trkpt>
      <trkpt lat="48.69845" lon="1.67376">
        <ele>148.60000610352</ele>
        <time>2014-04-27T10:55:07.000Z</time>
      </trkpt>
      <trkpt lat="48.69835" lon="1.6737">
        <ele>149.19999694824</ele>
        <time>2014-04-27T10:55:14.000Z</time>
      </trkpt>
      <trkpt lat="48.69824" lon="1.67365">
        <ele>149.60000610352</ele>
        <time>2014-04-27T10:55:21.000Z</time>
      </trkpt>
      <trkpt lat="48.69821" lon="1.67363">
        <ele>149.80000305176</ele>
        <time>2014-04-27T10:55:23.000Z</time>
      </trkpt>
      <trkpt lat="48.6981" lon="1.67359">
        <ele>150.19999694824</ele>
        <time>2014-04-27T10:55:30.000Z</time>
      </trkpt>
      <trkpt lat="48.69802" lon="1.67357">
        <ele>150.60000610352</ele>
        <time>2014-04-27T10:55:36.000Z</time>
      </trkpt>
      <trkpt lat="48.69799" lon="1.67354">
        <ele>150.80000305176</ele>
        <time>2014-04-27T10:55:38.000Z</time>
      </trkpt>
      <trkpt lat="48.69791" lon="1.67349">
        <ele>151.19999694824</ele>
        <time>2014-04-27T10:55:43.000Z</time>
      </trkpt>
      <trkpt lat="48.69783" lon="1.67346">
        <ele>151.60000610352</ele>
        <time>2014-04-27T10:55:49.000Z</time>
      </trkpt>
      <trkpt lat="48.69781" lon="1.67344">
        <ele>151.60000610352</ele>
        <time>2014-04-27T10:55:50.000Z</time>
      </trkpt>
      <trkpt lat="48.69771" lon="1.67338">
        <ele>152.19999694824</ele>
        <time>2014-04-27T10:55:57.000Z</time>
      </trkpt>
      <trkpt lat="48.69764" lon="1.67338">
        <ele>152.19999694824</ele>
        <time>2014-04-27T10:56:02.000Z</time>
      </trkpt>
      <trkpt lat="48.69756" lon="1.67333">
        <ele>152.19999694824</ele>
        <time>2014-04-27T10:56:08.000Z</time>
      </trkpt>
      <trkpt lat="48.69745" lon="1.67327">
        <ele>152.19999694824</ele>
        <time>2014-04-27T10:56:15.000Z</time>
      </trkpt>
      <trkpt lat="48.69733" lon="1.67325">
        <ele>152</ele>
        <time>2014-04-27T10:56:23.000Z</time>
      </trkpt>
      <trkpt lat="48.69723" lon="1.67316">
        <ele>151.80000305176</ele>
        <time>2014-04-27T10:56:30.000Z</time>
      </trkpt>
      <trkpt lat="48.69712" lon="1.67308">
        <ele>151.60000610352</ele>
        <time>2014-04-27T10:56:38.000Z</time>
      </trkpt>
      <trkpt lat="48.69703" lon="1.67302">
        <ele>151.39999389648</ele>
        <time>2014-04-27T10:56:45.000Z</time>
      </trkpt>
      <trkpt lat="48.69695" lon="1.67297">
        <ele>151.19999694824</ele>
        <time>2014-04-27T10:56:51.000Z</time>
      </trkpt>
      <trkpt lat="48.69691" lon="1.67297">
        <ele>151.19999694824</ele>
        <time>2014-04-27T10:56:53.000Z</time>
      </trkpt>
      <trkpt lat="48.69682" lon="1.67292">
        <ele>150.80000305176</ele>
        <time>2014-04-27T10:57:00.000Z</time>
      </trkpt>
      <trkpt lat="48.69677" lon="1.67289">
        <ele>150.60000610352</ele>
        <time>2014-04-27T10:57:04.000Z</time>
      </trkpt>
      <trkpt lat="48.69666" lon="1.67285">
        <ele>150.19999694824</ele>
        <time>2014-04-27T10:57:12.000Z</time>
      </trkpt>
      <trkpt lat="48.69661" lon="1.67283">
        <ele>150</ele>
        <time>2014-04-27T10:57:15.000Z</time>
      </trkpt>
      <trkpt lat="48.69651" lon="1.67278">
        <ele>149.60000610352</ele>
        <time>2014-04-27T10:57:22.000Z</time>
      </trkpt>
      <trkpt lat="48.69643" lon="1.67272">
        <ele>149.39999389648</ele>
        <time>2014-04-27T10:57:27.000Z</time>
      </trkpt>
      <trkpt lat="48.69632" lon="1.67267">
        <ele>149</ele>
        <time>2014-04-27T10:57:34.000Z</time>
      </trkpt>
      <trkpt lat="48.69623" lon="1.67262">
        <ele>148.80000305176</ele>
        <time>2014-04-27T10:57:40.000Z</time>
      </trkpt>
      <trkpt lat="48.69613" lon="1.67259">
        <ele>148.39999389648</ele>
        <time>2014-04-27T10:57:47.000Z</time>
      </trkpt>
      <trkpt lat="48.6961" lon="1.67257">
        <ele>148.19999694824</ele>
        <time>2014-04-27T10:57:50.000Z</time>
      </trkpt>
      <trkpt lat="48.69608" lon="1.67256">
        <ele>148.19999694824</ele>
        <time>2014-04-27T10:57:52.000Z</time>
      </trkpt>
      <trkpt lat="48.69598" lon="1.67253">
        <ele>148</ele>
        <time>2014-04-27T10:58:00.000Z</time>
      </trkpt>
      <trkpt lat="48.69586" lon="1.67252">
        <ele>147.80000305176</ele>
        <time>2014-04-27T10:58:07.000Z</time>
      </trkpt>
      <trkpt lat="48.69574" lon="1.67247">
        <ele>147.60000610352</ele>
        <time>2014-04-27T10:58:15.000Z</time>
      </trkpt>
      <trkpt lat="48.6957" lon="1.67247">
        <ele>147.60000610352</ele>
        <time>2014-04-27T10:58:18.000Z</time>
      </trkpt>
      <trkpt lat="48.69564" lon="1.67245">
        <ele>147.60000610352</ele>
        <time>2014-04-27T10:58:22.000Z</time>
      </trkpt>
      <trkpt lat="48.69557" lon="1.67242">
        <ele>147.39999389648</ele>
        <time>2014-04-27T10:58:27.000Z</time>
      </trkpt>
      <trkpt lat="48.69548" lon="1.67238">
        <ele>147.39999389648</ele>
        <time>2014-04-27T10:58:33.000Z</time>
      </trkpt>
      <trkpt lat="48.69536" lon="1.67233">
        <ele>147.19999694824</ele>
        <time>2014-04-27T10:58:41.000Z</time>
      </trkpt>
      <trkpt lat="48.69531" lon="1.6723">
        <ele>147.19999694824</ele>
        <time>2014-04-27T10:58:47.000Z</time>
      </trkpt>
      <trkpt lat="48.69531" lon="1.6723">
        <ele>147.19999694824</ele>
        <time>2014-04-27T10:58:48.000Z</time>
      </trkpt>
      <trkpt lat="48.69525" lon="1.67239">
        <ele>147</ele>
        <time>2014-04-27T10:59:08.000Z</time>
      </trkpt>
      <trkpt lat="48.69529" lon="1.67247">
        <ele>147.19999694824</ele>
        <time>2014-04-27T10:59:12.000Z</time>
      </trkpt>
      <trkpt lat="48.69534" lon="1.67256">
        <ele>147.19999694824</ele>
        <time>2014-04-27T10:59:17.000Z</time>
      </trkpt>
      <trkpt lat="48.69542" lon="1.67269">
        <ele>147.19999694824</ele>
        <time>2014-04-27T10:59:24.000Z</time>
      </trkpt>
      <trkpt lat="48.69555" lon="1.67288">
        <ele>147.39999389648</ele>
        <time>2014-04-27T10:59:29.000Z</time>
      </trkpt>
      <trkpt lat="48.69568" lon="1.67307">
        <ele>147.60000610352</ele>
        <time>2014-04-27T10:59:34.000Z</time>
      </trkpt>
      <trkpt lat="48.6958" lon="1.67329">
        <ele>147.60000610352</ele>
        <time>2014-04-27T10:59:39.000Z</time>
      </trkpt>
      <trkpt lat="48.69592" lon="1.67349">
        <ele>147.60000610352</ele>
        <time>2014-04-27T10:59:44.000Z</time>
      </trkpt>
      <trkpt lat="48.69606" lon="1.67374">
        <ele>147.39999389648</ele>
        <time>2014-04-27T10:59:50.000Z</time>
      </trkpt>
      <trkpt lat="48.69617" lon="1.67399">
        <ele>147.19999694824</ele>
        <time>2014-04-27T10:59:56.000Z</time>
      </trkpt>
      <trkpt lat="48.69629" lon="1.67424">
        <ele>146.60000610352</ele>
        <time>2014-04-27T11:00:02.000Z</time>
      </trkpt>
      <trkpt lat="48.69638" lon="1.67445">
        <ele>146</ele>
        <time>2014-04-27T11:00:07.000Z</time>
      </trkpt>
      <trkpt lat="48.69644" lon="1.67457">
        <ele>145.60000610352</ele>
        <time>2014-04-27T11:00:12.000Z</time>
      </trkpt>
      <trkpt lat="48.69649" lon="1.67465">
        <ele>145.39999389648</ele>
        <time>2014-04-27T11:00:18.000Z</time>
      </trkpt>
      <trkpt lat="48.69654" lon="1.67475">
        <ele>145</ele>
        <time>2014-04-27T11:00:24.000Z</time>
      </trkpt>
      <trkpt lat="48.6966" lon="1.67486">
        <ele>144.60000610352</ele>
        <time>2014-04-27T11:00:31.000Z</time>
      </trkpt>
      <trkpt lat="48.69665" lon="1.675">
        <ele>144.80000305176</ele>
        <time>2014-04-27T11:00:38.000Z</time>
      </trkpt>
      <trkpt lat="48.69668" lon="1.67515">
        <ele>144.80000305176</ele>
        <time>2014-04-27T11:00:45.000Z</time>
      </trkpt>
      <trkpt lat="48.69675" lon="1.67533">
        <ele>144.80000305176</ele>
        <time>2014-04-27T11:00:53.000Z</time>
      </trkpt>
      <trkpt lat="48.69683" lon="1.67551">
        <ele>145</ele>
        <time>2014-04-27T11:01:00.000Z</time>
      </trkpt>
      <trkpt lat="48.69686" lon="1.67568">
        <ele>145</ele>
        <time>2014-04-27T11:01:04.000Z</time>
      </trkpt>
      <trkpt lat="48.69692" lon="1.67594">
        <ele>145</ele>
        <time>2014-04-27T11:01:09.000Z</time>
      </trkpt>
      <trkpt lat="48.69699" lon="1.67626">
        <ele>145.19999694824</ele>
        <time>2014-04-27T11:01:15.000Z</time>
      </trkpt>
      <trkpt lat="48.69703" lon="1.67664">
        <ele>145</ele>
        <time>2014-04-27T11:01:22.000Z</time>
      </trkpt>
      <trkpt lat="48.69707" lon="1.67694">
        <ele>145.39999389648</ele>
        <time>2014-04-27T11:01:28.000Z</time>
      </trkpt>
      <trkpt lat="48.69713" lon="1.67731">
        <ele>146.19999694824</ele>
        <time>2014-04-27T11:01:35.000Z</time>
      </trkpt>
      <trkpt lat="48.69721" lon="1.67776">
        <ele>146.19999694824</ele>
        <time>2014-04-27T11:01:44.000Z</time>
      </trkpt>
      <trkpt lat="48.69725" lon="1.67816">
        <ele>146.39999389648</ele>
        <time>2014-04-27T11:01:52.000Z</time>
      </trkpt>
      <trkpt lat="48.69729" lon="1.67847">
        <ele>146.60000610352</ele>
        <time>2014-04-27T11:01:58.000Z</time>
      </trkpt>
      <trkpt lat="48.69736" lon="1.67878">
        <ele>146.80000305176</ele>
        <time>2014-04-27T11:02:05.000Z</time>
      </trkpt>
      <trkpt lat="48.69742" lon="1.67905">
        <ele>147</ele>
        <time>2014-04-27T11:02:11.000Z</time>
      </trkpt>
      <trkpt lat="48.69748" lon="1.6795">
        <ele>147.19999694824</ele>
        <time>2014-04-27T11:02:19.000Z</time>
      </trkpt>
      <trkpt lat="48.69753" lon="1.67991">
        <ele>147.19999694824</ele>
        <time>2014-04-27T11:02:27.000Z</time>
      </trkpt>
      <trkpt lat="48.69755" lon="1.6802">
        <ele>146.60000610352</ele>
        <time>2014-04-27T11:02:32.000Z</time>
      </trkpt>
      <trkpt lat="48.6976" lon="1.68046">
        <ele>146.19999694824</ele>
        <time>2014-04-27T11:02:38.000Z</time>
      </trkpt>
      <trkpt lat="48.69763" lon="1.68069">
        <ele>145.80000305176</ele>
        <time>2014-04-27T11:02:43.000Z</time>
      </trkpt>
      <trkpt lat="48.69762" lon="1.68094">
        <ele>145.80000305176</ele>
        <time>2014-04-27T11:02:49.000Z</time>
      </trkpt>
      <trkpt lat="48.69763" lon="1.6812">
        <ele>145.80000305176</ele>
        <time>2014-04-27T11:02:55.000Z</time>
      </trkpt>
      <trkpt lat="48.69762" lon="1.68147">
        <ele>145.60000610352</ele>
        <time>2014-04-27T11:03:01.000Z</time>
      </trkpt>
      <trkpt lat="48.69759" lon="1.68172">
        <ele>146</ele>
        <time>2014-04-27T11:03:06.000Z</time>
      </trkpt>
      <trkpt lat="48.69758" lon="1.68198">
        <ele>146.60000610352</ele>
        <time>2014-04-27T11:03:10.000Z</time>
      </trkpt>
      <trkpt lat="48.69759" lon="1.68225">
        <ele>147.19999694824</ele>
        <time>2014-04-27T11:03:14.000Z</time>
      </trkpt>
      <trkpt lat="48.69759" lon="1.68249">
        <ele>147.19999694824</ele>
        <time>2014-04-27T11:03:18.000Z</time>
      </trkpt>
      <trkpt lat="48.69759" lon="1.6829">
        <ele>146.80000305176</ele>
        <time>2014-04-27T11:03:24.000Z</time>
      </trkpt>
      <trkpt lat="48.69759" lon="1.68324">
        <ele>146.80000305176</ele>
        <time>2014-04-27T11:03:29.000Z</time>
      </trkpt>
      <trkpt lat="48.69759" lon="1.68331">
        <ele>147</ele>
        <time>2014-04-27T11:03:30.000Z</time>
      </trkpt>
      <trkpt lat="48.69756" lon="1.68365">
        <ele>147.80000305176</ele>
        <time>2014-04-27T11:03:36.000Z</time>
      </trkpt>
      <trkpt lat="48.69754" lon="1.68392">
        <ele>148.39999389648</ele>
        <time>2014-04-27T11:03:43.000Z</time>
      </trkpt>
      <trkpt lat="48.69753" lon="1.68427">
        <ele>148.80000305176</ele>
        <time>2014-04-27T11:03:51.000Z</time>
      </trkpt>
      <trkpt lat="48.69749" lon="1.68455">
        <ele>149.19999694824</ele>
        <time>2014-04-27T11:03:57.000Z</time>
      </trkpt>
      <trkpt lat="48.69746" lon="1.6849">
        <ele>150</ele>
        <time>2014-04-27T11:04:04.000Z</time>
      </trkpt>
      <trkpt lat="48.69744" lon="1.68523">
        <ele>150</ele>
        <time>2014-04-27T11:04:11.000Z</time>
      </trkpt>
      <trkpt lat="48.69743" lon="1.68547">
        <ele>150</ele>
        <time>2014-04-27T11:04:17.000Z</time>
      </trkpt>
      <trkpt lat="48.69742" lon="1.68571">
        <ele>150.60000610352</ele>
        <time>2014-04-27T11:04:22.000Z</time>
      </trkpt>
      <trkpt lat="48.69742" lon="1.68598">
        <ele>150</ele>
        <time>2014-04-27T11:04:28.000Z</time>
      </trkpt>
      <trkpt lat="48.69743" lon="1.68621">
        <ele>149.39999389648</ele>
        <time>2014-04-27T11:04:33.000Z</time>
      </trkpt>
      <trkpt lat="48.69743" lon="1.6864">
        <ele>149</ele>
        <time>2014-04-27T11:04:38.000Z</time>
      </trkpt>
      <trkpt lat="48.69743" lon="1.68672">
        <ele>149</ele>
        <time>2014-04-27T11:04:45.000Z</time>
      </trkpt>
      <trkpt lat="48.69744" lon="1.68706">
        <ele>149.80000305176</ele>
        <time>2014-04-27T11:04:52.000Z</time>
      </trkpt>
      <trkpt lat="48.69745" lon="1.68741">
        <ele>150.80000305176</ele>
        <time>2014-04-27T11:04:59.000Z</time>
      </trkpt>
      <trkpt lat="48.69746" lon="1.68787">
        <ele>150.80000305176</ele>
        <time>2014-04-27T11:05:08.000Z</time>
      </trkpt>
      <trkpt lat="48.69749" lon="1.68817">
        <ele>151</ele>
        <time>2014-04-27T11:05:14.000Z</time>
      </trkpt>
      <trkpt lat="48.69748" lon="1.6884">
        <ele>151.19999694824</ele>
        <time>2014-04-27T11:05:19.000Z</time>
      </trkpt>
      <trkpt lat="48.6975" lon="1.68863">
        <ele>151.39999389648</ele>
        <time>2014-04-27T11:05:24.000Z</time>
      </trkpt>
      <trkpt lat="48.69751" lon="1.68865">
        <ele>151.39999389648</ele>
        <time>2014-04-27T11:05:25.000Z</time>
      </trkpt>
      <trkpt lat="48.69751" lon="1.6888">
        <ele>151.60000610352</ele>
        <time>2014-04-27T11:05:33.000Z</time>
      </trkpt>
      <trkpt lat="48.69752" lon="1.68894">
        <ele>151.60000610352</ele>
        <time>2014-04-27T11:05:39.000Z</time>
      </trkpt>
      <trkpt lat="48.69751" lon="1.68903">
        <ele>151.60000610352</ele>
        <time>2014-04-27T11:05:44.000Z</time>
      </trkpt>
      <trkpt lat="48.69751" lon="1.68916">
        <ele>151.80000305176</ele>
        <time>2014-04-27T11:05:50.000Z</time>
      </trkpt>
      <trkpt lat="48.69754" lon="1.68934">
        <ele>152</ele>
        <time>2014-04-27T11:05:57.000Z</time>
      </trkpt>
      <trkpt lat="48.69756" lon="1.6894">
        <ele>152</ele>
        <time>2014-04-27T11:06:00.000Z</time>
      </trkpt>
      <trkpt lat="48.69753" lon="1.68955">
        <ele>152.19999694824</ele>
        <time>2014-04-27T11:06:07.000Z</time>
      </trkpt>
      <trkpt lat="48.69753" lon="1.68957">
        <ele>152.19999694824</ele>
        <time>2014-04-27T11:06:08.000Z</time>
      </trkpt>
      <trkpt lat="48.69754" lon="1.68972">
        <ele>152.39999389648</ele>
        <time>2014-04-27T11:06:15.000Z</time>
      </trkpt>
      <trkpt lat="48.69756" lon="1.68991">
        <ele>152.60000610352</ele>
        <time>2014-04-27T11:06:22.000Z</time>
      </trkpt>
      <trkpt lat="48.69757" lon="1.69002">
        <ele>152.80000305176</ele>
        <time>2014-04-27T11:06:27.000Z</time>
      </trkpt>
      <trkpt lat="48.69756" lon="1.69006">
        <ele>153</ele>
        <time>2014-04-27T11:06:29.000Z</time>
      </trkpt>
      <trkpt lat="48.69755" lon="1.69011">
        <ele>153.19999694824</ele>
        <time>2014-04-27T11:06:31.000Z</time>
      </trkpt>
      <trkpt lat="48.69758" lon="1.69025">
        <ele>153.60000610352</ele>
        <time>2014-04-27T11:06:37.000Z</time>
      </trkpt>
      <trkpt lat="48.69759" lon="1.69046">
        <ele>154.39999389648</ele>
        <time>2014-04-27T11:06:45.000Z</time>
      </trkpt>
      <trkpt lat="48.69758" lon="1.69053">
        <ele>154.60000610352</ele>
        <time>2014-04-27T11:06:48.000Z</time>
      </trkpt>
      <trkpt lat="48.69758" lon="1.69072">
        <ele>155</ele>
        <time>2014-04-27T11:06:56.000Z</time>
      </trkpt>
      <trkpt lat="48.69759" lon="1.69088">
        <ele>155.19999694824</ele>
        <time>2014-04-27T11:07:03.000Z</time>
      </trkpt>
      <trkpt lat="48.69759" lon="1.6909">
        <ele>155.19999694824</ele>
        <time>2014-04-27T11:07:04.000Z</time>
      </trkpt>
      <trkpt lat="48.6976" lon="1.69098">
        <ele>155.39999389648</ele>
        <time>2014-04-27T11:07:08.000Z</time>
      </trkpt>
      <trkpt lat="48.69762" lon="1.69112">
        <ele>155.60000610352</ele>
        <time>2014-04-27T11:07:15.000Z</time>
      </trkpt>
      <trkpt lat="48.69763" lon="1.69117">
        <ele>155.60000610352</ele>
        <time>2014-04-27T11:07:17.000Z</time>
      </trkpt>
      <trkpt lat="48.69765" lon="1.69136">
        <ele>155.80000305176</ele>
        <time>2014-04-27T11:07:25.000Z</time>
      </trkpt>
      <trkpt lat="48.69768" lon="1.69152">
        <ele>156</ele>
        <time>2014-04-27T11:07:32.000Z</time>
      </trkpt>
      <trkpt lat="48.69768" lon="1.69169">
        <ele>156</ele>
        <time>2014-04-27T11:07:39.000Z</time>
      </trkpt>
      <trkpt lat="48.6977" lon="1.69189">
        <ele>156</ele>
        <time>2014-04-27T11:07:48.000Z</time>
      </trkpt>
      <trkpt lat="48.6977" lon="1.69191">
        <ele>156</ele>
        <time>2014-04-27T11:07:49.000Z</time>
      </trkpt>
      <trkpt lat="48.69773" lon="1.69207">
        <ele>156</ele>
        <time>2014-04-27T11:07:56.000Z</time>
      </trkpt>
      <trkpt lat="48.69778" lon="1.69222">
        <ele>156.19999694824</ele>
        <time>2014-04-27T11:08:03.000Z</time>
      </trkpt>
      <trkpt lat="48.69779" lon="1.69225">
        <ele>156.19999694824</ele>
        <time>2014-04-27T11:08:04.000Z</time>
      </trkpt>
      <trkpt lat="48.69782" lon="1.69239">
        <ele>156.39999389648</ele>
        <time>2014-04-27T11:08:10.000Z</time>
      </trkpt>
      <trkpt lat="48.69784" lon="1.69247">
        <ele>156.39999389648</ele>
        <time>2014-04-27T11:08:14.000Z</time>
      </trkpt>
      <trkpt lat="48.69785" lon="1.69251">
        <ele>156.60000610352</ele>
        <time>2014-04-27T11:08:16.000Z</time>
      </trkpt>
      <trkpt lat="48.69787" lon="1.6926">
        <ele>156.60000610352</ele>
        <time>2014-04-27T11:08:20.000Z</time>
      </trkpt>
      <trkpt lat="48.69793" lon="1.69274">
        <ele>156.60000610352</ele>
        <time>2014-04-27T11:08:26.000Z</time>
      </trkpt>
      <trkpt lat="48.69794" lon="1.69279">
        <ele>156.60000610352</ele>
        <time>2014-04-27T11:08:28.000Z</time>
      </trkpt>
      <trkpt lat="48.69798" lon="1.69294">
        <ele>156.60000610352</ele>
        <time>2014-04-27T11:08:35.000Z</time>
      </trkpt>
      <trkpt lat="48.69798" lon="1.6931">
        <ele>156.39999389648</ele>
        <time>2014-04-27T11:08:42.000Z</time>
      </trkpt>
      <trkpt lat="48.69799" lon="1.69314">
        <ele>156.39999389648</ele>
        <time>2014-04-27T11:08:44.000Z</time>
      </trkpt>
      <trkpt lat="48.69802" lon="1.69328">
        <ele>156.80000305176</ele>
        <time>2014-04-27T11:08:50.000Z</time>
      </trkpt>
      <trkpt lat="48.69805" lon="1.69342">
        <ele>157.39999389648</ele>
        <time>2014-04-27T11:08:57.000Z</time>
      </trkpt>
      <trkpt lat="48.69805" lon="1.69346">
        <ele>157.60000610352</ele>
        <time>2014-04-27T11:08:59.000Z</time>
      </trkpt>
      <trkpt lat="48.69808" lon="1.69361">
        <ele>158.19999694824</ele>
        <time>2014-04-27T11:09:06.000Z</time>
      </trkpt>
      <trkpt lat="48.69809" lon="1.69373">
        <ele>158.19999694824</ele>
        <time>2014-04-27T11:09:11.000Z</time>
      </trkpt>
      <trkpt lat="48.69813" lon="1.69385">
        <ele>158.39999389648</ele>
        <time>2014-04-27T11:09:16.000Z</time>
      </trkpt>
      <trkpt lat="48.69812" lon="1.69398">
        <ele>158</ele>
        <time>2014-04-27T11:09:23.000Z</time>
      </trkpt>
      <trkpt lat="48.69814" lon="1.69408">
        <ele>158.39999389648</ele>
        <time>2014-04-27T11:09:28.000Z</time>
      </trkpt>
      <trkpt lat="48.69814" lon="1.6941">
        <ele>158.39999389648</ele>
        <time>2014-04-27T11:09:29.000Z</time>
      </trkpt>
      <trkpt lat="48.69817" lon="1.69427">
        <ele>159</ele>
        <time>2014-04-27T11:09:36.000Z</time>
      </trkpt>
      <trkpt lat="48.69821" lon="1.69446">
        <ele>160</ele>
        <time>2014-04-27T11:09:44.000Z</time>
      </trkpt>
      <trkpt lat="48.69826" lon="1.69453">
        <ele>160.60000610352</ele>
        <time>2014-04-27T11:09:48.000Z</time>
      </trkpt>
      <trkpt lat="48.69826" lon="1.69462">
        <ele>160.80000305176</ele>
        <time>2014-04-27T11:09:53.000Z</time>
      </trkpt>
      <trkpt lat="48.69824" lon="1.69476">
        <ele>160.39999389648</ele>
        <time>2014-04-27T11:10:00.000Z</time>
      </trkpt>
      <trkpt lat="48.69824" lon="1.6948">
        <ele>160.39999389648</ele>
        <time>2014-04-27T11:10:02.000Z</time>
      </trkpt>
      <trkpt lat="48.69826" lon="1.6949">
        <ele>160.60000610352</ele>
        <time>2014-04-27T11:10:07.000Z</time>
      </trkpt>
      <trkpt lat="48.69833" lon="1.69503">
        <ele>161.19999694824</ele>
        <time>2014-04-27T11:10:13.000Z</time>
      </trkpt>
      <trkpt lat="48.69838" lon="1.69515">
        <ele>161.60000610352</ele>
        <time>2014-04-27T11:10:18.000Z</time>
      </trkpt>
      <trkpt lat="48.69844" lon="1.69529">
        <ele>161.80000305176</ele>
        <time>2014-04-27T11:10:24.000Z</time>
      </trkpt>
      <trkpt lat="48.69848" lon="1.69544">
        <ele>162</ele>
        <time>2014-04-27T11:10:31.000Z</time>
      </trkpt>
      <trkpt lat="48.69853" lon="1.69558">
        <ele>162.19999694824</ele>
        <time>2014-04-27T11:10:37.000Z</time>
      </trkpt>
      <trkpt lat="48.69856" lon="1.69573">
        <ele>162</ele>
        <time>2014-04-27T11:10:44.000Z</time>
      </trkpt>
      <trkpt lat="48.69858" lon="1.69587">
        <ele>162</ele>
        <time>2014-04-27T11:10:50.000Z</time>
      </trkpt>
      <trkpt lat="48.69859" lon="1.69589">
        <ele>162</ele>
        <time>2014-04-27T11:10:51.000Z</time>
      </trkpt>
      <trkpt lat="48.69866" lon="1.69598">
        <ele>162.19999694824</ele>
        <time>2014-04-27T11:10:56.000Z</time>
      </trkpt>
      <trkpt lat="48.69871" lon="1.69611">
        <ele>162.19999694824</ele>
        <time>2014-04-27T11:11:02.000Z</time>
      </trkpt>
      <trkpt lat="48.69872" lon="1.69613">
        <ele>162.19999694824</ele>
        <time>2014-04-27T11:11:03.000Z</time>
      </trkpt>
      <trkpt lat="48.69876" lon="1.69624">
        <ele>162.19999694824</ele>
        <time>2014-04-27T11:11:08.000Z</time>
      </trkpt>
      <trkpt lat="48.69877" lon="1.69634">
        <ele>162.19999694824</ele>
        <time>2014-04-27T11:11:13.000Z</time>
      </trkpt>
      <trkpt lat="48.6988" lon="1.6964">
        <ele>162.19999694824</ele>
        <time>2014-04-27T11:11:16.000Z</time>
      </trkpt>
      <trkpt lat="48.6988" lon="1.69654">
        <ele>162</ele>
        <time>2014-04-27T11:11:23.000Z</time>
      </trkpt>
      <trkpt lat="48.69882" lon="1.69664">
        <ele>162.60000610352</ele>
        <time>2014-04-27T11:11:29.000Z</time>
      </trkpt>
      <trkpt lat="48.69886" lon="1.69675">
        <ele>163.19999694824</ele>
        <time>2014-04-27T11:11:35.000Z</time>
      </trkpt>
      <trkpt lat="48.69892" lon="1.69684">
        <ele>163.80000305176</ele>
        <time>2014-04-27T11:11:40.000Z</time>
      </trkpt>
      <trkpt lat="48.69892" lon="1.69692">
        <ele>164.19999694824</ele>
        <time>2014-04-27T11:11:44.000Z</time>
      </trkpt>
      <trkpt lat="48.69895" lon="1.69698">
        <ele>164.60000610352</ele>
        <time>2014-04-27T11:11:47.000Z</time>
      </trkpt>
      <trkpt lat="48.69903" lon="1.69717">
        <ele>165.80000305176</ele>
        <time>2014-04-27T11:11:56.000Z</time>
      </trkpt>
      <trkpt lat="48.69908" lon="1.69731">
        <ele>166.60000610352</ele>
        <time>2014-04-27T11:12:03.000Z</time>
      </trkpt>
      <trkpt lat="48.69913" lon="1.69746">
        <ele>167.60000610352</ele>
        <time>2014-04-27T11:12:10.000Z</time>
      </trkpt>
      <trkpt lat="48.69919" lon="1.69765">
        <ele>169</ele>
        <time>2014-04-27T11:12:19.000Z</time>
      </trkpt>
      <trkpt lat="48.69919" lon="1.69767">
        <ele>169.19999694824</ele>
        <time>2014-04-27T11:12:20.000Z</time>
      </trkpt>
      <trkpt lat="48.69921" lon="1.69774">
        <ele>169.60000610352</ele>
        <time>2014-04-27T11:12:24.000Z</time>
      </trkpt>
      <trkpt lat="48.69921" lon="1.69779">
        <ele>170</ele>
        <time>2014-04-27T11:12:27.000Z</time>
      </trkpt>
      <trkpt lat="48.69922" lon="1.69789">
        <ele>170.60000610352</ele>
        <time>2014-04-27T11:12:32.000Z</time>
      </trkpt>
      <trkpt lat="48.69927" lon="1.69805">
        <ele>171.80000305176</ele>
        <time>2014-04-27T11:12:39.000Z</time>
      </trkpt>
      <trkpt lat="48.69933" lon="1.69813">
        <ele>172.39999389648</ele>
        <time>2014-04-27T11:12:43.000Z</time>
      </trkpt>
      <trkpt lat="48.69942" lon="1.69826">
        <ele>173.19999694824</ele>
        <time>2014-04-27T11:12:51.000Z</time>
      </trkpt>
      <trkpt lat="48.69947" lon="1.69835">
        <ele>173.39999389648</ele>
        <time>2014-04-27T11:12:55.000Z</time>
      </trkpt>
      <trkpt lat="48.6995" lon="1.69847">
        <ele>173.80000305176</ele>
        <time>2014-04-27T11:13:01.000Z</time>
      </trkpt>
      <trkpt lat="48.69951" lon="1.69853">
        <ele>174</ele>
        <time>2014-04-27T11:13:04.000Z</time>
      </trkpt>
      <trkpt lat="48.69953" lon="1.69866">
        <ele>174.39999389648</ele>
        <time>2014-04-27T11:13:10.000Z</time>
      </trkpt>
      <trkpt lat="48.69955" lon="1.69874">
        <ele>174.80000305176</ele>
        <time>2014-04-27T11:13:14.000Z</time>
      </trkpt>
      <trkpt lat="48.69962" lon="1.69885">
        <ele>175</ele>
        <time>2014-04-27T11:13:20.000Z</time>
      </trkpt>
      <trkpt lat="48.69966" lon="1.69897">
        <ele>175.39999389648</ele>
        <time>2014-04-27T11:13:26.000Z</time>
      </trkpt>
      <trkpt lat="48.69968" lon="1.69904">
        <ele>175.60000610352</ele>
        <time>2014-04-27T11:13:30.000Z</time>
      </trkpt>
      <trkpt lat="48.69969" lon="1.69909">
        <ele>175.80000305176</ele>
        <time>2014-04-27T11:13:34.000Z</time>
      </trkpt>
      <trkpt lat="48.69974" lon="1.69916">
        <ele>175.80000305176</ele>
        <time>2014-04-27T11:13:39.000Z</time>
      </trkpt>
      <trkpt lat="48.69979" lon="1.69927">
        <ele>176</ele>
        <time>2014-04-27T11:13:46.000Z</time>
      </trkpt>
      <trkpt lat="48.69986" lon="1.69937">
        <ele>176.19999694824</ele>
        <time>2014-04-27T11:13:52.000Z</time>
      </trkpt>
      <trkpt lat="48.6999" lon="1.69945">
        <ele>176.39999389648</ele>
        <time>2014-04-27T11:13:58.000Z</time>
      </trkpt>
      <trkpt lat="48.69991" lon="1.69947">
        <ele>176.39999389648</ele>
        <time>2014-04-27T11:13:59.000Z</time>
      </trkpt>
      <trkpt lat="48.69999" lon="1.69958">
        <ele>176.60000610352</ele>
        <time>2014-04-27T11:14:07.000Z</time>
      </trkpt>
      <trkpt lat="48.7" lon="1.69959">
        <ele>176.60000610352</ele>
        <time>2014-04-27T11:14:08.000Z</time>
      </trkpt>
      <trkpt lat="48.70004" lon="1.69966">
        <ele>176.60000610352</ele>
        <time>2014-04-27T11:14:12.000Z</time>
      </trkpt>
      <trkpt lat="48.70012" lon="1.69978">
        <ele>176.80000305176</ele>
        <time>2014-04-27T11:14:20.000Z</time>
      </trkpt>
      <trkpt lat="48.70019" lon="1.69988">
        <ele>177</ele>
        <time>2014-04-27T11:14:26.000Z</time>
      </trkpt>
      <trkpt lat="48.70027" lon="1.69998">
        <ele>177.39999389648</ele>
        <time>2014-04-27T11:14:32.000Z</time>
      </trkpt>
      <trkpt lat="48.7003" lon="1.69999">
        <ele>177.60000610352</ele>
        <time>2014-04-27T11:14:38.000Z</time>
      </trkpt>
      <trkpt lat="48.7003" lon="1.7">
        <ele>177.60000610352</ele>
        <time>2014-04-27T11:14:40.000Z</time>
      </trkpt>
      <trkpt lat="48.70034" lon="1.70004">
        <ele>177.80000305176</ele>
        <time>2014-04-27T11:14:47.000Z</time>
      </trkpt>
      <trkpt lat="48.70035" lon="1.70006">
        <ele>177.80000305176</ele>
        <time>2014-04-27T11:14:48.000Z</time>
      </trkpt>
      <trkpt lat="48.7004" lon="1.70016">
        <ele>178</ele>
        <time>2014-04-27T11:14:53.000Z</time>
      </trkpt>
      <trkpt lat="48.70051" lon="1.70028">
        <ele>178.60000610352</ele>
        <time>2014-04-27T11:15:00.000Z</time>
      </trkpt>
      <trkpt lat="48.70056" lon="1.70041">
        <ele>179</ele>
        <time>2014-04-27T11:15:07.000Z</time>
      </trkpt>
      <trkpt lat="48.7006" lon="1.70049">
        <ele>179.19999694824</ele>
        <time>2014-04-27T11:15:12.000Z</time>
      </trkpt>
      <trkpt lat="48.70064" lon="1.70057">
        <ele>179.39999389648</ele>
        <time>2014-04-27T11:15:17.000Z</time>
      </trkpt>
      <trkpt lat="48.70067" lon="1.70064">
        <ele>179.60000610352</ele>
        <time>2014-04-27T11:15:22.000Z</time>
      </trkpt>
      <trkpt lat="48.70073" lon="1.7007">
        <ele>180</ele>
        <time>2014-04-27T11:15:26.000Z</time>
      </trkpt>
      <trkpt lat="48.7008" lon="1.70079">
        <ele>179.80000305176</ele>
        <time>2014-04-27T11:15:31.000Z</time>
      </trkpt>
      <trkpt lat="48.70091" lon="1.7009">
        <ele>179.80000305176</ele>
        <time>2014-04-27T11:15:38.000Z</time>
      </trkpt>
      <trkpt lat="48.70099" lon="1.70101">
        <ele>179.80000305176</ele>
        <time>2014-04-27T11:15:45.000Z</time>
      </trkpt>
      <trkpt lat="48.70103" lon="1.70107">
        <ele>179.60000610352</ele>
        <time>2014-04-27T11:15:51.000Z</time>
      </trkpt>
      <trkpt lat="48.70107" lon="1.70116">
        <ele>179.39999389648</ele>
        <time>2014-04-27T11:15:56.000Z</time>
      </trkpt>
      <trkpt lat="48.70112" lon="1.70127">
        <ele>179</ele>
        <time>2014-04-27T11:16:02.000Z</time>
      </trkpt>
      <trkpt lat="48.70117" lon="1.70134">
        <ele>178.80000305176</ele>
        <time>2014-04-27T11:16:06.000Z</time>
      </trkpt>
      <trkpt lat="48.70122" lon="1.70148">
        <ele>178.39999389648</ele>
        <time>2014-04-27T11:16:13.000Z</time>
      </trkpt>
      <trkpt lat="48.7013" lon="1.70158">
        <ele>178.19999694824</ele>
        <time>2014-04-27T11:16:19.000Z</time>
      </trkpt>
      <trkpt lat="48.70134" lon="1.70167">
        <ele>178</ele>
        <time>2014-04-27T11:16:24.000Z</time>
      </trkpt>
      <trkpt lat="48.70137" lon="1.70176">
        <ele>177.80000305176</ele>
        <time>2014-04-27T11:16:29.000Z</time>
      </trkpt>
      <trkpt lat="48.70137" lon="1.70179">
        <ele>177.80000305176</ele>
        <time>2014-04-27T11:16:31.000Z</time>
      </trkpt>
      <trkpt lat="48.70138" lon="1.70183">
        <ele>177.80000305176</ele>
        <time>2014-04-27T11:16:33.000Z</time>
      </trkpt>
      <trkpt lat="48.70141" lon="1.70195">
        <ele>177.39999389648</ele>
        <time>2014-04-27T11:16:39.000Z</time>
      </trkpt>
      <trkpt lat="48.70143" lon="1.70205">
        <ele>177.19999694824</ele>
        <time>2014-04-27T11:16:44.000Z</time>
      </trkpt>
      <trkpt lat="48.70146" lon="1.70216">
        <ele>177</ele>
        <time>2014-04-27T11:16:50.000Z</time>
      </trkpt>
      <trkpt lat="48.70147" lon="1.70222">
        <ele>176.80000305176</ele>
        <time>2014-04-27T11:16:53.000Z</time>
      </trkpt>
      <trkpt lat="48.7015" lon="1.70226">
        <ele>176.80000305176</ele>
        <time>2014-04-27T11:16:55.000Z</time>
      </trkpt>
      <trkpt lat="48.70153" lon="1.70234">
        <ele>176.60000610352</ele>
        <time>2014-04-27T11:17:00.000Z</time>
      </trkpt>
      <trkpt lat="48.70159" lon="1.70248">
        <ele>176.80000305176</ele>
        <time>2014-04-27T11:17:07.000Z</time>
      </trkpt>
      <trkpt lat="48.70162" lon="1.7026">
        <ele>177</ele>
        <time>2014-04-27T11:17:13.000Z</time>
      </trkpt>
      <trkpt lat="48.70168" lon="1.70273">
        <ele>177.19999694824</ele>
        <time>2014-04-27T11:17:19.000Z</time>
      </trkpt>
      <trkpt lat="48.70173" lon="1.70281">
        <ele>177.39999389648</ele>
        <time>2014-04-27T11:17:23.000Z</time>
      </trkpt>
      <trkpt lat="48.70177" lon="1.70296">
        <ele>177.60000610352</ele>
        <time>2014-04-27T11:17:30.000Z</time>
      </trkpt>
      <trkpt lat="48.70179" lon="1.70304">
        <ele>177.80000305176</ele>
        <time>2014-04-27T11:17:34.000Z</time>
      </trkpt>
      <trkpt lat="48.70181" lon="1.7031">
        <ele>177.80000305176</ele>
        <time>2014-04-27T11:17:37.000Z</time>
      </trkpt>
      <trkpt lat="48.70183" lon="1.70322">
        <ele>178</ele>
        <time>2014-04-27T11:17:43.000Z</time>
      </trkpt>
      <trkpt lat="48.70188" lon="1.70332">
        <ele>178.19999694824</ele>
        <time>2014-04-27T11:17:48.000Z</time>
      </trkpt>
      <trkpt lat="48.70189" lon="1.7034">
        <ele>178.39999389648</ele>
        <time>2014-04-27T11:17:52.000Z</time>
      </trkpt>
      <trkpt lat="48.7019" lon="1.70342">
        <ele>178.39999389648</ele>
        <time>2014-04-27T11:17:53.000Z</time>
      </trkpt>
      <trkpt lat="48.70191" lon="1.70347">
        <ele>178.60000610352</ele>
        <time>2014-04-27T11:17:55.000Z</time>
      </trkpt>
      <trkpt lat="48.70194" lon="1.70359">
        <ele>179</ele>
        <time>2014-04-27T11:18:02.000Z</time>
      </trkpt>
      <trkpt lat="48.70195" lon="1.70363">
        <ele>179</ele>
        <time>2014-04-27T11:18:04.000Z</time>
      </trkpt>
      <trkpt lat="48.70197" lon="1.70371">
        <ele>179.19999694824</ele>
        <time>2014-04-27T11:18:08.000Z</time>
      </trkpt>
      <trkpt lat="48.70201" lon="1.70383">
        <ele>179.60000610352</ele>
        <time>2014-04-27T11:18:13.000Z</time>
      </trkpt>
      <trkpt lat="48.70208" lon="1.704">
        <ele>180.19999694824</ele>
        <time>2014-04-27T11:18:20.000Z</time>
      </trkpt>
      <trkpt lat="48.70215" lon="1.70414">
        <ele>180.39999389648</ele>
        <time>2014-04-27T11:18:26.000Z</time>
      </trkpt>
      <trkpt lat="48.70221" lon="1.70426">
        <ele>180.39999389648</ele>
        <time>2014-04-27T11:18:32.000Z</time>
      </trkpt>
      <trkpt lat="48.70222" lon="1.70428">
        <ele>180.60000610352</ele>
        <time>2014-04-27T11:18:33.000Z</time>
      </trkpt>
      <trkpt lat="48.70226" lon="1.70445">
        <ele>180.39999389648</ele>
        <time>2014-04-27T11:18:41.000Z</time>
      </trkpt>
      <trkpt lat="48.70226" lon="1.70446">
        <ele>180.39999389648</ele>
        <time>2014-04-27T11:18:42.000Z</time>
      </trkpt>
      <trkpt lat="48.7023" lon="1.70458">
        <ele>180.39999389648</ele>
        <time>2014-04-27T11:18:48.000Z</time>
      </trkpt>
      <trkpt lat="48.70232" lon="1.70467">
        <ele>180.39999389648</ele>
        <time>2014-04-27T11:18:53.000Z</time>
      </trkpt>
      <trkpt lat="48.70237" lon="1.70477">
        <ele>180.60000610352</ele>
        <time>2014-04-27T11:18:58.000Z</time>
      </trkpt>
      <trkpt lat="48.70238" lon="1.70481">
        <ele>180.60000610352</ele>
        <time>2014-04-27T11:19:02.000Z</time>
      </trkpt>
      <trkpt lat="48.70242" lon="1.7049">
        <ele>180.60000610352</ele>
        <time>2014-04-27T11:19:07.000Z</time>
      </trkpt>
      <trkpt lat="48.70244" lon="1.70497">
        <ele>180.60000610352</ele>
        <time>2014-04-27T11:19:11.000Z</time>
      </trkpt>
      <trkpt lat="48.70247" lon="1.70508">
        <ele>180.39999389648</ele>
        <time>2014-04-27T11:19:17.000Z</time>
      </trkpt>
      <trkpt lat="48.70251" lon="1.70515">
        <ele>180.39999389648</ele>
        <time>2014-04-27T11:19:21.000Z</time>
      </trkpt>
      <trkpt lat="48.70255" lon="1.70525">
        <ele>180.39999389648</ele>
        <time>2014-04-27T11:19:26.000Z</time>
      </trkpt>
      <trkpt lat="48.70258" lon="1.70535">
        <ele>180.19999694824</ele>
        <time>2014-04-27T11:19:31.000Z</time>
      </trkpt>
      <trkpt lat="48.70259" lon="1.70536">
        <ele>180.19999694824</ele>
        <time>2014-04-27T11:19:32.000Z</time>
      </trkpt>
      <trkpt lat="48.70263" lon="1.70548">
        <ele>180.19999694824</ele>
        <time>2014-04-27T11:19:38.000Z</time>
      </trkpt>
      <trkpt lat="48.70266" lon="1.70559">
        <ele>180</ele>
        <time>2014-04-27T11:19:43.000Z</time>
      </trkpt>
      <trkpt lat="48.70268" lon="1.70565">
        <ele>180</ele>
        <time>2014-04-27T11:19:47.000Z</time>
      </trkpt>
      <trkpt lat="48.70272" lon="1.70575">
        <ele>180.19999694824</ele>
        <time>2014-04-27T11:19:53.000Z</time>
      </trkpt>
      <trkpt lat="48.70273" lon="1.70579">
        <ele>180.19999694824</ele>
        <time>2014-04-27T11:19:55.000Z</time>
      </trkpt>
      <trkpt lat="48.70277" lon="1.70589">
        <ele>180.60000610352</ele>
        <time>2014-04-27T11:20:00.000Z</time>
      </trkpt>
      <trkpt lat="48.70283" lon="1.70605">
        <ele>181.19999694824</ele>
        <time>2014-04-27T11:20:08.000Z</time>
      </trkpt>
      <trkpt lat="48.70287" lon="1.70614">
        <ele>181.60000610352</ele>
        <time>2014-04-27T11:20:13.000Z</time>
      </trkpt>
      <trkpt lat="48.7029" lon="1.70627">
        <ele>181.80000305176</ele>
        <time>2014-04-27T11:20:20.000Z</time>
      </trkpt>
      <trkpt lat="48.70291" lon="1.70629">
        <ele>182</ele>
        <time>2014-04-27T11:20:21.000Z</time>
      </trkpt>
      <trkpt lat="48.70295" lon="1.70641">
        <ele>182.39999389648</ele>
        <time>2014-04-27T11:20:28.000Z</time>
      </trkpt>
      <trkpt lat="48.70297" lon="1.7065">
        <ele>182.60000610352</ele>
        <time>2014-04-27T11:20:33.000Z</time>
      </trkpt>
      <trkpt lat="48.703" lon="1.70656">
        <ele>182.80000305176</ele>
        <time>2014-04-27T11:20:37.000Z</time>
      </trkpt>
      <trkpt lat="48.70307" lon="1.70665">
        <ele>183</ele>
        <time>2014-04-27T11:20:42.000Z</time>
      </trkpt>
      <trkpt lat="48.70308" lon="1.70668">
        <ele>183</ele>
        <time>2014-04-27T11:20:44.000Z</time>
      </trkpt>
      <trkpt lat="48.70314" lon="1.70678">
        <ele>183</ele>
        <time>2014-04-27T11:20:49.000Z</time>
      </trkpt>
      <trkpt lat="48.70315" lon="1.70693">
        <ele>182.80000305176</ele>
        <time>2014-04-27T11:20:57.000Z</time>
      </trkpt>
      <trkpt lat="48.70317" lon="1.707">
        <ele>182.80000305176</ele>
        <time>2014-04-27T11:21:00.000Z</time>
      </trkpt>
      <trkpt lat="48.70323" lon="1.70716">
        <ele>183.19999694824</ele>
        <time>2014-04-27T11:21:08.000Z</time>
      </trkpt>
      <trkpt lat="48.70325" lon="1.70725">
        <ele>183.39999389648</ele>
        <time>2014-04-27T11:21:14.000Z</time>
      </trkpt>
      <trkpt lat="48.70325" lon="1.70727">
        <ele>183.39999389648</ele>
        <time>2014-04-27T11:21:15.000Z</time>
      </trkpt>
      <trkpt lat="48.70327" lon="1.70736">
        <ele>183.60000610352</ele>
        <time>2014-04-27T11:21:21.000Z</time>
      </trkpt>
      <trkpt lat="48.7033" lon="1.70742">
        <ele>183.80000305176</ele>
        <time>2014-04-27T11:21:25.000Z</time>
      </trkpt>
      <trkpt lat="48.70332" lon="1.70754">
        <ele>184.19999694824</ele>
        <time>2014-04-27T11:21:33.000Z</time>
      </trkpt>
      <trkpt lat="48.70334" lon="1.70759">
        <ele>184.39999389648</ele>
        <time>2014-04-27T11:21:37.000Z</time>
      </trkpt>
      <trkpt lat="48.70337" lon="1.70769">
        <ele>184.60000610352</ele>
        <time>2014-04-27T11:21:43.000Z</time>
      </trkpt>
      <trkpt lat="48.70338" lon="1.7077">
        <ele>184.60000610352</ele>
        <time>2014-04-27T11:21:44.000Z</time>
      </trkpt>
      <trkpt lat="48.70341" lon="1.70784">
        <ele>185</ele>
        <time>2014-04-27T11:21:52.000Z</time>
      </trkpt>
      <trkpt lat="48.70349" lon="1.70798">
        <ele>185.39999389648</ele>
        <time>2014-04-27T11:21:58.000Z</time>
      </trkpt>
      <trkpt lat="48.70356" lon="1.70811">
        <ele>185.80000305176</ele>
        <time>2014-04-27T11:22:05.000Z</time>
      </trkpt>
      <trkpt lat="48.70358" lon="1.70815">
        <ele>186</ele>
        <time>2014-04-27T11:22:08.000Z</time>
      </trkpt>
      <trkpt lat="48.70361" lon="1.70829">
        <ele>186.19999694824</ele>
        <time>2014-04-27T11:22:16.000Z</time>
      </trkpt>
      <trkpt lat="48.70363" lon="1.70832">
        <ele>186.19999694824</ele>
        <time>2014-04-27T11:22:18.000Z</time>
      </trkpt>
      <trkpt lat="48.70367" lon="1.7084">
        <ele>186.19999694824</ele>
        <time>2014-04-27T11:22:23.000Z</time>
      </trkpt>
      <trkpt lat="48.70372" lon="1.70851">
        <ele>186.39999389648</ele>
        <time>2014-04-27T11:22:28.000Z</time>
      </trkpt>
      <trkpt lat="48.70374" lon="1.70862">
        <ele>186.60000610352</ele>
        <time>2014-04-27T11:22:33.000Z</time>
      </trkpt>
      <trkpt lat="48.70378" lon="1.70883">
        <ele>186.80000305176</ele>
        <time>2014-04-27T11:22:42.000Z</time>
      </trkpt>
      <trkpt lat="48.70383" lon="1.70898">
        <ele>187</ele>
        <time>2014-04-27T11:22:50.000Z</time>
      </trkpt>
      <trkpt lat="48.70386" lon="1.70905">
        <ele>187</ele>
        <time>2014-04-27T11:22:54.000Z</time>
      </trkpt>
      <trkpt lat="48.70393" lon="1.70916">
        <ele>187</ele>
        <time>2014-04-27T11:23:00.000Z</time>
      </trkpt>
      <trkpt lat="48.70405" lon="1.70929">
        <ele>187</ele>
        <time>2014-04-27T11:23:06.000Z</time>
      </trkpt>
      <trkpt lat="48.70412" lon="1.70943">
        <ele>187</ele>
        <time>2014-04-27T11:23:13.000Z</time>
      </trkpt>
      <trkpt lat="48.70412" lon="1.70946">
        <ele>187</ele>
        <time>2014-04-27T11:23:15.000Z</time>
      </trkpt>
      <trkpt lat="48.70415" lon="1.70959">
        <ele>187</ele>
        <time>2014-04-27T11:23:22.000Z</time>
      </trkpt>
      <trkpt lat="48.70415" lon="1.70961">
        <ele>187</ele>
        <time>2014-04-27T11:23:23.000Z</time>
      </trkpt>
      <trkpt lat="48.70415" lon="1.70973">
        <ele>187</ele>
        <time>2014-04-27T11:23:30.000Z</time>
      </trkpt>
      <trkpt lat="48.70417" lon="1.70981">
        <ele>186.80000305176</ele>
        <time>2014-04-27T11:23:35.000Z</time>
      </trkpt>
      <trkpt lat="48.70417" lon="1.70984">
        <ele>186.80000305176</ele>
        <time>2014-04-27T11:23:37.000Z</time>
      </trkpt>
      <trkpt lat="48.70418" lon="1.7099">
        <ele>186.80000305176</ele>
        <time>2014-04-27T11:23:40.000Z</time>
      </trkpt>
      <trkpt lat="48.70427" lon="1.71">
        <ele>186.80000305176</ele>
        <time>2014-04-27T11:23:45.000Z</time>
      </trkpt>
      <trkpt lat="48.70429" lon="1.71009">
        <ele>186.60000610352</ele>
        <time>2014-04-27T11:23:51.000Z</time>
      </trkpt>
      <trkpt lat="48.70432" lon="1.71018">
        <ele>186.60000610352</ele>
        <time>2014-04-27T11:23:56.000Z</time>
      </trkpt>
      <trkpt lat="48.70434" lon="1.71022">
        <ele>186.60000610352</ele>
        <time>2014-04-27T11:23:58.000Z</time>
      </trkpt>
      <trkpt lat="48.7044" lon="1.71034">
        <ele>186.39999389648</ele>
        <time>2014-04-27T11:24:05.000Z</time>
      </trkpt>
      <trkpt lat="48.70441" lon="1.7104">
        <ele>186.39999389648</ele>
        <time>2014-04-27T11:24:08.000Z</time>
      </trkpt>
      <trkpt lat="48.70441" lon="1.71053">
        <ele>186.19999694824</ele>
        <time>2014-04-27T11:24:15.000Z</time>
      </trkpt>
      <trkpt lat="48.70446" lon="1.71064">
        <ele>186</ele>
        <time>2014-04-27T11:24:21.000Z</time>
      </trkpt>
      <trkpt lat="48.70449" lon="1.71069">
        <ele>185.80000305176</ele>
        <time>2014-04-27T11:24:24.000Z</time>
      </trkpt>
      <trkpt lat="48.70451" lon="1.7108">
        <ele>185.80000305176</ele>
        <time>2014-04-27T11:24:30.000Z</time>
      </trkpt>
      <trkpt lat="48.70454" lon="1.71088">
        <ele>185.80000305176</ele>
        <time>2014-04-27T11:24:34.000Z</time>
      </trkpt>
      <trkpt lat="48.70456" lon="1.71098">
        <ele>185.80000305176</ele>
        <time>2014-04-27T11:24:39.000Z</time>
      </trkpt>
      <trkpt lat="48.70457" lon="1.71105">
        <ele>185.80000305176</ele>
        <time>2014-04-27T11:24:42.000Z</time>
      </trkpt>
      <trkpt lat="48.70458" lon="1.71108">
        <ele>185.80000305176</ele>
        <time>2014-04-27T11:24:44.000Z</time>
      </trkpt>
      <trkpt lat="48.70464" lon="1.71114">
        <ele>185.60000610352</ele>
        <time>2014-04-27T11:24:48.000Z</time>
      </trkpt>
      <trkpt lat="48.70468" lon="1.7112">
        <ele>185.60000610352</ele>
        <time>2014-04-27T11:24:51.000Z</time>
      </trkpt>
      <trkpt lat="48.70474" lon="1.71133">
        <ele>185.60000610352</ele>
        <time>2014-04-27T11:24:58.000Z</time>
      </trkpt>
      <trkpt lat="48.70478" lon="1.7114">
        <ele>185.60000610352</ele>
        <time>2014-04-27T11:25:03.000Z</time>
      </trkpt>
      <trkpt lat="48.7048" lon="1.71141">
        <ele>185.39999389648</ele>
        <time>2014-04-27T11:25:08.000Z</time>
      </trkpt>
      <trkpt lat="48.70483" lon="1.71152">
        <ele>185.39999389648</ele>
        <time>2014-04-27T11:25:16.000Z</time>
      </trkpt>
      <trkpt lat="48.70486" lon="1.71158">
        <ele>185.60000610352</ele>
        <time>2014-04-27T11:25:18.000Z</time>
      </trkpt>
      <trkpt lat="48.70488" lon="1.71168">
        <ele>185.80000305176</ele>
        <time>2014-04-27T11:25:23.000Z</time>
      </trkpt>
      <trkpt lat="48.70491" lon="1.71185">
        <ele>186.19999694824</ele>
        <time>2014-04-27T11:25:32.000Z</time>
      </trkpt>
      <trkpt lat="48.70491" lon="1.7119">
        <ele>186.19999694824</ele>
        <time>2014-04-27T11:25:35.000Z</time>
      </trkpt>
      <trkpt lat="48.70495" lon="1.71198">
        <ele>186.39999389648</ele>
        <time>2014-04-27T11:25:41.000Z</time>
      </trkpt>
      <trkpt lat="48.70496" lon="1.71205">
        <ele>186.60000610352</ele>
        <time>2014-04-27T11:25:47.000Z</time>
      </trkpt>
      <trkpt lat="48.70499" lon="1.7121">
        <ele>186.60000610352</ele>
        <time>2014-04-27T11:25:52.000Z</time>
      </trkpt>
      <trkpt lat="48.70498" lon="1.7121">
        <ele>186.60000610352</ele>
        <time>2014-04-27T11:25:53.000Z</time>
      </trkpt>
      <trkpt lat="48.70505" lon="1.712">
        <ele>186.19999694824</ele>
        <time>2014-04-27T11:26:16.000Z</time>
      </trkpt>
      <trkpt lat="48.70511" lon="1.71206">
        <ele>186.39999389648</ele>
        <time>2014-04-27T11:26:20.000Z</time>
      </trkpt>
      <trkpt lat="48.70512" lon="1.71211">
        <ele>186.39999389648</ele>
        <time>2014-04-27T11:26:26.000Z</time>
      </trkpt>
      <trkpt lat="48.70505" lon="1.71215">
        <ele>186.60000610352</ele>
        <time>2014-04-27T11:27:26.000Z</time>
      </trkpt>
      <trkpt lat="48.70506" lon="1.71214">
        <ele>186.60000610352</ele>
        <time>2014-04-27T11:27:33.000Z</time>
      </trkpt>
      <trkpt lat="48.70505" lon="1.71214">
        <ele>186.60000610352</ele>
        <time>2014-04-27T11:27:35.000Z</time>
      </trkpt>
      <trkpt lat="48.70497" lon="1.71204">
        <ele>186.39999389648</ele>
        <time>2014-04-27T11:27:53.000Z</time>
      </trkpt>
      <trkpt lat="48.70492" lon="1.71204">
        <ele>186.60000610352</ele>
        <time>2014-04-27T11:27:57.000Z</time>
      </trkpt>
      <trkpt lat="48.70491" lon="1.7121">
        <ele>186.60000610352</ele>
        <time>2014-04-27T11:28:01.000Z</time>
      </trkpt>
      <trkpt lat="48.7049" lon="1.71216">
        <ele>186.80000305176</ele>
        <time>2014-04-27T11:28:05.000Z</time>
      </trkpt>
      <trkpt lat="48.70487" lon="1.71227">
        <ele>186.80000305176</ele>
        <time>2014-04-27T11:28:11.000Z</time>
      </trkpt>
      <trkpt lat="48.70483" lon="1.71238">
        <ele>187</ele>
        <time>2014-04-27T11:28:16.000Z</time>
      </trkpt>
      <trkpt lat="48.70478" lon="1.71253">
        <ele>187.19999694824</ele>
        <time>2014-04-27T11:28:23.000Z</time>
      </trkpt>
      <trkpt lat="48.70476" lon="1.71265">
        <ele>187.39999389648</ele>
        <time>2014-04-27T11:28:28.000Z</time>
      </trkpt>
      <trkpt lat="48.70475" lon="1.71277">
        <ele>187.39999389648</ele>
        <time>2014-04-27T11:28:33.000Z</time>
      </trkpt>
      <trkpt lat="48.70472" lon="1.71289">
        <ele>187.19999694824</ele>
        <time>2014-04-27T11:28:39.000Z</time>
      </trkpt>
      <trkpt lat="48.7047" lon="1.71301">
        <ele>187</ele>
        <time>2014-04-27T11:28:44.000Z</time>
      </trkpt>
      <trkpt lat="48.70469" lon="1.71318">
        <ele>186.80000305176</ele>
        <time>2014-04-27T11:28:51.000Z</time>
      </trkpt>
      <trkpt lat="48.70466" lon="1.71334">
        <ele>186.80000305176</ele>
        <time>2014-04-27T11:28:58.000Z</time>
      </trkpt>
      <trkpt lat="48.70468" lon="1.71348">
        <ele>187</ele>
        <time>2014-04-27T11:29:04.000Z</time>
      </trkpt>
      <trkpt lat="48.70464" lon="1.7136">
        <ele>186.80000305176</ele>
        <time>2014-04-27T11:29:10.000Z</time>
      </trkpt>
      <trkpt lat="48.70459" lon="1.71372">
        <ele>186.39999389648</ele>
        <time>2014-04-27T11:29:16.000Z</time>
      </trkpt>
      <trkpt lat="48.70455" lon="1.71388">
        <ele>186</ele>
        <time>2014-04-27T11:29:24.000Z</time>
      </trkpt>
      <trkpt lat="48.70449" lon="1.71397">
        <ele>185.60000610352</ele>
        <time>2014-04-27T11:29:29.000Z</time>
      </trkpt>
      <trkpt lat="48.70448" lon="1.71413">
        <ele>185.39999389648</ele>
        <time>2014-04-27T11:29:36.000Z</time>
      </trkpt>
      <trkpt lat="48.70451" lon="1.71427">
        <ele>185.39999389648</ele>
        <time>2014-04-27T11:29:42.000Z</time>
      </trkpt>
      <trkpt lat="48.70448" lon="1.7144">
        <ele>185.60000610352</ele>
        <time>2014-04-27T11:29:48.000Z</time>
      </trkpt>
      <trkpt lat="48.70447" lon="1.71444">
        <ele>185.60000610352</ele>
        <time>2014-04-27T11:29:50.000Z</time>
      </trkpt>
      <trkpt lat="48.70447" lon="1.71454">
        <ele>185.80000305176</ele>
        <time>2014-04-27T11:29:55.000Z</time>
      </trkpt>
      <trkpt lat="48.70439" lon="1.7147">
        <ele>185.80000305176</ele>
        <time>2014-04-27T11:30:02.000Z</time>
      </trkpt>
      <trkpt lat="48.70438" lon="1.71475">
        <ele>185.80000305176</ele>
        <time>2014-04-27T11:30:04.000Z</time>
      </trkpt>
      <trkpt lat="48.70431" lon="1.71489">
        <ele>186</ele>
        <time>2014-04-27T11:30:11.000Z</time>
      </trkpt>
      <trkpt lat="48.70427" lon="1.71503">
        <ele>185.60000610352</ele>
        <time>2014-04-27T11:30:18.000Z</time>
      </trkpt>
      <trkpt lat="48.70424" lon="1.71518">
        <ele>185.39999389648</ele>
        <time>2014-04-27T11:30:25.000Z</time>
      </trkpt>
      <trkpt lat="48.70421" lon="1.71534">
        <ele>185.19999694824</ele>
        <time>2014-04-27T11:30:33.000Z</time>
      </trkpt>
      <trkpt lat="48.70419" lon="1.71546">
        <ele>185</ele>
        <time>2014-04-27T11:30:38.000Z</time>
      </trkpt>
      <trkpt lat="48.70418" lon="1.71562">
        <ele>184.80000305176</ele>
        <time>2014-04-27T11:30:45.000Z</time>
      </trkpt>
      <trkpt lat="48.70413" lon="1.71573">
        <ele>184.39999389648</ele>
        <time>2014-04-27T11:30:51.000Z</time>
      </trkpt>
      <trkpt lat="48.7041" lon="1.71592">
        <ele>184.60000610352</ele>
        <time>2014-04-27T11:31:00.000Z</time>
      </trkpt>
      <trkpt lat="48.70409" lon="1.71605">
        <ele>184.80000305176</ele>
        <time>2014-04-27T11:31:06.000Z</time>
      </trkpt>
      <trkpt lat="48.70406" lon="1.7162">
        <ele>184.80000305176</ele>
        <time>2014-04-27T11:31:13.000Z</time>
      </trkpt>
      <trkpt lat="48.70401" lon="1.71635">
        <ele>185</ele>
        <time>2014-04-27T11:31:20.000Z</time>
      </trkpt>
      <trkpt lat="48.70399" lon="1.71647">
        <ele>185</ele>
        <time>2014-04-27T11:31:26.000Z</time>
      </trkpt>
      <trkpt lat="48.70398" lon="1.71662">
        <ele>185.19999694824</ele>
        <time>2014-04-27T11:31:32.000Z</time>
      </trkpt>
      <trkpt lat="48.70395" lon="1.71676">
        <ele>185.19999694824</ele>
        <time>2014-04-27T11:31:38.000Z</time>
      </trkpt>
      <trkpt lat="48.70391" lon="1.71691">
        <ele>185.39999389648</ele>
        <time>2014-04-27T11:31:44.000Z</time>
      </trkpt>
      <trkpt lat="48.70388" lon="1.717">
        <ele>185.60000610352</ele>
        <time>2014-04-27T11:31:48.000Z</time>
      </trkpt>
      <trkpt lat="48.70388" lon="1.71702">
        <ele>185.60000610352</ele>
        <time>2014-04-27T11:31:49.000Z</time>
      </trkpt>
      <trkpt lat="48.70384" lon="1.71714">
        <ele>185.80000305176</ele>
        <time>2014-04-27T11:31:55.000Z</time>
      </trkpt>
      <trkpt lat="48.70386" lon="1.71731">
        <ele>186.19999694824</ele>
        <time>2014-04-27T11:32:02.000Z</time>
      </trkpt>
      <trkpt lat="48.70386" lon="1.7174">
        <ele>186.39999389648</ele>
        <time>2014-04-27T11:32:05.000Z</time>
      </trkpt>
      <trkpt lat="48.70386" lon="1.71749">
        <ele>186.19999694824</ele>
        <time>2014-04-27T11:32:10.000Z</time>
      </trkpt>
      <trkpt lat="48.70379" lon="1.71764">
        <ele>186</ele>
        <time>2014-04-27T11:32:17.000Z</time>
      </trkpt>
      <trkpt lat="48.70378" lon="1.71767">
        <ele>185.80000305176</ele>
        <time>2014-04-27T11:32:18.000Z</time>
      </trkpt>
      <trkpt lat="48.70372" lon="1.71781">
        <ele>185.39999389648</ele>
        <time>2014-04-27T11:32:25.000Z</time>
      </trkpt>
      <trkpt lat="48.70373" lon="1.71796">
        <ele>185</ele>
        <time>2014-04-27T11:32:31.000Z</time>
      </trkpt>
      <trkpt lat="48.7037" lon="1.71808">
        <ele>184.60000610352</ele>
        <time>2014-04-27T11:32:36.000Z</time>
      </trkpt>
      <trkpt lat="48.70367" lon="1.71818">
        <ele>184.39999389648</ele>
        <time>2014-04-27T11:32:41.000Z</time>
      </trkpt>
      <trkpt lat="48.70365" lon="1.71836">
        <ele>184</ele>
        <time>2014-04-27T11:32:49.000Z</time>
      </trkpt>
      <trkpt lat="48.70363" lon="1.71851">
        <ele>183.80000305176</ele>
        <time>2014-04-27T11:32:56.000Z</time>
      </trkpt>
      <trkpt lat="48.70361" lon="1.71866">
        <ele>183.60000610352</ele>
        <time>2014-04-27T11:33:02.000Z</time>
      </trkpt>
      <trkpt lat="48.70358" lon="1.71887">
        <ele>183.39999389648</ele>
        <time>2014-04-27T11:33:11.000Z</time>
      </trkpt>
      <trkpt lat="48.70357" lon="1.71893">
        <ele>183.19999694824</ele>
        <time>2014-04-27T11:33:14.000Z</time>
      </trkpt>
      <trkpt lat="48.70348" lon="1.71907">
        <ele>182.80000305176</ele>
        <time>2014-04-27T11:33:20.000Z</time>
      </trkpt>
      <trkpt lat="48.70346" lon="1.71916">
        <ele>182.80000305176</ele>
        <time>2014-04-27T11:33:25.000Z</time>
      </trkpt>
      <trkpt lat="48.70342" lon="1.71923">
        <ele>182.80000305176</ele>
        <time>2014-04-27T11:33:29.000Z</time>
      </trkpt>
      <trkpt lat="48.70337" lon="1.71934">
        <ele>182.60000610352</ele>
        <time>2014-04-27T11:33:33.000Z</time>
      </trkpt>
      <trkpt lat="48.70332" lon="1.71955">
        <ele>182.39999389648</ele>
        <time>2014-04-27T11:33:39.000Z</time>
      </trkpt>
      <trkpt lat="48.70331" lon="1.71962">
        <ele>182.39999389648</ele>
        <time>2014-04-27T11:33:42.000Z</time>
      </trkpt>
      <trkpt lat="48.70328" lon="1.71975">
        <ele>181.80000305176</ele>
        <time>2014-04-27T11:33:48.000Z</time>
      </trkpt>
      <trkpt lat="48.70328" lon="1.71978">
        <ele>181.80000305176</ele>
        <time>2014-04-27T11:33:49.000Z</time>
      </trkpt>
      <trkpt lat="48.70326" lon="1.71985">
        <ele>181.39999389648</ele>
        <time>2014-04-27T11:33:51.000Z</time>
      </trkpt>
      <trkpt lat="48.70321" lon="1.72002">
        <ele>181.39999389648</ele>
        <time>2014-04-27T11:33:57.000Z</time>
      </trkpt>
      <trkpt lat="48.70317" lon="1.72016">
        <ele>181.39999389648</ele>
        <time>2014-04-27T11:34:02.000Z</time>
      </trkpt>
      <trkpt lat="48.70314" lon="1.72027">
        <ele>181.60000610352</ele>
        <time>2014-04-27T11:34:07.000Z</time>
      </trkpt>
      <trkpt lat="48.70313" lon="1.72036">
        <ele>181.80000305176</ele>
        <time>2014-04-27T11:34:12.000Z</time>
      </trkpt>
      <trkpt lat="48.70312" lon="1.72053">
        <ele>182.39999389648</ele>
        <time>2014-04-27T11:34:19.000Z</time>
      </trkpt>
      <trkpt lat="48.70314" lon="1.72066">
        <ele>183</ele>
        <time>2014-04-27T11:34:24.000Z</time>
      </trkpt>
      <trkpt lat="48.70306" lon="1.7208">
        <ele>182.80000305176</ele>
        <time>2014-04-27T11:34:30.000Z</time>
      </trkpt>
      <trkpt lat="48.70304" lon="1.72088">
        <ele>182.80000305176</ele>
        <time>2014-04-27T11:34:34.000Z</time>
      </trkpt>
      <trkpt lat="48.70302" lon="1.72103">
        <ele>183</ele>
        <time>2014-04-27T11:34:40.000Z</time>
      </trkpt>
      <trkpt lat="48.703" lon="1.72109">
        <ele>183.19999694824</ele>
        <time>2014-04-27T11:34:43.000Z</time>
      </trkpt>
      <trkpt lat="48.70299" lon="1.7212">
        <ele>183.39999389648</ele>
        <time>2014-04-27T11:34:48.000Z</time>
      </trkpt>
      <trkpt lat="48.70301" lon="1.72137">
        <ele>184.19999694824</ele>
        <time>2014-04-27T11:34:54.000Z</time>
      </trkpt>
      <trkpt lat="48.70301" lon="1.72139">
        <ele>184.19999694824</ele>
        <time>2014-04-27T11:34:55.000Z</time>
      </trkpt>
      <trkpt lat="48.703" lon="1.72159">
        <ele>184.80000305176</ele>
        <time>2014-04-27T11:35:03.000Z</time>
      </trkpt>
      <trkpt lat="48.70298" lon="1.72172">
        <ele>184.60000610352</ele>
        <time>2014-04-27T11:35:09.000Z</time>
      </trkpt>
      <trkpt lat="48.70291" lon="1.72183">
        <ele>184.60000610352</ele>
        <time>2014-04-27T11:35:14.000Z</time>
      </trkpt>
      <trkpt lat="48.70291" lon="1.72198">
        <ele>184.80000305176</ele>
        <time>2014-04-27T11:35:20.000Z</time>
      </trkpt>
      <trkpt lat="48.7029" lon="1.72204">
        <ele>184.80000305176</ele>
        <time>2014-04-27T11:35:22.000Z</time>
      </trkpt>
      <trkpt lat="48.70289" lon="1.72215">
        <ele>185</ele>
        <time>2014-04-27T11:35:27.000Z</time>
      </trkpt>
      <trkpt lat="48.70283" lon="1.72237">
        <ele>185.19999694824</ele>
        <time>2014-04-27T11:35:36.000Z</time>
      </trkpt>
      <trkpt lat="48.70281" lon="1.72247">
        <ele>184.80000305176</ele>
        <time>2014-04-27T11:35:41.000Z</time>
      </trkpt>
      <trkpt lat="48.70278" lon="1.72251">
        <ele>184.80000305176</ele>
        <time>2014-04-27T11:35:43.000Z</time>
      </trkpt>
      <trkpt lat="48.70277" lon="1.72267">
        <ele>185</ele>
        <time>2014-04-27T11:35:50.000Z</time>
      </trkpt>
      <trkpt lat="48.70275" lon="1.72276">
        <ele>185</ele>
        <time>2014-04-27T11:35:54.000Z</time>
      </trkpt>
      <trkpt lat="48.70274" lon="1.72283">
        <ele>185</ele>
        <time>2014-04-27T11:35:58.000Z</time>
      </trkpt>
      <trkpt lat="48.70271" lon="1.72291">
        <ele>185</ele>
        <time>2014-04-27T11:36:02.000Z</time>
      </trkpt>
      <trkpt lat="48.7027" lon="1.72305">
        <ele>185</ele>
        <time>2014-04-27T11:36:09.000Z</time>
      </trkpt>
      <trkpt lat="48.70268" lon="1.72318">
        <ele>184.80000305176</ele>
        <time>2014-04-27T11:36:15.000Z</time>
      </trkpt>
      <trkpt lat="48.70267" lon="1.72337">
        <ele>184.39999389648</ele>
        <time>2014-04-27T11:36:23.000Z</time>
      </trkpt>
      <trkpt lat="48.70267" lon="1.72351">
        <ele>183.80000305176</ele>
        <time>2014-04-27T11:36:29.000Z</time>
      </trkpt>
      <trkpt lat="48.70262" lon="1.7236">
        <ele>183.39999389648</ele>
        <time>2014-04-27T11:36:34.000Z</time>
      </trkpt>
      <trkpt lat="48.70261" lon="1.72363">
        <ele>183.19999694824</ele>
        <time>2014-04-27T11:36:35.000Z</time>
      </trkpt>
      <trkpt lat="48.70249" lon="1.72374">
        <ele>182.60000610352</ele>
        <time>2014-04-27T11:36:41.000Z</time>
      </trkpt>
      <trkpt lat="48.70244" lon="1.72388">
        <ele>182.60000610352</ele>
        <time>2014-04-27T11:36:47.000Z</time>
      </trkpt>
      <trkpt lat="48.70239" lon="1.72404">
        <ele>183.39999389648</ele>
        <time>2014-04-27T11:36:54.000Z</time>
      </trkpt>
      <trkpt lat="48.70236" lon="1.72415">
        <ele>183.19999694824</ele>
        <time>2014-04-27T11:36:59.000Z</time>
      </trkpt>
      <trkpt lat="48.70236" lon="1.72422">
        <ele>183</ele>
        <time>2014-04-27T11:37:02.000Z</time>
      </trkpt>
      <trkpt lat="48.70235" lon="1.72431">
        <ele>182.60000610352</ele>
        <time>2014-04-27T11:37:06.000Z</time>
      </trkpt>
      <trkpt lat="48.7023" lon="1.72446">
        <ele>182.39999389648</ele>
        <time>2014-04-27T11:37:14.000Z</time>
      </trkpt>
      <trkpt lat="48.70223" lon="1.72461">
        <ele>182.60000610352</ele>
        <time>2014-04-27T11:37:22.000Z</time>
      </trkpt>
      <trkpt lat="48.70222" lon="1.72473">
        <ele>182.60000610352</ele>
        <time>2014-04-27T11:37:28.000Z</time>
      </trkpt>
      <trkpt lat="48.70221" lon="1.72487">
        <ele>182.60000610352</ele>
        <time>2014-04-27T11:37:34.000Z</time>
      </trkpt>
      <trkpt lat="48.70219" lon="1.72497">
        <ele>182.39999389648</ele>
        <time>2014-04-27T11:37:39.000Z</time>
      </trkpt>
      <trkpt lat="48.70216" lon="1.72506">
        <ele>182.39999389648</ele>
        <time>2014-04-27T11:37:44.000Z</time>
      </trkpt>
      <trkpt lat="48.70217" lon="1.72508">
        <ele>182.39999389648</ele>
        <time>2014-04-27T11:37:45.000Z</time>
      </trkpt>
      <trkpt lat="48.70218" lon="1.72521">
        <ele>182</ele>
        <time>2014-04-27T11:37:50.000Z</time>
      </trkpt>
      <trkpt lat="48.7022" lon="1.72534">
        <ele>181.60000610352</ele>
        <time>2014-04-27T11:37:55.000Z</time>
      </trkpt>
      <trkpt lat="48.70216" lon="1.72552">
        <ele>181.80000305176</ele>
        <time>2014-04-27T11:38:02.000Z</time>
      </trkpt>
      <trkpt lat="48.70214" lon="1.72554">
        <ele>181.80000305176</ele>
        <time>2014-04-27T11:38:03.000Z</time>
      </trkpt>
      <trkpt lat="48.70218" lon="1.72566">
        <ele>181.39999389648</ele>
        <time>2014-04-27T11:38:08.000Z</time>
      </trkpt>
      <trkpt lat="48.70216" lon="1.72576">
        <ele>181.39999389648</ele>
        <time>2014-04-27T11:38:12.000Z</time>
      </trkpt>
      <trkpt lat="48.70212" lon="1.72583">
        <ele>181.60000610352</ele>
        <time>2014-04-27T11:38:15.000Z</time>
      </trkpt>
      <trkpt lat="48.70205" lon="1.72595">
        <ele>182</ele>
        <time>2014-04-27T11:38:21.000Z</time>
      </trkpt>
      <trkpt lat="48.70201" lon="1.72607">
        <ele>181.60000610352</ele>
        <time>2014-04-27T11:38:27.000Z</time>
      </trkpt>
      <trkpt lat="48.70199" lon="1.72615">
        <ele>181.19999694824</ele>
        <time>2014-04-27T11:38:31.000Z</time>
      </trkpt>
      <trkpt lat="48.70198" lon="1.72622">
        <ele>181</ele>
        <time>2014-04-27T11:38:34.000Z</time>
      </trkpt>
      <trkpt lat="48.70201" lon="1.72631">
        <ele>180.39999389648</ele>
        <time>2014-04-27T11:38:38.000Z</time>
      </trkpt>
      <trkpt lat="48.70196" lon="1.72644">
        <ele>180</ele>
        <time>2014-04-27T11:38:44.000Z</time>
      </trkpt>
      <trkpt lat="48.7019" lon="1.72655">
        <ele>179.80000305176</ele>
        <time>2014-04-27T11:38:49.000Z</time>
      </trkpt>
      <trkpt lat="48.7019" lon="1.72666">
        <ele>179.39999389648</ele>
        <time>2014-04-27T11:38:54.000Z</time>
      </trkpt>
      <trkpt lat="48.70189" lon="1.72672">
        <ele>179.19999694824</ele>
        <time>2014-04-27T11:38:56.000Z</time>
      </trkpt>
      <trkpt lat="48.70185" lon="1.72682">
        <ele>178.60000610352</ele>
        <time>2014-04-27T11:39:00.000Z</time>
      </trkpt>
      <trkpt lat="48.70181" lon="1.72697">
        <ele>177.80000305176</ele>
        <time>2014-04-27T11:39:07.000Z</time>
      </trkpt>
      <trkpt lat="48.70181" lon="1.7271">
        <ele>177.19999694824</ele>
        <time>2014-04-27T11:39:12.000Z</time>
      </trkpt>
      <trkpt lat="48.7018" lon="1.72723">
        <ele>176.60000610352</ele>
        <time>2014-04-27T11:39:18.000Z</time>
      </trkpt>
      <trkpt lat="48.70171" lon="1.72735">
        <ele>176.80000305176</ele>
        <time>2014-04-27T11:39:24.000Z</time>
      </trkpt>
      <trkpt lat="48.7017" lon="1.72739">
        <ele>177</ele>
        <time>2014-04-27T11:39:26.000Z</time>
      </trkpt>
      <trkpt lat="48.70166" lon="1.72749">
        <ele>177</ele>
        <time>2014-04-27T11:39:31.000Z</time>
      </trkpt>
      <trkpt lat="48.70159" lon="1.72759">
        <ele>177.39999389648</ele>
        <time>2014-04-27T11:39:36.000Z</time>
      </trkpt>
      <trkpt lat="48.70154" lon="1.72769">
        <ele>177.60000610352</ele>
        <time>2014-04-27T11:39:41.000Z</time>
      </trkpt>
      <trkpt lat="48.70149" lon="1.72779">
        <ele>177.80000305176</ele>
        <time>2014-04-27T11:39:47.000Z</time>
      </trkpt>
      <trkpt lat="48.70147" lon="1.72785">
        <ele>177.80000305176</ele>
        <time>2014-04-27T11:39:50.000Z</time>
      </trkpt>
      <trkpt lat="48.70145" lon="1.72798">
        <ele>178</ele>
        <time>2014-04-27T11:39:55.000Z</time>
      </trkpt>
      <trkpt lat="48.70142" lon="1.72811">
        <ele>178.19999694824</ele>
        <time>2014-04-27T11:40:00.000Z</time>
      </trkpt>
      <trkpt lat="48.70138" lon="1.7282">
        <ele>178.60000610352</ele>
        <time>2014-04-27T11:40:04.000Z</time>
      </trkpt>
      <trkpt lat="48.70135" lon="1.72835">
        <ele>178.39999389648</ele>
        <time>2014-04-27T11:40:11.000Z</time>
      </trkpt>
      <trkpt lat="48.70131" lon="1.72843">
        <ele>178.39999389648</ele>
        <time>2014-04-27T11:40:16.000Z</time>
      </trkpt>
      <trkpt lat="48.70131" lon="1.72854">
        <ele>178.19999694824</ele>
        <time>2014-04-27T11:40:21.000Z</time>
      </trkpt>
      <trkpt lat="48.70131" lon="1.72868">
        <ele>177.80000305176</ele>
        <time>2014-04-27T11:40:27.000Z</time>
      </trkpt>
      <trkpt lat="48.70125" lon="1.72883">
        <ele>178</ele>
        <time>2014-04-27T11:40:34.000Z</time>
      </trkpt>
      <trkpt lat="48.70121" lon="1.72896">
        <ele>178</ele>
        <time>2014-04-27T11:40:41.000Z</time>
      </trkpt>
      <trkpt lat="48.70113" lon="1.72908">
        <ele>178.39999389648</ele>
        <time>2014-04-27T11:40:47.000Z</time>
      </trkpt>
      <trkpt lat="48.70108" lon="1.72921">
        <ele>179</ele>
        <time>2014-04-27T11:40:54.000Z</time>
      </trkpt>
      <trkpt lat="48.70107" lon="1.72927">
        <ele>179</ele>
        <time>2014-04-27T11:40:57.000Z</time>
      </trkpt>
      <trkpt lat="48.70109" lon="1.72938">
        <ele>179</ele>
        <time>2014-04-27T11:41:02.000Z</time>
      </trkpt>
      <trkpt lat="48.70102" lon="1.72945">
        <ele>179.60000610352</ele>
        <time>2014-04-27T11:41:06.000Z</time>
      </trkpt>
      <trkpt lat="48.70097" lon="1.72957">
        <ele>180.19999694824</ele>
        <time>2014-04-27T11:41:12.000Z</time>
      </trkpt>
      <trkpt lat="48.70093" lon="1.72965">
        <ele>180.39999389648</ele>
        <time>2014-04-27T11:41:16.000Z</time>
      </trkpt>
      <trkpt lat="48.70089" lon="1.72984">
        <ele>181.19999694824</ele>
        <time>2014-04-27T11:41:25.000Z</time>
      </trkpt>
      <trkpt lat="48.70087" lon="1.72986">
        <ele>181.60000610352</ele>
        <time>2014-04-27T11:41:27.000Z</time>
      </trkpt>
      <trkpt lat="48.70086" lon="1.72995">
        <ele>181.80000305176</ele>
        <time>2014-04-27T11:41:33.000Z</time>
      </trkpt>
      <trkpt lat="48.70086" lon="1.72997">
        <ele>181.80000305176</ele>
        <time>2014-04-27T11:41:34.000Z</time>
      </trkpt>
      <trkpt lat="48.70084" lon="1.73011">
        <ele>182.19999694824</ele>
        <time>2014-04-27T11:41:40.000Z</time>
      </trkpt>
      <trkpt lat="48.70084" lon="1.73025">
        <ele>182.39999389648</ele>
        <time>2014-04-27T11:41:46.000Z</time>
      </trkpt>
      <trkpt lat="48.70083" lon="1.73027">
        <ele>182.39999389648</ele>
        <time>2014-04-27T11:41:47.000Z</time>
      </trkpt>
      <trkpt lat="48.7008" lon="1.73041">
        <ele>183</ele>
        <time>2014-04-27T11:41:54.000Z</time>
      </trkpt>
      <trkpt lat="48.70075" lon="1.73054">
        <ele>183</ele>
        <time>2014-04-27T11:42:00.000Z</time>
      </trkpt>
      <trkpt lat="48.70068" lon="1.73066">
        <ele>183.19999694824</ele>
        <time>2014-04-27T11:42:06.000Z</time>
      </trkpt>
      <trkpt lat="48.7006" lon="1.73078">
        <ele>183.60000610352</ele>
        <time>2014-04-27T11:42:12.000Z</time>
      </trkpt>
      <trkpt lat="48.7005" lon="1.73091">
        <ele>184.19999694824</ele>
        <time>2014-04-27T11:42:19.000Z</time>
      </trkpt>
      <trkpt lat="48.70046" lon="1.73102">
        <ele>184.19999694824</ele>
        <time>2014-04-27T11:42:25.000Z</time>
      </trkpt>
      <trkpt lat="48.70045" lon="1.73105">
        <ele>184.19999694824</ele>
        <time>2014-04-27T11:42:27.000Z</time>
      </trkpt>
      <trkpt lat="48.70045" lon="1.73106">
        <ele>184.19999694824</ele>
        <time>2014-04-27T11:42:30.000Z</time>
      </trkpt>
      <trkpt lat="48.70041" lon="1.73114">
        <ele>184</ele>
        <time>2014-04-27T11:42:39.000Z</time>
      </trkpt>
      <trkpt lat="48.70036" lon="1.73126">
        <ele>183.60000610352</ele>
        <time>2014-04-27T11:42:45.000Z</time>
      </trkpt>
      <trkpt lat="48.70031" lon="1.73136">
        <ele>183.39999389648</ele>
        <time>2014-04-27T11:42:51.000Z</time>
      </trkpt>
      <trkpt lat="48.70029" lon="1.73142">
        <ele>183.19999694824</ele>
        <time>2014-04-27T11:42:54.000Z</time>
      </trkpt>
      <trkpt lat="48.70026" lon="1.73151">
        <ele>183</ele>
        <time>2014-04-27T11:42:59.000Z</time>
      </trkpt>
      <trkpt lat="48.70025" lon="1.73156">
        <ele>182.80000305176</ele>
        <time>2014-04-27T11:43:01.000Z</time>
      </trkpt>
      <trkpt lat="48.70024" lon="1.73172">
        <ele>182</ele>
        <time>2014-04-27T11:43:08.000Z</time>
      </trkpt>
      <trkpt lat="48.7002" lon="1.7318">
        <ele>181.39999389648</ele>
        <time>2014-04-27T11:43:12.000Z</time>
      </trkpt>
      <trkpt lat="48.70021" lon="1.73187">
        <ele>181</ele>
        <time>2014-04-27T11:43:16.000Z</time>
      </trkpt>
      <trkpt lat="48.70018" lon="1.73196">
        <ele>180.39999389648</ele>
        <time>2014-04-27T11:43:20.000Z</time>
      </trkpt>
      <trkpt lat="48.70016" lon="1.73209">
        <ele>179.39999389648</ele>
        <time>2014-04-27T11:43:27.000Z</time>
      </trkpt>
      <trkpt lat="48.70011" lon="1.73218">
        <ele>178.60000610352</ele>
        <time>2014-04-27T11:43:32.000Z</time>
      </trkpt>
      <trkpt lat="48.70005" lon="1.73226">
        <ele>177.80000305176</ele>
        <time>2014-04-27T11:43:37.000Z</time>
      </trkpt>
      <trkpt lat="48.69999" lon="1.73233">
        <ele>177.39999389648</ele>
        <time>2014-04-27T11:43:41.000Z</time>
      </trkpt>
      <trkpt lat="48.69992" lon="1.73239">
        <ele>177</ele>
        <time>2014-04-27T11:43:45.000Z</time>
      </trkpt>
      <trkpt lat="48.69991" lon="1.73241">
        <ele>177</ele>
        <time>2014-04-27T11:43:46.000Z</time>
      </trkpt>
      <trkpt lat="48.69988" lon="1.73245">
        <ele>177</ele>
        <time>2014-04-27T11:43:48.000Z</time>
      </trkpt>
      <trkpt lat="48.69982" lon="1.73249">
        <ele>176.80000305176</ele>
        <time>2014-04-27T11:43:53.000Z</time>
      </trkpt>
      <trkpt lat="48.69981" lon="1.73257">
        <ele>176.80000305176</ele>
        <time>2014-04-27T11:43:57.000Z</time>
      </trkpt>
      <trkpt lat="48.69976" lon="1.73271">
        <ele>176.80000305176</ele>
        <time>2014-04-27T11:44:04.000Z</time>
      </trkpt>
      <trkpt lat="48.69965" lon="1.73285">
        <ele>176.80000305176</ele>
        <time>2014-04-27T11:44:12.000Z</time>
      </trkpt>
      <trkpt lat="48.69963" lon="1.73289">
        <ele>176.80000305176</ele>
        <time>2014-04-27T11:44:14.000Z</time>
      </trkpt>
      <trkpt lat="48.6996" lon="1.73296">
        <ele>177</ele>
        <time>2014-04-27T11:44:18.000Z</time>
      </trkpt>
      <trkpt lat="48.69957" lon="1.73305">
        <ele>177.19999694824</ele>
        <time>2014-04-27T11:44:25.000Z</time>
      </trkpt>
      <trkpt lat="48.69954" lon="1.7331">
        <ele>177.19999694824</ele>
        <time>2014-04-27T11:44:28.000Z</time>
      </trkpt>
      <trkpt lat="48.69946" lon="1.73323">
        <ele>177.19999694824</ele>
        <time>2014-04-27T11:44:35.000Z</time>
      </trkpt>
      <trkpt lat="48.6994" lon="1.7333">
        <ele>177.19999694824</ele>
        <time>2014-04-27T11:44:40.000Z</time>
      </trkpt>
      <trkpt lat="48.69935" lon="1.73337">
        <ele>177.39999389648</ele>
        <time>2014-04-27T11:44:44.000Z</time>
      </trkpt>
      <trkpt lat="48.69933" lon="1.73347">
        <ele>177.60000610352</ele>
        <time>2014-04-27T11:44:49.000Z</time>
      </trkpt>
      <trkpt lat="48.69933" lon="1.73356">
        <ele>178</ele>
        <time>2014-04-27T11:44:53.000Z</time>
      </trkpt>
      <trkpt lat="48.69922" lon="1.7337">
        <ele>178.39999389648</ele>
        <time>2014-04-27T11:45:01.000Z</time>
      </trkpt>
      <trkpt lat="48.69914" lon="1.73384">
        <ele>178.80000305176</ele>
        <time>2014-04-27T11:45:09.000Z</time>
      </trkpt>
      <trkpt lat="48.69909" lon="1.73391">
        <ele>178.80000305176</ele>
        <time>2014-04-27T11:45:14.000Z</time>
      </trkpt>
      <trkpt lat="48.69903" lon="1.73403">
        <ele>179</ele>
        <time>2014-04-27T11:45:21.000Z</time>
      </trkpt>
      <trkpt lat="48.699" lon="1.7341">
        <ele>178.80000305176</ele>
        <time>2014-04-27T11:45:26.000Z</time>
      </trkpt>
      <trkpt lat="48.69893" lon="1.73422">
        <ele>178.39999389648</ele>
        <time>2014-04-27T11:45:33.000Z</time>
      </trkpt>
      <trkpt lat="48.69889" lon="1.73432">
        <ele>178</ele>
        <time>2014-04-27T11:45:39.000Z</time>
      </trkpt>
      <trkpt lat="48.69887" lon="1.73439">
        <ele>177.80000305176</ele>
        <time>2014-04-27T11:45:43.000Z</time>
      </trkpt>
      <trkpt lat="48.69885" lon="1.73451">
        <ele>177.80000305176</ele>
        <time>2014-04-27T11:45:49.000Z</time>
      </trkpt>
      <trkpt lat="48.69879" lon="1.73462">
        <ele>178</ele>
        <time>2014-04-27T11:45:55.000Z</time>
      </trkpt>
      <trkpt lat="48.69876" lon="1.73472">
        <ele>178.19999694824</ele>
        <time>2014-04-27T11:46:00.000Z</time>
      </trkpt>
      <trkpt lat="48.69875" lon="1.73476">
        <ele>178.19999694824</ele>
        <time>2014-04-27T11:46:02.000Z</time>
      </trkpt>
      <trkpt lat="48.69871" lon="1.73483">
        <ele>178.39999389648</ele>
        <time>2014-04-27T11:46:06.000Z</time>
      </trkpt>
      <trkpt lat="48.69868" lon="1.73493">
        <ele>178.39999389648</ele>
        <time>2014-04-27T11:46:13.000Z</time>
      </trkpt>
      <trkpt lat="48.69862" lon="1.73503">
        <ele>178.60000610352</ele>
        <time>2014-04-27T11:46:18.000Z</time>
      </trkpt>
      <trkpt lat="48.69858" lon="1.73508">
        <ele>178.80000305176</ele>
        <time>2014-04-27T11:46:22.000Z</time>
      </trkpt>
      <trkpt lat="48.69855" lon="1.73519">
        <ele>179</ele>
        <time>2014-04-27T11:46:28.000Z</time>
      </trkpt>
      <trkpt lat="48.69842" lon="1.73528">
        <ele>179.19999694824</ele>
        <time>2014-04-27T11:46:34.000Z</time>
      </trkpt>
      <trkpt lat="48.69843" lon="1.73529">
        <ele>179.19999694824</ele>
        <time>2014-04-27T11:46:35.000Z</time>
      </trkpt>
      <trkpt lat="48.69844" lon="1.73532">
        <ele>179.19999694824</ele>
        <time>2014-04-27T11:46:37.000Z</time>
      </trkpt>
      <trkpt lat="48.69848" lon="1.7354">
        <ele>179.19999694824</ele>
        <time>2014-04-27T11:46:41.000Z</time>
      </trkpt>
      <trkpt lat="48.69846" lon="1.73545">
        <ele>179.19999694824</ele>
        <time>2014-04-27T11:46:44.000Z</time>
      </trkpt>
      <trkpt lat="48.69835" lon="1.7356">
        <ele>179.39999389648</ele>
        <time>2014-04-27T11:46:51.000Z</time>
      </trkpt>
      <trkpt lat="48.69832" lon="1.73562">
        <ele>179.39999389648</ele>
        <time>2014-04-27T11:46:53.000Z</time>
      </trkpt>
      <trkpt lat="48.69824" lon="1.73574">
        <ele>179.39999389648</ele>
        <time>2014-04-27T11:47:00.000Z</time>
      </trkpt>
      <trkpt lat="48.69818" lon="1.73584">
        <ele>179.39999389648</ele>
        <time>2014-04-27T11:47:05.000Z</time>
      </trkpt>
      <trkpt lat="48.69813" lon="1.73591">
        <ele>179.39999389648</ele>
        <time>2014-04-27T11:47:09.000Z</time>
      </trkpt>
      <trkpt lat="48.69807" lon="1.736">
        <ele>179.60000610352</ele>
        <time>2014-04-27T11:47:15.000Z</time>
      </trkpt>
      <trkpt lat="48.69806" lon="1.73614">
        <ele>179.60000610352</ele>
        <time>2014-04-27T11:47:22.000Z</time>
      </trkpt>
      <trkpt lat="48.69805" lon="1.73624">
        <ele>179.60000610352</ele>
        <time>2014-04-27T11:47:27.000Z</time>
      </trkpt>
      <trkpt lat="48.698" lon="1.73633">
        <ele>179.60000610352</ele>
        <time>2014-04-27T11:47:32.000Z</time>
      </trkpt>
      <trkpt lat="48.69795" lon="1.73645">
        <ele>179.60000610352</ele>
        <time>2014-04-27T11:47:38.000Z</time>
      </trkpt>
      <trkpt lat="48.69792" lon="1.7365">
        <ele>179.80000305176</ele>
        <time>2014-04-27T11:47:42.000Z</time>
      </trkpt>
      <trkpt lat="48.69791" lon="1.73656">
        <ele>179.80000305176</ele>
        <time>2014-04-27T11:47:46.000Z</time>
      </trkpt>
      <trkpt lat="48.69785" lon="1.73667">
        <ele>179.60000610352</ele>
        <time>2014-04-27T11:47:52.000Z</time>
      </trkpt>
      <trkpt lat="48.69775" lon="1.73681">
        <ele>179</ele>
        <time>2014-04-27T11:47:59.000Z</time>
      </trkpt>
      <trkpt lat="48.69773" lon="1.73685">
        <ele>179</ele>
        <time>2014-04-27T11:48:01.000Z</time>
      </trkpt>
      <trkpt lat="48.69768" lon="1.73693">
        <ele>178.60000610352</ele>
        <time>2014-04-27T11:48:06.000Z</time>
      </trkpt>
      <trkpt lat="48.69767" lon="1.73696">
        <ele>178.39999389648</ele>
        <time>2014-04-27T11:48:08.000Z</time>
      </trkpt>
      <trkpt lat="48.69761" lon="1.73704">
        <ele>178.19999694824</ele>
        <time>2014-04-27T11:48:13.000Z</time>
      </trkpt>
      <trkpt lat="48.69756" lon="1.73715">
        <ele>177.80000305176</ele>
        <time>2014-04-27T11:48:19.000Z</time>
      </trkpt>
      <trkpt lat="48.6975" lon="1.73727">
        <ele>177.60000610352</ele>
        <time>2014-04-27T11:48:27.000Z</time>
      </trkpt>
      <trkpt lat="48.69746" lon="1.73742">
        <ele>177.39999389648</ele>
        <time>2014-04-27T11:48:35.000Z</time>
      </trkpt>
      <trkpt lat="48.69744" lon="1.73757">
        <ele>177.19999694824</ele>
        <time>2014-04-27T11:48:44.000Z</time>
      </trkpt>
      <trkpt lat="48.6974" lon="1.73766">
        <ele>177</ele>
        <time>2014-04-27T11:48:49.000Z</time>
      </trkpt>
      <trkpt lat="48.69732" lon="1.73777">
        <ele>177</ele>
        <time>2014-04-27T11:48:56.000Z</time>
      </trkpt>
      <trkpt lat="48.69731" lon="1.7378">
        <ele>177</ele>
        <time>2014-04-27T11:48:58.000Z</time>
      </trkpt>
      <trkpt lat="48.6972" lon="1.73794">
        <ele>176.80000305176</ele>
        <time>2014-04-27T11:49:05.000Z</time>
      </trkpt>
      <trkpt lat="48.69712" lon="1.73802">
        <ele>176.80000305176</ele>
        <time>2014-04-27T11:49:10.000Z</time>
      </trkpt>
      <trkpt lat="48.69709" lon="1.73807">
        <ele>176.80000305176</ele>
        <time>2014-04-27T11:49:13.000Z</time>
      </trkpt>
      <trkpt lat="48.6971" lon="1.73812">
        <ele>176.60000610352</ele>
        <time>2014-04-27T11:49:15.000Z</time>
      </trkpt>
      <trkpt lat="48.6971" lon="1.7382">
        <ele>176.39999389648</ele>
        <time>2014-04-27T11:49:19.000Z</time>
      </trkpt>
      <trkpt lat="48.69703" lon="1.73827">
        <ele>176.60000610352</ele>
        <time>2014-04-27T11:49:24.000Z</time>
      </trkpt>
      <trkpt lat="48.69694" lon="1.73839">
        <ele>176.60000610352</ele>
        <time>2014-04-27T11:49:31.000Z</time>
      </trkpt>
      <trkpt lat="48.69686" lon="1.7385">
        <ele>176.60000610352</ele>
        <time>2014-04-27T11:49:38.000Z</time>
      </trkpt>
      <trkpt lat="48.69677" lon="1.73867">
        <ele>176.80000305176</ele>
        <time>2014-04-27T11:49:46.000Z</time>
      </trkpt>
      <trkpt lat="48.6967" lon="1.7388">
        <ele>177</ele>
        <time>2014-04-27T11:49:54.000Z</time>
      </trkpt>
      <trkpt lat="48.69665" lon="1.7389">
        <ele>177.39999389648</ele>
        <time>2014-04-27T11:50:01.000Z</time>
      </trkpt>
      <trkpt lat="48.69656" lon="1.73908">
        <ele>178.19999694824</ele>
        <time>2014-04-27T11:50:07.000Z</time>
      </trkpt>
      <trkpt lat="48.69647" lon="1.73929">
        <ele>178.19999694824</ele>
        <time>2014-04-27T11:50:12.000Z</time>
      </trkpt>
      <trkpt lat="48.69637" lon="1.73946">
        <ele>178.60000610352</ele>
        <time>2014-04-27T11:50:17.000Z</time>
      </trkpt>
      <trkpt lat="48.69625" lon="1.7397">
        <ele>178.80000305176</ele>
        <time>2014-04-27T11:50:23.000Z</time>
      </trkpt>
      <trkpt lat="48.69615" lon="1.73988">
        <ele>179.19999694824</ele>
        <time>2014-04-27T11:50:28.000Z</time>
      </trkpt>
      <trkpt lat="48.69606" lon="1.74002">
        <ele>179.39999389648</ele>
        <time>2014-04-27T11:50:33.000Z</time>
      </trkpt>
      <trkpt lat="48.69595" lon="1.7402">
        <ele>179.39999389648</ele>
        <time>2014-04-27T11:50:38.000Z</time>
      </trkpt>
      <trkpt lat="48.69585" lon="1.74039">
        <ele>179.19999694824</ele>
        <time>2014-04-27T11:50:43.000Z</time>
      </trkpt>
      <trkpt lat="48.69575" lon="1.7406">
        <ele>179</ele>
        <time>2014-04-27T11:50:48.000Z</time>
      </trkpt>
      <trkpt lat="48.69565" lon="1.74082">
        <ele>178.80000305176</ele>
        <time>2014-04-27T11:50:53.000Z</time>
      </trkpt>
      <trkpt lat="48.69555" lon="1.74101">
        <ele>178.80000305176</ele>
        <time>2014-04-27T11:50:58.000Z</time>
      </trkpt>
      <trkpt lat="48.69547" lon="1.74118">
        <ele>178.60000610352</ele>
        <time>2014-04-27T11:51:02.000Z</time>
      </trkpt>
      <trkpt lat="48.69536" lon="1.74143">
        <ele>178</ele>
        <time>2014-04-27T11:51:07.000Z</time>
      </trkpt>
      <trkpt lat="48.69526" lon="1.74163">
        <ele>177.60000610352</ele>
        <time>2014-04-27T11:51:12.000Z</time>
      </trkpt>
      <trkpt lat="48.69516" lon="1.74183">
        <ele>175.60000610352</ele>
        <time>2014-04-27T11:51:17.000Z</time>
      </trkpt>
      <trkpt lat="48.69499" lon="1.74213">
        <ele>171</ele>
        <time>2014-04-27T11:51:23.000Z</time>
      </trkpt>
      <trkpt lat="48.69489" lon="1.74234">
        <ele>169.60000610352</ele>
        <time>2014-04-27T11:51:28.000Z</time>
      </trkpt>
      <trkpt lat="48.69479" lon="1.74258">
        <ele>168.80000305176</ele>
        <time>2014-04-27T11:51:33.000Z</time>
      </trkpt>
      <trkpt lat="48.69464" lon="1.74288">
        <ele>167.80000305176</ele>
        <time>2014-04-27T11:51:39.000Z</time>
      </trkpt>
      <trkpt lat="48.6945" lon="1.74315">
        <ele>167.19999694824</ele>
        <time>2014-04-27T11:51:45.000Z</time>
      </trkpt>
      <trkpt lat="48.6944" lon="1.74337">
        <ele>166.80000305176</ele>
        <time>2014-04-27T11:51:50.000Z</time>
      </trkpt>
      <trkpt lat="48.69431" lon="1.74354">
        <ele>167.19999694824</ele>
        <time>2014-04-27T11:51:54.000Z</time>
      </trkpt>
      <trkpt lat="48.69417" lon="1.74381">
        <ele>167.60000610352</ele>
        <time>2014-04-27T11:52:00.000Z</time>
      </trkpt>
      <trkpt lat="48.69403" lon="1.7441">
        <ele>168.60000610352</ele>
        <time>2014-04-27T11:52:05.000Z</time>
      </trkpt>
      <trkpt lat="48.69392" lon="1.74433">
        <ele>168.60000610352</ele>
        <time>2014-04-27T11:52:09.000Z</time>
      </trkpt>
      <trkpt lat="48.69374" lon="1.74464">
        <ele>168</ele>
        <time>2014-04-27T11:52:15.000Z</time>
      </trkpt>
      <trkpt lat="48.69356" lon="1.74501">
        <ele>167.19999694824</ele>
        <time>2014-04-27T11:52:22.000Z</time>
      </trkpt>
      <trkpt lat="48.69351" lon="1.74512">
        <ele>167.39999389648</ele>
        <time>2014-04-27T11:52:24.000Z</time>
      </trkpt>
      <trkpt lat="48.69342" lon="1.74527">
        <ele>167.80000305176</ele>
        <time>2014-04-27T11:52:27.000Z</time>
      </trkpt>
      <trkpt lat="48.69331" lon="1.74552">
        <ele>168.19999694824</ele>
        <time>2014-04-27T11:52:32.000Z</time>
      </trkpt>
      <trkpt lat="48.69323" lon="1.74568">
        <ele>168.39999389648</ele>
        <time>2014-04-27T11:52:35.000Z</time>
      </trkpt>
      <trkpt lat="48.69321" lon="1.74598">
        <ele>168</ele>
        <time>2014-04-27T11:52:40.000Z</time>
      </trkpt>
      <trkpt lat="48.69332" lon="1.74623">
        <ele>167.60000610352</ele>
        <time>2014-04-27T11:52:44.000Z</time>
      </trkpt>
      <trkpt lat="48.69334" lon="1.7463">
        <ele>167.60000610352</ele>
        <time>2014-04-27T11:52:45.000Z</time>
      </trkpt>
      <trkpt lat="48.6934" lon="1.74649">
        <ele>167.19999694824</ele>
        <time>2014-04-27T11:52:48.000Z</time>
      </trkpt>
      <trkpt lat="48.69344" lon="1.74665">
        <ele>167.19999694824</ele>
        <time>2014-04-27T11:52:51.000Z</time>
      </trkpt>
      <trkpt lat="48.69354" lon="1.74692">
        <ele>167</ele>
        <time>2014-04-27T11:52:57.000Z</time>
      </trkpt>
      <trkpt lat="48.69356" lon="1.74695">
        <ele>167</ele>
        <time>2014-04-27T11:52:58.000Z</time>
      </trkpt>
      <trkpt lat="48.69358" lon="1.747">
        <ele>166.80000305176</ele>
        <time>2014-04-27T11:53:00.000Z</time>
      </trkpt>
      <trkpt lat="48.69358" lon="1.74718">
        <ele>166.80000305176</ele>
        <time>2014-04-27T11:53:07.000Z</time>
      </trkpt>
      <trkpt lat="48.69359" lon="1.74726">
        <ele>166.80000305176</ele>
        <time>2014-04-27T11:53:11.000Z</time>
      </trkpt>
      <trkpt lat="48.69364" lon="1.7474">
        <ele>166.60000610352</ele>
        <time>2014-04-27T11:53:17.000Z</time>
      </trkpt>
      <trkpt lat="48.69375" lon="1.74759">
        <ele>165.80000305176</ele>
        <time>2014-04-27T11:53:24.000Z</time>
      </trkpt>
      <trkpt lat="48.69378" lon="1.74777">
        <ele>164.60000610352</ele>
        <time>2014-04-27T11:53:31.000Z</time>
      </trkpt>
      <trkpt lat="48.69379" lon="1.74781">
        <ele>164.39999389648</ele>
        <time>2014-04-27T11:53:33.000Z</time>
      </trkpt>
      <trkpt lat="48.69385" lon="1.74798">
        <ele>163.39999389648</ele>
        <time>2014-04-27T11:53:40.000Z</time>
      </trkpt>
      <trkpt lat="48.69391" lon="1.74815">
        <ele>162.39999389648</ele>
        <time>2014-04-27T11:53:47.000Z</time>
      </trkpt>
      <trkpt lat="48.69394" lon="1.74824">
        <ele>162.19999694824</ele>
        <time>2014-04-27T11:53:51.000Z</time>
      </trkpt>
      <trkpt lat="48.69394" lon="1.74838">
        <ele>162.60000610352</ele>
        <time>2014-04-27T11:53:57.000Z</time>
      </trkpt>
      <trkpt lat="48.69394" lon="1.74849">
        <ele>163</ele>
        <time>2014-04-27T11:54:01.000Z</time>
      </trkpt>
      <trkpt lat="48.69398" lon="1.74855">
        <ele>163.19999694824</ele>
        <time>2014-04-27T11:54:05.000Z</time>
      </trkpt>
      <trkpt lat="48.69404" lon="1.74866">
        <ele>163.60000610352</ele>
        <time>2014-04-27T11:54:11.000Z</time>
      </trkpt>
      <trkpt lat="48.69405" lon="1.74873">
        <ele>163.80000305176</ele>
        <time>2014-04-27T11:54:14.000Z</time>
      </trkpt>
      <trkpt lat="48.69405" lon="1.7489">
        <ele>163.60000610352</ele>
        <time>2014-04-27T11:54:21.000Z</time>
      </trkpt>
      <trkpt lat="48.69405" lon="1.74903">
        <ele>163.39999389648</ele>
        <time>2014-04-27T11:54:27.000Z</time>
      </trkpt>
      <trkpt lat="48.69405" lon="1.74905">
        <ele>163.60000610352</ele>
        <time>2014-04-27T11:54:28.000Z</time>
      </trkpt>
      <trkpt lat="48.69414" lon="1.74917">
        <ele>164.39999389648</ele>
        <time>2014-04-27T11:54:34.000Z</time>
      </trkpt>
      <trkpt lat="48.69416" lon="1.74929">
        <ele>165</ele>
        <time>2014-04-27T11:54:39.000Z</time>
      </trkpt>
      <trkpt lat="48.69418" lon="1.74931">
        <ele>165</ele>
        <time>2014-04-27T11:54:40.000Z</time>
      </trkpt>
      <trkpt lat="48.69425" lon="1.74943">
        <ele>165.80000305176</ele>
        <time>2014-04-27T11:54:46.000Z</time>
      </trkpt>
      <trkpt lat="48.69427" lon="1.74956">
        <ele>166.39999389648</ele>
        <time>2014-04-27T11:54:52.000Z</time>
      </trkpt>
      <trkpt lat="48.69429" lon="1.74963">
        <ele>166.80000305176</ele>
        <time>2014-04-27T11:54:55.000Z</time>
      </trkpt>
      <trkpt lat="48.6943" lon="1.74969">
        <ele>167</ele>
        <time>2014-04-27T11:54:58.000Z</time>
      </trkpt>
      <trkpt lat="48.69432" lon="1.74977">
        <ele>167.39999389648</ele>
        <time>2014-04-27T11:55:02.000Z</time>
      </trkpt>
      <trkpt lat="48.69436" lon="1.74987">
        <ele>168</ele>
        <time>2014-04-27T11:55:07.000Z</time>
      </trkpt>
      <trkpt lat="48.69437" lon="1.75">
        <ele>168</ele>
        <time>2014-04-27T11:55:14.000Z</time>
      </trkpt>
      <trkpt lat="48.69438" lon="1.75014">
        <ele>168</ele>
        <time>2014-04-27T11:55:21.000Z</time>
      </trkpt>
      <trkpt lat="48.69438" lon="1.75024">
        <ele>168</ele>
        <time>2014-04-27T11:55:27.000Z</time>
      </trkpt>
      <trkpt lat="48.6944" lon="1.75035">
        <ele>168</ele>
        <time>2014-04-27T11:55:32.000Z</time>
      </trkpt>
      <trkpt lat="48.69446" lon="1.75052">
        <ele>167.80000305176</ele>
        <time>2014-04-27T11:55:39.000Z</time>
      </trkpt>
      <trkpt lat="48.69451" lon="1.75073">
        <ele>167.60000610352</ele>
        <time>2014-04-27T11:55:47.000Z</time>
      </trkpt>
      <trkpt lat="48.69454" lon="1.75083">
        <ele>167.19999694824</ele>
        <time>2014-04-27T11:55:52.000Z</time>
      </trkpt>
      <trkpt lat="48.6946" lon="1.751">
        <ele>166.60000610352</ele>
        <time>2014-04-27T11:55:59.000Z</time>
      </trkpt>
      <trkpt lat="48.69464" lon="1.75107">
        <ele>166.39999389648</ele>
        <time>2014-04-27T11:56:03.000Z</time>
      </trkpt>
      <trkpt lat="48.69464" lon="1.7511">
        <ele>166.19999694824</ele>
        <time>2014-04-27T11:56:05.000Z</time>
      </trkpt>
      <trkpt lat="48.69469" lon="1.75125">
        <ele>165.60000610352</ele>
        <time>2014-04-27T11:56:11.000Z</time>
      </trkpt>
      <trkpt lat="48.69471" lon="1.75132">
        <ele>165.39999389648</ele>
        <time>2014-04-27T11:56:14.000Z</time>
      </trkpt>
      <trkpt lat="48.69472" lon="1.75142">
        <ele>165</ele>
        <time>2014-04-27T11:56:19.000Z</time>
      </trkpt>
      <trkpt lat="48.69475" lon="1.75153">
        <ele>164.60000610352</ele>
        <time>2014-04-27T11:56:24.000Z</time>
      </trkpt>
      <trkpt lat="48.69479" lon="1.75169">
        <ele>164</ele>
        <time>2014-04-27T11:56:31.000Z</time>
      </trkpt>
      <trkpt lat="48.6948" lon="1.75187">
        <ele>163.39999389648</ele>
        <time>2014-04-27T11:56:38.000Z</time>
      </trkpt>
      <trkpt lat="48.69483" lon="1.75204">
        <ele>162.60000610352</ele>
        <time>2014-04-27T11:56:46.000Z</time>
      </trkpt>
      <trkpt lat="48.69487" lon="1.75219">
        <ele>161.60000610352</ele>
        <time>2014-04-27T11:56:53.000Z</time>
      </trkpt>
      <trkpt lat="48.69491" lon="1.75232">
        <ele>161</ele>
        <time>2014-04-27T11:56:59.000Z</time>
      </trkpt>
      <trkpt lat="48.69494" lon="1.7524">
        <ele>160.60000610352</ele>
        <time>2014-04-27T11:57:02.000Z</time>
      </trkpt>
      <trkpt lat="48.69498" lon="1.75247">
        <ele>160.19999694824</ele>
        <time>2014-04-27T11:57:06.000Z</time>
      </trkpt>
      <trkpt lat="48.69501" lon="1.75266">
        <ele>159.39999389648</ele>
        <time>2014-04-27T11:57:14.000Z</time>
      </trkpt>
      <trkpt lat="48.69504" lon="1.75277">
        <ele>159</ele>
        <time>2014-04-27T11:57:19.000Z</time>
      </trkpt>
      <trkpt lat="48.69505" lon="1.75282">
        <ele>158.60000610352</ele>
        <time>2014-04-27T11:57:21.000Z</time>
      </trkpt>
      <trkpt lat="48.69508" lon="1.75294">
        <ele>158.19999694824</ele>
        <time>2014-04-27T11:57:27.000Z</time>
      </trkpt>
      <trkpt lat="48.69508" lon="1.75299">
        <ele>157.80000305176</ele>
        <time>2014-04-27T11:57:29.000Z</time>
      </trkpt>
      <trkpt lat="48.69509" lon="1.75313">
        <ele>157.19999694824</ele>
        <time>2014-04-27T11:57:35.000Z</time>
      </trkpt>
      <trkpt lat="48.69511" lon="1.75325">
        <ele>156.60000610352</ele>
        <time>2014-04-27T11:57:40.000Z</time>
      </trkpt>
      <trkpt lat="48.69512" lon="1.75339">
        <ele>156.19999694824</ele>
        <time>2014-04-27T11:57:46.000Z</time>
      </trkpt>
      <trkpt lat="48.69513" lon="1.75343">
        <ele>156</ele>
        <time>2014-04-27T11:57:48.000Z</time>
      </trkpt>
      <trkpt lat="48.69523" lon="1.75365">
        <ele>155.60000610352</ele>
        <time>2014-04-27T11:57:54.000Z</time>
      </trkpt>
      <trkpt lat="48.69536" lon="1.75391">
        <ele>155.19999694824</ele>
        <time>2014-04-27T11:57:58.000Z</time>
      </trkpt>
      <trkpt lat="48.69539" lon="1.75399">
        <ele>155.19999694824</ele>
        <time>2014-04-27T11:57:59.000Z</time>
      </trkpt>
      <trkpt lat="48.69552" lon="1.75453">
        <ele>154.80000305176</ele>
        <time>2014-04-27T11:58:05.000Z</time>
      </trkpt>
      <trkpt lat="48.69563" lon="1.75493">
        <ele>155</ele>
        <time>2014-04-27T11:58:10.000Z</time>
      </trkpt>
      <trkpt lat="48.69567" lon="1.75507">
        <ele>155.19999694824</ele>
        <time>2014-04-27T11:58:12.000Z</time>
      </trkpt>
      <trkpt lat="48.6957" lon="1.7552">
        <ele>155.19999694824</ele>
        <time>2014-04-27T11:58:14.000Z</time>
      </trkpt>
      <trkpt lat="48.69576" lon="1.75541">
        <ele>155.39999389648</ele>
        <time>2014-04-27T11:58:18.000Z</time>
      </trkpt>
      <trkpt lat="48.69584" lon="1.75538">
        <ele>155.60000610352</ele>
        <time>2014-04-27T11:58:22.000Z</time>
      </trkpt>
      <trkpt lat="48.69589" lon="1.75536">
        <ele>155.60000610352</ele>
        <time>2014-04-27T11:58:27.000Z</time>
      </trkpt>
      <trkpt lat="48.69588" lon="1.75536">
        <ele>155.60000610352</ele>
        <time>2014-04-27T11:58:28.000Z</time>
      </trkpt>
      <trkpt lat="48.6959" lon="1.75535">
        <ele>155.60000610352</ele>
        <time>2014-04-27T11:58:31.000Z</time>
      </trkpt>
      <trkpt lat="48.69594" lon="1.75532">
        <ele>155.80000305176</ele>
        <time>2014-04-27T11:58:35.000Z</time>
      </trkpt>
      <trkpt lat="48.696" lon="1.75526">
        <ele>156</ele>
        <time>2014-04-27T11:58:41.000Z</time>
      </trkpt>
      <trkpt lat="48.6961" lon="1.75522">
        <ele>156</ele>
        <time>2014-04-27T11:58:49.000Z</time>
      </trkpt>
      <trkpt lat="48.69611" lon="1.75521">
        <ele>156</ele>
        <time>2014-04-27T11:58:50.000Z</time>
      </trkpt>
      <trkpt lat="48.6962" lon="1.75518">
        <ele>156.19999694824</ele>
        <time>2014-04-27T11:58:56.000Z</time>
      </trkpt>
      <trkpt lat="48.69623" lon="1.75517">
        <ele>156.19999694824</ele>
        <time>2014-04-27T11:59:01.000Z</time>
      </trkpt>
      <trkpt lat="48.6963" lon="1.75512">
        <ele>156.39999389648</ele>
        <time>2014-04-27T11:59:16.000Z</time>
      </trkpt>
      <trkpt lat="48.69633" lon="1.75508">
        <ele>156.60000610352</ele>
        <time>2014-04-27T11:59:18.000Z</time>
      </trkpt>
      <trkpt lat="48.69645" lon="1.75503">
        <ele>157.19999694824</ele>
        <time>2014-04-27T11:59:27.000Z</time>
      </trkpt>
      <trkpt lat="48.69652" lon="1.75498">
        <ele>157.60000610352</ele>
        <time>2014-04-27T11:59:32.000Z</time>
      </trkpt>
      <trkpt lat="48.6966" lon="1.75496">
        <ele>157.80000305176</ele>
        <time>2014-04-27T11:59:36.000Z</time>
      </trkpt>
      <trkpt lat="48.69672" lon="1.75491">
        <ele>158.39999389648</ele>
        <time>2014-04-27T11:59:44.000Z</time>
      </trkpt>
      <trkpt lat="48.69683" lon="1.75488">
        <ele>158.80000305176</ele>
        <time>2014-04-27T11:59:50.000Z</time>
      </trkpt>
      <trkpt lat="48.69695" lon="1.75481">
        <ele>159.80000305176</ele>
        <time>2014-04-27T11:59:59.000Z</time>
      </trkpt>
      <trkpt lat="48.69703" lon="1.75476">
        <ele>160.39999389648</ele>
        <time>2014-04-27T12:00:05.000Z</time>
      </trkpt>
      <trkpt lat="48.69715" lon="1.7547">
        <ele>161.19999694824</ele>
        <time>2014-04-27T12:00:13.000Z</time>
      </trkpt>
      <trkpt lat="48.69726" lon="1.75466">
        <ele>162</ele>
        <time>2014-04-27T12:00:20.000Z</time>
      </trkpt>
      <trkpt lat="48.69737" lon="1.75462">
        <ele>162.60000610352</ele>
        <time>2014-04-27T12:00:26.000Z</time>
      </trkpt>
      <trkpt lat="48.69748" lon="1.75458">
        <ele>163.39999389648</ele>
        <time>2014-04-27T12:00:33.000Z</time>
      </trkpt>
      <trkpt lat="48.69756" lon="1.75449">
        <ele>164.19999694824</ele>
        <time>2014-04-27T12:00:40.000Z</time>
      </trkpt>
      <trkpt lat="48.69767" lon="1.75443">
        <ele>165</ele>
        <time>2014-04-27T12:00:47.000Z</time>
      </trkpt>
      <trkpt lat="48.69777" lon="1.75434">
        <ele>165.80000305176</ele>
        <time>2014-04-27T12:00:54.000Z</time>
      </trkpt>
      <trkpt lat="48.69784" lon="1.7543">
        <ele>166.39999389648</ele>
        <time>2014-04-27T12:01:00.000Z</time>
      </trkpt>
      <trkpt lat="48.69794" lon="1.75427">
        <ele>167</ele>
        <time>2014-04-27T12:01:07.000Z</time>
      </trkpt>
      <trkpt lat="48.69801" lon="1.75422">
        <ele>167.39999389648</ele>
        <time>2014-04-27T12:01:13.000Z</time>
      </trkpt>
      <trkpt lat="48.6981" lon="1.75418">
        <ele>168</ele>
        <time>2014-04-27T12:01:18.000Z</time>
      </trkpt>
      <trkpt lat="48.6981" lon="1.75418">
        <ele>168</ele>
        <time>2014-04-27T12:01:19.000Z</time>
      </trkpt>
      <trkpt lat="48.69817" lon="1.75411">
        <ele>168.39999389648</ele>
        <time>2014-04-27T12:01:24.000Z</time>
      </trkpt>
      <trkpt lat="48.69824" lon="1.75405">
        <ele>169</ele>
        <time>2014-04-27T12:01:31.000Z</time>
      </trkpt>
      <trkpt lat="48.69834" lon="1.75398">
        <ele>169.39999389648</ele>
        <time>2014-04-27T12:01:38.000Z</time>
      </trkpt>
      <trkpt lat="48.69848" lon="1.7539">
        <ele>170</ele>
        <time>2014-04-27T12:01:47.000Z</time>
      </trkpt>
      <trkpt lat="48.69862" lon="1.75383">
        <ele>170.80000305176</ele>
        <time>2014-04-27T12:01:56.000Z</time>
      </trkpt>
      <trkpt lat="48.69874" lon="1.75381">
        <ele>171</ele>
        <time>2014-04-27T12:02:03.000Z</time>
      </trkpt>
      <trkpt lat="48.69884" lon="1.7538">
        <ele>171.39999389648</ele>
        <time>2014-04-27T12:02:09.000Z</time>
      </trkpt>
      <trkpt lat="48.69892" lon="1.75378">
        <ele>171.60000610352</ele>
        <time>2014-04-27T12:02:14.000Z</time>
      </trkpt>
      <trkpt lat="48.69901" lon="1.75374">
        <ele>171.80000305176</ele>
        <time>2014-04-27T12:02:20.000Z</time>
      </trkpt>
      <trkpt lat="48.69914" lon="1.7537">
        <ele>172.19999694824</ele>
        <time>2014-04-27T12:02:26.000Z</time>
      </trkpt>
      <trkpt lat="48.69922" lon="1.75367">
        <ele>172.19999694824</ele>
        <time>2014-04-27T12:02:30.000Z</time>
      </trkpt>
      <trkpt lat="48.69935" lon="1.75361">
        <ele>172.39999389648</ele>
        <time>2014-04-27T12:02:38.000Z</time>
      </trkpt>
      <trkpt lat="48.69938" lon="1.7536">
        <ele>172.39999389648</ele>
        <time>2014-04-27T12:02:40.000Z</time>
      </trkpt>
      <trkpt lat="48.69945" lon="1.7536">
        <ele>172.19999694824</ele>
        <time>2014-04-27T12:02:45.000Z</time>
      </trkpt>
      <trkpt lat="48.69949" lon="1.75358">
        <ele>172</ele>
        <time>2014-04-27T12:02:48.000Z</time>
      </trkpt>
      <trkpt lat="48.69952" lon="1.75357">
        <ele>171.80000305176</ele>
        <time>2014-04-27T12:02:50.000Z</time>
      </trkpt>
      <trkpt lat="48.69961" lon="1.75352">
        <ele>171.39999389648</ele>
        <time>2014-04-27T12:02:58.000Z</time>
      </trkpt>
      <trkpt lat="48.69967" lon="1.75348">
        <ele>171.39999389648</ele>
        <time>2014-04-27T12:03:02.000Z</time>
      </trkpt>
      <trkpt lat="48.69974" lon="1.75345">
        <ele>171.39999389648</ele>
        <time>2014-04-27T12:03:08.000Z</time>
      </trkpt>
      <trkpt lat="48.69982" lon="1.75344">
        <ele>171.39999389648</ele>
        <time>2014-04-27T12:03:13.000Z</time>
      </trkpt>
      <trkpt lat="48.69992" lon="1.75341">
        <ele>171.39999389648</ele>
        <time>2014-04-27T12:03:19.000Z</time>
      </trkpt>
      <trkpt lat="48.7" lon="1.75339">
        <ele>171.39999389648</ele>
        <time>2014-04-27T12:03:24.000Z</time>
      </trkpt>
      <trkpt lat="48.70011" lon="1.75331">
        <ele>171.60000610352</ele>
        <time>2014-04-27T12:03:30.000Z</time>
      </trkpt>
      <trkpt lat="48.70019" lon="1.75328">
        <ele>171.60000610352</ele>
        <time>2014-04-27T12:03:35.000Z</time>
      </trkpt>
      <trkpt lat="48.70028" lon="1.75326">
        <ele>171.80000305176</ele>
        <time>2014-04-27T12:03:41.000Z</time>
      </trkpt>
      <trkpt lat="48.70038" lon="1.75325">
        <ele>172</ele>
        <time>2014-04-27T12:03:47.000Z</time>
      </trkpt>
      <trkpt lat="48.70041" lon="1.75322">
        <ele>172.19999694824</ele>
        <time>2014-04-27T12:03:50.000Z</time>
      </trkpt>
      <trkpt lat="48.70049" lon="1.75317">
        <ele>172.39999389648</ele>
        <time>2014-04-27T12:03:57.000Z</time>
      </trkpt>
      <trkpt lat="48.70056" lon="1.75313">
        <ele>172.60000610352</ele>
        <time>2014-04-27T12:04:03.000Z</time>
      </trkpt>
      <trkpt lat="48.70065" lon="1.7531">
        <ele>172.80000305176</ele>
        <time>2014-04-27T12:04:09.000Z</time>
      </trkpt>
      <trkpt lat="48.70074" lon="1.75304">
        <ele>173</ele>
        <time>2014-04-27T12:04:15.000Z</time>
      </trkpt>
      <trkpt lat="48.70075" lon="1.75303">
        <ele>173</ele>
        <time>2014-04-27T12:04:16.000Z</time>
      </trkpt>
      <trkpt lat="48.70083" lon="1.75297">
        <ele>173.39999389648</ele>
        <time>2014-04-27T12:04:22.000Z</time>
      </trkpt>
      <trkpt lat="48.70091" lon="1.75293">
        <ele>173.60000610352</ele>
        <time>2014-04-27T12:04:28.000Z</time>
      </trkpt>
      <trkpt lat="48.70096" lon="1.75292">
        <ele>173.60000610352</ele>
        <time>2014-04-27T12:04:31.000Z</time>
      </trkpt>
      <trkpt lat="48.70103" lon="1.7529">
        <ele>173.80000305176</ele>
        <time>2014-04-27T12:04:37.000Z</time>
      </trkpt>
      <trkpt lat="48.70113" lon="1.75286">
        <ele>174.19999694824</ele>
        <time>2014-04-27T12:04:43.000Z</time>
      </trkpt>
      <trkpt lat="48.70124" lon="1.75282">
        <ele>174.60000610352</ele>
        <time>2014-04-27T12:04:49.000Z</time>
      </trkpt>
      <trkpt lat="48.70133" lon="1.75277">
        <ele>175.19999694824</ele>
        <time>2014-04-27T12:04:55.000Z</time>
      </trkpt>
      <trkpt lat="48.70138" lon="1.75275">
        <ele>175.39999389648</ele>
        <time>2014-04-27T12:05:00.000Z</time>
      </trkpt>
      <trkpt lat="48.70146" lon="1.75271">
        <ele>175.60000610352</ele>
        <time>2014-04-27T12:05:06.000Z</time>
      </trkpt>
      <trkpt lat="48.70151" lon="1.75271">
        <ele>175.60000610352</ele>
        <time>2014-04-27T12:05:11.000Z</time>
      </trkpt>
      <trkpt lat="48.70156" lon="1.75259">
        <ele>175.60000610352</ele>
        <time>2014-04-27T12:05:18.000Z</time>
      </trkpt>
      <trkpt lat="48.70164" lon="1.75252">
        <ele>175.80000305176</ele>
        <time>2014-04-27T12:05:23.000Z</time>
      </trkpt>
      <trkpt lat="48.70174" lon="1.75249">
        <ele>175.80000305176</ele>
        <time>2014-04-27T12:05:28.000Z</time>
      </trkpt>
      <trkpt lat="48.70185" lon="1.75246">
        <ele>176</ele>
        <time>2014-04-27T12:05:33.000Z</time>
      </trkpt>
      <trkpt lat="48.70192" lon="1.75242">
        <ele>176.19999694824</ele>
        <time>2014-04-27T12:05:41.000Z</time>
      </trkpt>
      <trkpt lat="48.70199" lon="1.75237">
        <ele>176.60000610352</ele>
        <time>2014-04-27T12:05:47.000Z</time>
      </trkpt>
      <trkpt lat="48.70204" lon="1.75234">
        <ele>176.80000305176</ele>
        <time>2014-04-27T12:05:51.000Z</time>
      </trkpt>
      <trkpt lat="48.70209" lon="1.75233">
        <ele>177</ele>
        <time>2014-04-27T12:05:54.000Z</time>
      </trkpt>
      <trkpt lat="48.70216" lon="1.75232">
        <ele>177.39999389648</ele>
        <time>2014-04-27T12:05:59.000Z</time>
      </trkpt>
      <trkpt lat="48.70229" lon="1.75238">
        <ele>178</ele>
        <time>2014-04-27T12:06:07.000Z</time>
      </trkpt>
      <trkpt lat="48.70236" lon="1.75244">
        <ele>178.39999389648</ele>
        <time>2014-04-27T12:06:12.000Z</time>
      </trkpt>
      <trkpt lat="48.70244" lon="1.75247">
        <ele>178.60000610352</ele>
        <time>2014-04-27T12:06:16.000Z</time>
      </trkpt>
      <trkpt lat="48.70258" lon="1.75254">
        <ele>179.19999694824</ele>
        <time>2014-04-27T12:06:23.000Z</time>
      </trkpt>
      <trkpt lat="48.70266" lon="1.7526">
        <ele>179.60000610352</ele>
        <time>2014-04-27T12:06:27.000Z</time>
      </trkpt>
      <trkpt lat="48.70271" lon="1.75265">
        <ele>179.60000610352</ele>
        <time>2014-04-27T12:06:31.000Z</time>
      </trkpt>
      <trkpt lat="48.70273" lon="1.7527">
        <ele>179.60000610352</ele>
        <time>2014-04-27T12:06:37.000Z</time>
      </trkpt>
      <trkpt lat="48.7028" lon="1.75274">
        <ele>179.80000305176</ele>
        <time>2014-04-27T12:06:43.000Z</time>
      </trkpt>
      <trkpt lat="48.70284" lon="1.7528">
        <ele>179.80000305176</ele>
        <time>2014-04-27T12:06:46.000Z</time>
      </trkpt>
      <trkpt lat="48.70295" lon="1.75284">
        <ele>180</ele>
        <time>2014-04-27T12:06:52.000Z</time>
      </trkpt>
      <trkpt lat="48.70299" lon="1.75286">
        <ele>180.19999694824</ele>
        <time>2014-04-27T12:06:55.000Z</time>
      </trkpt>
      <trkpt lat="48.70306" lon="1.75295">
        <ele>180.19999694824</ele>
        <time>2014-04-27T12:07:02.000Z</time>
      </trkpt>
      <trkpt lat="48.7031" lon="1.75309">
        <ele>180.19999694824</ele>
        <time>2014-04-27T12:07:10.000Z</time>
      </trkpt>
      <trkpt lat="48.70313" lon="1.75315">
        <ele>180</ele>
        <time>2014-04-27T12:07:13.000Z</time>
      </trkpt>
      <trkpt lat="48.7032" lon="1.75331">
        <ele>180.19999694824</ele>
        <time>2014-04-27T12:07:21.000Z</time>
      </trkpt>
      <trkpt lat="48.70324" lon="1.75339">
        <ele>180.19999694824</ele>
        <time>2014-04-27T12:07:26.000Z</time>
      </trkpt>
      <trkpt lat="48.7033" lon="1.75347">
        <ele>180.39999389648</ele>
        <time>2014-04-27T12:07:32.000Z</time>
      </trkpt>
      <trkpt lat="48.70336" lon="1.75353">
        <ele>180.60000610352</ele>
        <time>2014-04-27T12:07:38.000Z</time>
      </trkpt>
      <trkpt lat="48.70344" lon="1.7536">
        <ele>180.80000305176</ele>
        <time>2014-04-27T12:07:45.000Z</time>
      </trkpt>
      <trkpt lat="48.70349" lon="1.75367">
        <ele>180.80000305176</ele>
        <time>2014-04-27T12:07:50.000Z</time>
      </trkpt>
      <trkpt lat="48.70355" lon="1.75377">
        <ele>181</ele>
        <time>2014-04-27T12:07:56.000Z</time>
      </trkpt>
      <trkpt lat="48.70358" lon="1.75381">
        <ele>181</ele>
        <time>2014-04-27T12:07:59.000Z</time>
      </trkpt>
      <trkpt lat="48.70364" lon="1.75386">
        <ele>181.19999694824</ele>
        <time>2014-04-27T12:08:04.000Z</time>
      </trkpt>
      <trkpt lat="48.70368" lon="1.75391">
        <ele>181.19999694824</ele>
        <time>2014-04-27T12:08:08.000Z</time>
      </trkpt>
      <trkpt lat="48.70378" lon="1.75398">
        <ele>181.19999694824</ele>
        <time>2014-04-27T12:08:16.000Z</time>
      </trkpt>
      <trkpt lat="48.70381" lon="1.754">
        <ele>181.39999389648</ele>
        <time>2014-04-27T12:08:18.000Z</time>
      </trkpt>
      <trkpt lat="48.70391" lon="1.75406">
        <ele>181.39999389648</ele>
        <time>2014-04-27T12:08:25.000Z</time>
      </trkpt>
      <trkpt lat="48.70394" lon="1.75408">
        <ele>181.60000610352</ele>
        <time>2014-04-27T12:08:27.000Z</time>
      </trkpt>
      <trkpt lat="48.70399" lon="1.75411">
        <ele>181.80000305176</ele>
        <time>2014-04-27T12:08:31.000Z</time>
      </trkpt>
      <trkpt lat="48.70409" lon="1.75415">
        <ele>182</ele>
        <time>2014-04-27T12:08:38.000Z</time>
      </trkpt>
      <trkpt lat="48.70414" lon="1.75418">
        <ele>182</ele>
        <time>2014-04-27T12:08:41.000Z</time>
      </trkpt>
      <trkpt lat="48.70422" lon="1.75423">
        <ele>182.19999694824</ele>
        <time>2014-04-27T12:08:46.000Z</time>
      </trkpt>
      <trkpt lat="48.7043" lon="1.7543">
        <ele>182.60000610352</ele>
        <time>2014-04-27T12:08:53.000Z</time>
      </trkpt>
      <trkpt lat="48.70432" lon="1.75431">
        <ele>182.60000610352</ele>
        <time>2014-04-27T12:08:54.000Z</time>
      </trkpt>
      <trkpt lat="48.70437" lon="1.75437">
        <ele>182.80000305176</ele>
        <time>2014-04-27T12:08:59.000Z</time>
      </trkpt>
      <trkpt lat="48.70447" lon="1.75444">
        <ele>182.60000610352</ele>
        <time>2014-04-27T12:09:06.000Z</time>
      </trkpt>
      <trkpt lat="48.70458" lon="1.7545">
        <ele>182.39999389648</ele>
        <time>2014-04-27T12:09:14.000Z</time>
      </trkpt>
      <trkpt lat="48.70465" lon="1.75458">
        <ele>182.19999694824</ele>
        <time>2014-04-27T12:09:20.000Z</time>
      </trkpt>
      <trkpt lat="48.70473" lon="1.75467">
        <ele>182.19999694824</ele>
        <time>2014-04-27T12:09:27.000Z</time>
      </trkpt>
      <trkpt lat="48.70481" lon="1.75477">
        <ele>182.19999694824</ele>
        <time>2014-04-27T12:09:34.000Z</time>
      </trkpt>
      <trkpt lat="48.70484" lon="1.75482">
        <ele>182.19999694824</ele>
        <time>2014-04-27T12:09:39.000Z</time>
      </trkpt>
      <trkpt lat="48.70492" lon="1.7549">
        <ele>182.19999694824</ele>
        <time>2014-04-27T12:09:45.000Z</time>
      </trkpt>
      <trkpt lat="48.70497" lon="1.75493">
        <ele>182.19999694824</ele>
        <time>2014-04-27T12:09:48.000Z</time>
      </trkpt>
      <trkpt lat="48.70503" lon="1.75498">
        <ele>182.19999694824</ele>
        <time>2014-04-27T12:09:53.000Z</time>
      </trkpt>
      <trkpt lat="48.7051" lon="1.75506">
        <ele>182.19999694824</ele>
        <time>2014-04-27T12:09:59.000Z</time>
      </trkpt>
      <trkpt lat="48.70517" lon="1.75511">
        <ele>182.19999694824</ele>
        <time>2014-04-27T12:10:05.000Z</time>
      </trkpt>
      <trkpt lat="48.7052" lon="1.75514">
        <ele>182.19999694824</ele>
        <time>2014-04-27T12:10:08.000Z</time>
      </trkpt>
      <trkpt lat="48.70523" lon="1.75517">
        <ele>182.39999389648</ele>
        <time>2014-04-27T12:10:10.000Z</time>
      </trkpt>
      <trkpt lat="48.70528" lon="1.75523">
        <ele>182.39999389648</ele>
        <time>2014-04-27T12:10:14.000Z</time>
      </trkpt>
      <trkpt lat="48.70537" lon="1.75533">
        <ele>182.80000305176</ele>
        <time>2014-04-27T12:10:21.000Z</time>
      </trkpt>
      <trkpt lat="48.70541" lon="1.75541">
        <ele>183</ele>
        <time>2014-04-27T12:10:27.000Z</time>
      </trkpt>
      <trkpt lat="48.70548" lon="1.75547">
        <ele>183.19999694824</ele>
        <time>2014-04-27T12:10:32.000Z</time>
      </trkpt>
      <trkpt lat="48.70551" lon="1.7555">
        <ele>183.19999694824</ele>
        <time>2014-04-27T12:10:34.000Z</time>
      </trkpt>
      <trkpt lat="48.70559" lon="1.75556">
        <ele>183.39999389648</ele>
        <time>2014-04-27T12:10:40.000Z</time>
      </trkpt>
      <trkpt lat="48.70569" lon="1.75564">
        <ele>183.39999389648</ele>
        <time>2014-04-27T12:10:47.000Z</time>
      </trkpt>
      <trkpt lat="48.70579" lon="1.75574">
        <ele>183.60000610352</ele>
        <time>2014-04-27T12:10:55.000Z</time>
      </trkpt>
      <trkpt lat="48.7058" lon="1.75576">
        <ele>183.60000610352</ele>
        <time>2014-04-27T12:10:56.000Z</time>
      </trkpt>
      <trkpt lat="48.70584" lon="1.75584">
        <ele>183.80000305176</ele>
        <time>2014-04-27T12:11:01.000Z</time>
      </trkpt>
      <trkpt lat="48.7059" lon="1.75596">
        <ele>184</ele>
        <time>2014-04-27T12:11:09.000Z</time>
      </trkpt>
      <trkpt lat="48.70597" lon="1.75608">
        <ele>184</ele>
        <time>2014-04-27T12:11:16.000Z</time>
      </trkpt>
      <trkpt lat="48.706" lon="1.75611">
        <ele>184</ele>
        <time>2014-04-27T12:11:18.000Z</time>
      </trkpt>
      <trkpt lat="48.70604" lon="1.75619">
        <ele>184</ele>
        <time>2014-04-27T12:11:24.000Z</time>
      </trkpt>
      <trkpt lat="48.70607" lon="1.75623">
        <ele>183.80000305176</ele>
        <time>2014-04-27T12:11:27.000Z</time>
      </trkpt>
      <trkpt lat="48.70619" lon="1.75638">
        <ele>182.80000305176</ele>
        <time>2014-04-27T12:11:37.000Z</time>
      </trkpt>
      <trkpt lat="48.70622" lon="1.75641">
        <ele>182.39999389648</ele>
        <time>2014-04-27T12:11:40.000Z</time>
      </trkpt>
      <trkpt lat="48.70624" lon="1.75643">
        <ele>182.19999694824</ele>
        <time>2014-04-27T12:11:45.000Z</time>
      </trkpt>
      <trkpt lat="48.7064" lon="1.75637">
        <ele>180.19999694824</ele>
        <time>2014-04-27T12:13:33.000Z</time>
      </trkpt>
      <trkpt lat="48.70642" lon="1.75625">
        <ele>179.80000305176</ele>
        <time>2014-04-27T12:13:39.000Z</time>
      </trkpt>
      <trkpt lat="48.70645" lon="1.75612">
        <ele>179</ele>
        <time>2014-04-27T12:13:47.000Z</time>
      </trkpt>
      <trkpt lat="48.7065" lon="1.75597">
        <ele>178.60000610352</ele>
        <time>2014-04-27T12:13:55.000Z</time>
      </trkpt>
      <trkpt lat="48.70657" lon="1.75583">
        <ele>177.80000305176</ele>
        <time>2014-04-27T12:14:04.000Z</time>
      </trkpt>
      <trkpt lat="48.70662" lon="1.75573">
        <ele>177.39999389648</ele>
        <time>2014-04-27T12:14:11.000Z</time>
      </trkpt>
      <trkpt lat="48.70667" lon="1.75565">
        <ele>176.39999389648</ele>
        <time>2014-04-27T12:14:17.000Z</time>
      </trkpt>
      <trkpt lat="48.70671" lon="1.75554">
        <ele>174.80000305176</ele>
        <time>2014-04-27T12:14:24.000Z</time>
      </trkpt>
      <trkpt lat="48.70673" lon="1.75553">
        <ele>174.80000305176</ele>
        <time>2014-04-27T12:14:28.000Z</time>
      </trkpt>
      <trkpt lat="48.70675" lon="1.75547">
        <ele>174.60000610352</ele>
        <time>2014-04-27T12:14:32.000Z</time>
      </trkpt>
      <trkpt lat="48.70677" lon="1.75537">
        <ele>174.39999389648</ele>
        <time>2014-04-27T12:14:39.000Z</time>
      </trkpt>
      <trkpt lat="48.70677" lon="1.75536">
        <ele>174.19999694824</ele>
        <time>2014-04-27T12:14:40.000Z</time>
      </trkpt>
      <trkpt lat="48.70679" lon="1.7553">
        <ele>174.19999694824</ele>
        <time>2014-04-27T12:14:45.000Z</time>
      </trkpt>
      <trkpt lat="48.7068" lon="1.75528">
        <ele>174</ele>
        <time>2014-04-27T12:14:46.000Z</time>
      </trkpt>
      <trkpt lat="48.70683" lon="1.75518">
        <ele>173.80000305176</ele>
        <time>2014-04-27T12:14:52.000Z</time>
      </trkpt>
      <trkpt lat="48.70685" lon="1.75511">
        <ele>173.60000610352</ele>
        <time>2014-04-27T12:14:56.000Z</time>
      </trkpt>
      <trkpt lat="48.70689" lon="1.75505">
        <ele>173.39999389648</ele>
        <time>2014-04-27T12:15:02.000Z</time>
      </trkpt>
      <trkpt lat="48.70692" lon="1.75499">
        <ele>173</ele>
        <time>2014-04-27T12:15:06.000Z</time>
      </trkpt>
      <trkpt lat="48.70692" lon="1.75497">
        <ele>173</ele>
        <time>2014-04-27T12:15:07.000Z</time>
      </trkpt>
      <trkpt lat="48.70695" lon="1.75488">
        <ele>172.80000305176</ele>
        <time>2014-04-27T12:15:15.000Z</time>
      </trkpt>
      <trkpt lat="48.70695" lon="1.75488">
        <ele>172.80000305176</ele>
        <time>2014-04-27T12:15:16.000Z</time>
      </trkpt>
    </trkseg>
  </trk>
</gpx>